<?xml version="1.0" encoding="UTF-8" standalone="no" ?>
<gpx xmlns="http://www.topografix.com/GPX/1/1" xmlns:xsi="http://www.w3.org/2001/XMLSchema-instance" xsi:schemaLocation="http://www.topografix.com/GPX/1/1 http://www.topografix.com/GPX/1/1/gpx.xsd" version="1.1" creator="VisuGPX - https://www.visugpx.com">
  <metadata>
    <name>GR20 20150706 Etape 14 Asinau - Paliri</name>
    <desc><![CDATA[GR20 Etape 14
Météo ensoleillée]]></desc>
  </metadata>
  <trk>
    <name><![CDATA[ACTIVE LOG062525]]></name>
    <trkseg>
      <trkpt lat="41.83955" lon="9.2153">
        <ele>1465.854</ele>
        <time>2015-07-06T04:25:23Z</time>
      </trkpt>
      <trkpt lat="41.83955" lon="9.2153">
        <ele>1465.854</ele>
        <time>2015-07-06T04:25:25Z</time>
      </trkpt>
      <trkpt lat="41.83955" lon="9.2153">
        <ele>1467.931</ele>
        <time>2015-07-06T04:25:27Z</time>
      </trkpt>
      <trkpt lat="41.83956" lon="9.21529">
        <ele>1468.043</ele>
        <time>2015-07-06T04:25:51Z</time>
      </trkpt>
      <trkpt lat="41.83957" lon="9.21527">
        <ele>1468.728</ele>
        <time>2015-07-06T04:26:29Z</time>
      </trkpt>
      <trkpt lat="41.83957" lon="9.21526">
        <ele>1467.892</ele>
        <time>2015-07-06T04:27:20Z</time>
      </trkpt>
      <trkpt lat="41.83959" lon="9.21531">
        <ele>1467.769</ele>
        <time>2015-07-06T04:27:37Z</time>
      </trkpt>
      <trkpt lat="41.83959" lon="9.21539">
        <ele>1467.801</ele>
        <time>2015-07-06T04:27:54Z</time>
      </trkpt>
      <trkpt lat="41.83962" lon="9.21546">
        <ele>1466.989</ele>
        <time>2015-07-06T04:28:07Z</time>
      </trkpt>
      <trkpt lat="41.8396" lon="9.21549">
        <ele>1466.625</ele>
        <time>2015-07-06T04:28:21Z</time>
      </trkpt>
      <trkpt lat="41.83957" lon="9.2155">
        <ele>1465.955</ele>
        <time>2015-07-06T04:28:47Z</time>
      </trkpt>
      <trkpt lat="41.83955" lon="9.21562">
        <ele>1464.322</ele>
        <time>2015-07-06T04:29:02Z</time>
      </trkpt>
      <trkpt lat="41.8395" lon="9.21572">
        <ele>1462.101</ele>
        <time>2015-07-06T04:29:16Z</time>
      </trkpt>
      <trkpt lat="41.8394" lon="9.21573">
        <ele>1459.738</ele>
        <time>2015-07-06T04:29:31Z</time>
      </trkpt>
      <trkpt lat="41.83927" lon="9.21561">
        <ele>1459.381</ele>
        <time>2015-07-06T04:29:48Z</time>
      </trkpt>
      <trkpt lat="41.83927" lon="9.21562">
        <ele>1458.961</ele>
        <time>2015-07-06T04:29:55Z</time>
      </trkpt>
      <trkpt lat="41.83927" lon="9.21561">
        <ele>1459.154</ele>
        <time>2015-07-06T04:30:13Z</time>
      </trkpt>
      <trkpt lat="41.83926" lon="9.21562">
        <ele>1459.294</ele>
        <time>2015-07-06T04:30:28Z</time>
      </trkpt>
      <trkpt lat="41.83922" lon="9.2156">
        <ele>1458.695</ele>
        <time>2015-07-06T04:30:40Z</time>
      </trkpt>
      <trkpt lat="41.83912" lon="9.21547">
        <ele>1457.061</ele>
        <time>2015-07-06T04:30:58Z</time>
      </trkpt>
      <trkpt lat="41.83906" lon="9.21545">
        <ele>1454.996</ele>
        <time>2015-07-06T04:31:10Z</time>
      </trkpt>
      <trkpt lat="41.83899" lon="9.21537">
        <ele>1453.468</ele>
        <time>2015-07-06T04:31:24Z</time>
      </trkpt>
      <trkpt lat="41.83894" lon="9.21525">
        <ele>1451.548</ele>
        <time>2015-07-06T04:31:39Z</time>
      </trkpt>
      <trkpt lat="41.83896" lon="9.21518">
        <ele>1450.466</ele>
        <time>2015-07-06T04:31:53Z</time>
      </trkpt>
      <trkpt lat="41.83895" lon="9.21513">
        <ele>1448.805</ele>
        <time>2015-07-06T04:32:01Z</time>
      </trkpt>
      <trkpt lat="41.8389" lon="9.21508">
        <ele>1446.41</ele>
        <time>2015-07-06T04:32:15Z</time>
      </trkpt>
      <trkpt lat="41.83889" lon="9.21501">
        <ele>1445.681</ele>
        <time>2015-07-06T04:32:27Z</time>
      </trkpt>
      <trkpt lat="41.83889" lon="9.21489">
        <ele>1445.925</ele>
        <time>2015-07-06T04:32:40Z</time>
      </trkpt>
      <trkpt lat="41.8389" lon="9.21479">
        <ele>1446.578</ele>
        <time>2015-07-06T04:32:54Z</time>
      </trkpt>
      <trkpt lat="41.83876" lon="9.21476">
        <ele>1444.702</ele>
        <time>2015-07-06T04:33:10Z</time>
      </trkpt>
      <trkpt lat="41.83871" lon="9.21474">
        <ele>1444.442</ele>
        <time>2015-07-06T04:33:15Z</time>
      </trkpt>
      <trkpt lat="41.83869" lon="9.21468">
        <ele>1444.308</ele>
        <time>2015-07-06T04:33:19Z</time>
      </trkpt>
      <trkpt lat="41.83867" lon="9.21457">
        <ele>1443.999</ele>
        <time>2015-07-06T04:33:28Z</time>
      </trkpt>
      <trkpt lat="41.83862" lon="9.2144">
        <ele>1443.49</ele>
        <time>2015-07-06T04:33:43Z</time>
      </trkpt>
      <trkpt lat="41.83854" lon="9.21434">
        <ele>1443.307</ele>
        <time>2015-07-06T04:33:58Z</time>
      </trkpt>
      <trkpt lat="41.83844" lon="9.21435">
        <ele>1442.52</ele>
        <time>2015-07-06T04:34:13Z</time>
      </trkpt>
      <trkpt lat="41.83832" lon="9.21426">
        <ele>1443.028</ele>
        <time>2015-07-06T04:34:27Z</time>
      </trkpt>
      <trkpt lat="41.83819" lon="9.2142">
        <ele>1441.724</ele>
        <time>2015-07-06T04:34:44Z</time>
      </trkpt>
      <trkpt lat="41.83807" lon="9.21417">
        <ele>1439.984</ele>
        <time>2015-07-06T04:34:59Z</time>
      </trkpt>
      <trkpt lat="41.83798" lon="9.21416">
        <ele>1438.842</ele>
        <time>2015-07-06T04:35:14Z</time>
      </trkpt>
      <trkpt lat="41.83789" lon="9.21412">
        <ele>1436.573</ele>
        <time>2015-07-06T04:35:29Z</time>
      </trkpt>
      <trkpt lat="41.83781" lon="9.21412">
        <ele>1434.157</ele>
        <time>2015-07-06T04:35:43Z</time>
      </trkpt>
      <trkpt lat="41.83768" lon="9.21405">
        <ele>1432.698</ele>
        <time>2015-07-06T04:36:01Z</time>
      </trkpt>
      <trkpt lat="41.83758" lon="9.21399">
        <ele>1431.091</ele>
        <time>2015-07-06T04:36:16Z</time>
      </trkpt>
      <trkpt lat="41.83748" lon="9.21396">
        <ele>1429.218</ele>
        <time>2015-07-06T04:36:32Z</time>
      </trkpt>
      <trkpt lat="41.83734" lon="9.21383">
        <ele>1427.078</ele>
        <time>2015-07-06T04:36:51Z</time>
      </trkpt>
      <trkpt lat="41.8373" lon="9.21382">
        <ele>1425.451</ele>
        <time>2015-07-06T04:36:56Z</time>
      </trkpt>
      <trkpt lat="41.83719" lon="9.21376">
        <ele>1424.46</ele>
        <time>2015-07-06T04:37:12Z</time>
      </trkpt>
      <trkpt lat="41.83711" lon="9.21371">
        <ele>1422.683</ele>
        <time>2015-07-06T04:37:26Z</time>
      </trkpt>
      <trkpt lat="41.83705" lon="9.21365">
        <ele>1421.503</ele>
        <time>2015-07-06T04:37:39Z</time>
      </trkpt>
      <trkpt lat="41.83697" lon="9.2136">
        <ele>1419.586</ele>
        <time>2015-07-06T04:37:53Z</time>
      </trkpt>
      <trkpt lat="41.8369" lon="9.21353">
        <ele>1417.887</ele>
        <time>2015-07-06T04:38:08Z</time>
      </trkpt>
      <trkpt lat="41.83683" lon="9.21348">
        <ele>1416.549</ele>
        <time>2015-07-06T04:38:21Z</time>
      </trkpt>
      <trkpt lat="41.83677" lon="9.21344">
        <ele>1414.107</ele>
        <time>2015-07-06T04:38:35Z</time>
      </trkpt>
      <trkpt lat="41.83674" lon="9.21341">
        <ele>1413.366</ele>
        <time>2015-07-06T04:38:40Z</time>
      </trkpt>
      <trkpt lat="41.83665" lon="9.2134">
        <ele>1411.029</ele>
        <time>2015-07-06T04:38:56Z</time>
      </trkpt>
      <trkpt lat="41.83658" lon="9.21342">
        <ele>1409.28</ele>
        <time>2015-07-06T04:39:12Z</time>
      </trkpt>
      <trkpt lat="41.83654" lon="9.21349">
        <ele>1407.121</ele>
        <time>2015-07-06T04:39:29Z</time>
      </trkpt>
      <trkpt lat="41.83647" lon="9.21353">
        <ele>1405.306</ele>
        <time>2015-07-06T04:39:43Z</time>
      </trkpt>
      <trkpt lat="41.83643" lon="9.2136">
        <ele>1403.99</ele>
        <time>2015-07-06T04:39:56Z</time>
      </trkpt>
      <trkpt lat="41.83638" lon="9.2136">
        <ele>1401.688</ele>
        <time>2015-07-06T04:40:10Z</time>
      </trkpt>
      <trkpt lat="41.83636" lon="9.21361">
        <ele>1399.598</ele>
        <time>2015-07-06T04:40:15Z</time>
      </trkpt>
      <trkpt lat="41.83634" lon="9.21362">
        <ele>1397.705</ele>
        <time>2015-07-06T04:40:20Z</time>
      </trkpt>
      <trkpt lat="41.83629" lon="9.2136">
        <ele>1397.169</ele>
        <time>2015-07-06T04:40:34Z</time>
      </trkpt>
      <trkpt lat="41.83624" lon="9.21367">
        <ele>1396.28</ele>
        <time>2015-07-06T04:40:47Z</time>
      </trkpt>
      <trkpt lat="41.83619" lon="9.2137">
        <ele>1393.072</ele>
        <time>2015-07-06T04:41:02Z</time>
      </trkpt>
      <trkpt lat="41.83612" lon="9.21372">
        <ele>1391.398</ele>
        <time>2015-07-06T04:41:19Z</time>
      </trkpt>
      <trkpt lat="41.83606" lon="9.21371">
        <ele>1390.657</ele>
        <time>2015-07-06T04:41:31Z</time>
      </trkpt>
      <trkpt lat="41.83598" lon="9.21371">
        <ele>1387.608</ele>
        <time>2015-07-06T04:41:45Z</time>
      </trkpt>
      <trkpt lat="41.83594" lon="9.21379">
        <ele>1386.777</ele>
        <time>2015-07-06T04:41:57Z</time>
      </trkpt>
      <trkpt lat="41.83586" lon="9.21379">
        <ele>1383.937</ele>
        <time>2015-07-06T04:42:10Z</time>
      </trkpt>
      <trkpt lat="41.83574" lon="9.21378">
        <ele>1382.035</ele>
        <time>2015-07-06T04:42:26Z</time>
      </trkpt>
      <trkpt lat="41.83566" lon="9.21379">
        <ele>1378.487</ele>
        <time>2015-07-06T04:42:39Z</time>
      </trkpt>
      <trkpt lat="41.83559" lon="9.2138">
        <ele>1377.505</ele>
        <time>2015-07-06T04:42:52Z</time>
      </trkpt>
      <trkpt lat="41.83551" lon="9.21385">
        <ele>1374.766</ele>
        <time>2015-07-06T04:43:07Z</time>
      </trkpt>
      <trkpt lat="41.83542" lon="9.21387">
        <ele>1372.75</ele>
        <time>2015-07-06T04:43:20Z</time>
      </trkpt>
      <trkpt lat="41.83534" lon="9.21388">
        <ele>1371.376</ele>
        <time>2015-07-06T04:43:33Z</time>
      </trkpt>
      <trkpt lat="41.83527" lon="9.21389">
        <ele>1367.839</ele>
        <time>2015-07-06T04:43:45Z</time>
      </trkpt>
      <trkpt lat="41.83521" lon="9.21388">
        <ele>1366.158</ele>
        <time>2015-07-06T04:43:57Z</time>
      </trkpt>
      <trkpt lat="41.83517" lon="9.21387">
        <ele>1364.621</ele>
        <time>2015-07-06T04:44:03Z</time>
      </trkpt>
      <trkpt lat="41.83508" lon="9.21382">
        <ele>1363.89</ele>
        <time>2015-07-06T04:44:17Z</time>
      </trkpt>
      <trkpt lat="41.83499" lon="9.21383">
        <ele>1363.204</ele>
        <time>2015-07-06T04:44:30Z</time>
      </trkpt>
      <trkpt lat="41.83493" lon="9.21383">
        <ele>1360.934</ele>
        <time>2015-07-06T04:44:42Z</time>
      </trkpt>
      <trkpt lat="41.83487" lon="9.21383">
        <ele>1359.77</ele>
        <time>2015-07-06T04:44:54Z</time>
      </trkpt>
      <trkpt lat="41.83483" lon="9.2139">
        <ele>1358.256</ele>
        <time>2015-07-06T04:45:10Z</time>
      </trkpt>
      <trkpt lat="41.83479" lon="9.21399">
        <ele>1355.493</ele>
        <time>2015-07-06T04:45:25Z</time>
      </trkpt>
      <trkpt lat="41.83472" lon="9.21403">
        <ele>1353.113</ele>
        <time>2015-07-06T04:45:40Z</time>
      </trkpt>
      <trkpt lat="41.83465" lon="9.21401">
        <ele>1351.769</ele>
        <time>2015-07-06T04:45:55Z</time>
      </trkpt>
      <trkpt lat="41.83462" lon="9.21403">
        <ele>1350.625</ele>
        <time>2015-07-06T04:46:09Z</time>
      </trkpt>
      <trkpt lat="41.83458" lon="9.21404">
        <ele>1350.316</ele>
        <time>2015-07-06T04:46:22Z</time>
      </trkpt>
      <trkpt lat="41.83457" lon="9.21409">
        <ele>1348.544</ele>
        <time>2015-07-06T04:46:34Z</time>
      </trkpt>
      <trkpt lat="41.83459" lon="9.21412">
        <ele>1347.477</ele>
        <time>2015-07-06T04:46:45Z</time>
      </trkpt>
      <trkpt lat="41.83465" lon="9.21416">
        <ele>1345.936</ele>
        <time>2015-07-06T04:46:59Z</time>
      </trkpt>
      <trkpt lat="41.83467" lon="9.21418">
        <ele>1345.416</ele>
        <time>2015-07-06T04:47:12Z</time>
      </trkpt>
      <trkpt lat="41.8347" lon="9.21421">
        <ele>1345.373</ele>
        <time>2015-07-06T04:47:26Z</time>
      </trkpt>
      <trkpt lat="41.83471" lon="9.21424">
        <ele>1344.103</ele>
        <time>2015-07-06T04:47:59Z</time>
      </trkpt>
      <trkpt lat="41.83472" lon="9.21427">
        <ele>1344.602</ele>
        <time>2015-07-06T04:48:06Z</time>
      </trkpt>
      <trkpt lat="41.83475" lon="9.21433">
        <ele>1344.998</ele>
        <time>2015-07-06T04:48:17Z</time>
      </trkpt>
      <trkpt lat="41.83474" lon="9.21438">
        <ele>1345.488</ele>
        <time>2015-07-06T04:48:28Z</time>
      </trkpt>
      <trkpt lat="41.83472" lon="9.21444">
        <ele>1345.669</ele>
        <time>2015-07-06T04:48:40Z</time>
      </trkpt>
      <trkpt lat="41.83471" lon="9.21449">
        <ele>1346.108</ele>
        <time>2015-07-06T04:48:55Z</time>
      </trkpt>
      <trkpt lat="41.83467" lon="9.21454">
        <ele>1346.382</ele>
        <time>2015-07-06T04:49:07Z</time>
      </trkpt>
      <trkpt lat="41.83464" lon="9.21454">
        <ele>1346.027</ele>
        <time>2015-07-06T04:49:21Z</time>
      </trkpt>
      <trkpt lat="41.83456" lon="9.21459">
        <ele>1346.739</ele>
        <time>2015-07-06T04:49:35Z</time>
      </trkpt>
      <trkpt lat="41.83455" lon="9.21457">
        <ele>1345.434</ele>
        <time>2015-07-06T04:49:39Z</time>
      </trkpt>
      <trkpt lat="41.83447" lon="9.21457">
        <ele>1344.676</ele>
        <time>2015-07-06T04:49:53Z</time>
      </trkpt>
      <trkpt lat="41.83445" lon="9.21457">
        <ele>1344.771</ele>
        <time>2015-07-06T04:49:55Z</time>
      </trkpt>
      <trkpt lat="41.83432" lon="9.21459">
        <ele>1344.872</ele>
        <time>2015-07-06T04:50:09Z</time>
      </trkpt>
      <trkpt lat="41.83423" lon="9.2146">
        <ele>1343.946</ele>
        <time>2015-07-06T04:50:22Z</time>
      </trkpt>
      <trkpt lat="41.83415" lon="9.21457">
        <ele>1344.226</ele>
        <time>2015-07-06T04:50:36Z</time>
      </trkpt>
      <trkpt lat="41.8341" lon="9.21454">
        <ele>1344.618</ele>
        <time>2015-07-06T04:50:46Z</time>
      </trkpt>
      <trkpt lat="41.83398" lon="9.21456">
        <ele>1345.71</ele>
        <time>2015-07-06T04:51:02Z</time>
      </trkpt>
      <trkpt lat="41.83395" lon="9.21456">
        <ele>1346.182</ele>
        <time>2015-07-06T04:51:06Z</time>
      </trkpt>
      <trkpt lat="41.83387" lon="9.21458">
        <ele>1346.024</ele>
        <time>2015-07-06T04:51:19Z</time>
      </trkpt>
      <trkpt lat="41.8338" lon="9.21459">
        <ele>1345.702</ele>
        <time>2015-07-06T04:51:31Z</time>
      </trkpt>
      <trkpt lat="41.83379" lon="9.21459">
        <ele>1345.532</ele>
        <time>2015-07-06T04:51:32Z</time>
      </trkpt>
      <trkpt lat="41.83372" lon="9.21457">
        <ele>1344.552</ele>
        <time>2015-07-06T04:51:41Z</time>
      </trkpt>
      <trkpt lat="41.83363" lon="9.21455">
        <ele>1343.672</ele>
        <time>2015-07-06T04:51:55Z</time>
      </trkpt>
      <trkpt lat="41.83356" lon="9.2145">
        <ele>1342.786</ele>
        <time>2015-07-06T04:52:09Z</time>
      </trkpt>
      <trkpt lat="41.83349" lon="9.21445">
        <ele>1342.205</ele>
        <time>2015-07-06T04:52:19Z</time>
      </trkpt>
      <trkpt lat="41.83344" lon="9.21439">
        <ele>1340.809</ele>
        <time>2015-07-06T04:52:30Z</time>
      </trkpt>
      <trkpt lat="41.83344" lon="9.21436">
        <ele>1339.34</ele>
        <time>2015-07-06T04:52:33Z</time>
      </trkpt>
      <trkpt lat="41.83337" lon="9.21432">
        <ele>1339.875</ele>
        <time>2015-07-06T04:52:46Z</time>
      </trkpt>
      <trkpt lat="41.83334" lon="9.21427">
        <ele>1339.392</ele>
        <time>2015-07-06T04:53:02Z</time>
      </trkpt>
      <trkpt lat="41.83326" lon="9.21424">
        <ele>1339.801</ele>
        <time>2015-07-06T04:53:15Z</time>
      </trkpt>
      <trkpt lat="41.83321" lon="9.2142">
        <ele>1340.061</ele>
        <time>2015-07-06T04:53:24Z</time>
      </trkpt>
      <trkpt lat="41.8331" lon="9.2142">
        <ele>1340.476</ele>
        <time>2015-07-06T04:53:39Z</time>
      </trkpt>
      <trkpt lat="41.83298" lon="9.21421">
        <ele>1341.516</ele>
        <time>2015-07-06T04:53:52Z</time>
      </trkpt>
      <trkpt lat="41.83292" lon="9.21416">
        <ele>1340.208</ele>
        <time>2015-07-06T04:54:06Z</time>
      </trkpt>
      <trkpt lat="41.83283" lon="9.21412">
        <ele>1339.464</ele>
        <time>2015-07-06T04:54:17Z</time>
      </trkpt>
      <trkpt lat="41.83272" lon="9.21408">
        <ele>1340.04</ele>
        <time>2015-07-06T04:54:32Z</time>
      </trkpt>
      <trkpt lat="41.83268" lon="9.21401">
        <ele>1339.299</ele>
        <time>2015-07-06T04:54:44Z</time>
      </trkpt>
      <trkpt lat="41.83264" lon="9.21394">
        <ele>1337.391</ele>
        <time>2015-07-06T04:54:55Z</time>
      </trkpt>
      <trkpt lat="41.83264" lon="9.2139">
        <ele>1336.864</ele>
        <time>2015-07-06T04:55:08Z</time>
      </trkpt>
      <trkpt lat="41.83264" lon="9.2139">
        <ele>1335.568</ele>
        <time>2015-07-06T04:55:12Z</time>
      </trkpt>
      <trkpt lat="41.83262" lon="9.21384">
        <ele>1332.964</ele>
        <time>2015-07-06T04:55:23Z</time>
      </trkpt>
      <trkpt lat="41.83259" lon="9.21374">
        <ele>1331.901</ele>
        <time>2015-07-06T04:55:37Z</time>
      </trkpt>
      <trkpt lat="41.83253" lon="9.21363">
        <ele>1329.605</ele>
        <time>2015-07-06T04:55:49Z</time>
      </trkpt>
      <trkpt lat="41.83249" lon="9.21351">
        <ele>1327.724</ele>
        <time>2015-07-06T04:56:02Z</time>
      </trkpt>
      <trkpt lat="41.83241" lon="9.21344">
        <ele>1327.452</ele>
        <time>2015-07-06T04:56:10Z</time>
      </trkpt>
      <trkpt lat="41.83235" lon="9.21335">
        <ele>1327.495</ele>
        <time>2015-07-06T04:56:21Z</time>
      </trkpt>
      <trkpt lat="41.83224" lon="9.21334">
        <ele>1327.315</ele>
        <time>2015-07-06T04:56:30Z</time>
      </trkpt>
      <trkpt lat="41.83218" lon="9.21331">
        <ele>1329.796</ele>
        <time>2015-07-06T04:56:44Z</time>
      </trkpt>
      <trkpt lat="41.8321" lon="9.21332">
        <ele>1330.788</ele>
        <time>2015-07-06T04:56:58Z</time>
      </trkpt>
      <trkpt lat="41.83203" lon="9.21331">
        <ele>1331.384</ele>
        <time>2015-07-06T04:57:12Z</time>
      </trkpt>
      <trkpt lat="41.83199" lon="9.21331">
        <ele>1332.987</ele>
        <time>2015-07-06T04:57:25Z</time>
      </trkpt>
      <trkpt lat="41.83199" lon="9.2133">
        <ele>1334.152</ele>
        <time>2015-07-06T04:57:27Z</time>
      </trkpt>
      <trkpt lat="41.83195" lon="9.21329">
        <ele>1334.816</ele>
        <time>2015-07-06T04:57:47Z</time>
      </trkpt>
      <trkpt lat="41.83188" lon="9.21333">
        <ele>1336.072</ele>
        <time>2015-07-06T04:58:03Z</time>
      </trkpt>
      <trkpt lat="41.83183" lon="9.21332">
        <ele>1337.68</ele>
        <time>2015-07-06T04:58:11Z</time>
      </trkpt>
      <trkpt lat="41.83172" lon="9.21327">
        <ele>1338.216</ele>
        <time>2015-07-06T04:58:25Z</time>
      </trkpt>
      <trkpt lat="41.83164" lon="9.21326">
        <ele>1338.661</ele>
        <time>2015-07-06T04:58:41Z</time>
      </trkpt>
      <trkpt lat="41.83161" lon="9.21326">
        <ele>1339.603</ele>
        <time>2015-07-06T04:58:55Z</time>
      </trkpt>
      <trkpt lat="41.83153" lon="9.21326">
        <ele>1339.018</ele>
        <time>2015-07-06T04:59:08Z</time>
      </trkpt>
      <trkpt lat="41.83151" lon="9.21324">
        <ele>1340.278</ele>
        <time>2015-07-06T04:59:20Z</time>
      </trkpt>
      <trkpt lat="41.83144" lon="9.21326">
        <ele>1341.682</ele>
        <time>2015-07-06T04:59:32Z</time>
      </trkpt>
      <trkpt lat="41.8314" lon="9.21325">
        <ele>1342.497</ele>
        <time>2015-07-06T04:59:44Z</time>
      </trkpt>
      <trkpt lat="41.8313" lon="9.21323">
        <ele>1344.46</ele>
        <time>2015-07-06T04:59:58Z</time>
      </trkpt>
      <trkpt lat="41.83123" lon="9.2132">
        <ele>1345.679</ele>
        <time>2015-07-06T05:00:12Z</time>
      </trkpt>
      <trkpt lat="41.83114" lon="9.21319">
        <ele>1346.247</ele>
        <time>2015-07-06T05:00:25Z</time>
      </trkpt>
      <trkpt lat="41.83107" lon="9.21314">
        <ele>1343.9</ele>
        <time>2015-07-06T05:00:37Z</time>
      </trkpt>
      <trkpt lat="41.83107" lon="9.21306">
        <ele>1345.515</ele>
        <time>2015-07-06T05:00:48Z</time>
      </trkpt>
      <trkpt lat="41.83106" lon="9.213">
        <ele>1346.861</ele>
        <time>2015-07-06T05:01:00Z</time>
      </trkpt>
      <trkpt lat="41.83103" lon="9.21292">
        <ele>1347.771</ele>
        <time>2015-07-06T05:01:14Z</time>
      </trkpt>
      <trkpt lat="41.83099" lon="9.21284">
        <ele>1349.349</ele>
        <time>2015-07-06T05:01:28Z</time>
      </trkpt>
      <trkpt lat="41.83087" lon="9.21269">
        <ele>1349.731</ele>
        <time>2015-07-06T05:01:45Z</time>
      </trkpt>
      <trkpt lat="41.83079" lon="9.21264">
        <ele>1349.301</ele>
        <time>2015-07-06T05:01:54Z</time>
      </trkpt>
      <trkpt lat="41.83072" lon="9.21257">
        <ele>1350.404</ele>
        <time>2015-07-06T05:02:03Z</time>
      </trkpt>
      <trkpt lat="41.83052" lon="9.21251">
        <ele>1349.315</ele>
        <time>2015-07-06T05:02:23Z</time>
      </trkpt>
      <trkpt lat="41.83036" lon="9.21239">
        <ele>1349.226</ele>
        <time>2015-07-06T05:02:41Z</time>
      </trkpt>
      <trkpt lat="41.83021" lon="9.21236">
        <ele>1348.782</ele>
        <time>2015-07-06T05:02:59Z</time>
      </trkpt>
      <trkpt lat="41.83008" lon="9.21238">
        <ele>1347.228</ele>
        <time>2015-07-06T05:03:12Z</time>
      </trkpt>
      <trkpt lat="41.83004" lon="9.21239">
        <ele>1346.665</ele>
        <time>2015-07-06T05:03:17Z</time>
      </trkpt>
      <trkpt lat="41.82992" lon="9.21243">
        <ele>1345.351</ele>
        <time>2015-07-06T05:03:32Z</time>
      </trkpt>
      <trkpt lat="41.82987" lon="9.21246">
        <ele>1343.988</ele>
        <time>2015-07-06T05:03:45Z</time>
      </trkpt>
      <trkpt lat="41.82981" lon="9.21246">
        <ele>1341.451</ele>
        <time>2015-07-06T05:03:57Z</time>
      </trkpt>
      <trkpt lat="41.82977" lon="9.21245">
        <ele>1339.801</ele>
        <time>2015-07-06T05:04:08Z</time>
      </trkpt>
      <trkpt lat="41.8297" lon="9.21245">
        <ele>1338.253</ele>
        <time>2015-07-06T05:04:21Z</time>
      </trkpt>
      <trkpt lat="41.82964" lon="9.21246">
        <ele>1335.381</ele>
        <time>2015-07-06T05:04:35Z</time>
      </trkpt>
      <trkpt lat="41.82958" lon="9.2125">
        <ele>1335.604</ele>
        <time>2015-07-06T05:04:46Z</time>
      </trkpt>
      <trkpt lat="41.82956" lon="9.21252">
        <ele>1335.75</ele>
        <time>2015-07-06T05:05:32Z</time>
      </trkpt>
      <trkpt lat="41.82954" lon="9.21251">
        <ele>1336.086</ele>
        <time>2015-07-06T05:05:42Z</time>
      </trkpt>
      <trkpt lat="41.82953" lon="9.21248">
        <ele>1334.967</ele>
        <time>2015-07-06T05:05:53Z</time>
      </trkpt>
      <trkpt lat="41.82955" lon="9.21245">
        <ele>1335.76</ele>
        <time>2015-07-06T05:06:04Z</time>
      </trkpt>
      <trkpt lat="41.82951" lon="9.21239">
        <ele>1335.817</ele>
        <time>2015-07-06T05:06:15Z</time>
      </trkpt>
      <trkpt lat="41.82945" lon="9.21232">
        <ele>1337.084</ele>
        <time>2015-07-06T05:06:25Z</time>
      </trkpt>
      <trkpt lat="41.82943" lon="9.2123">
        <ele>1337.49</ele>
        <time>2015-07-06T05:06:28Z</time>
      </trkpt>
      <trkpt lat="41.82931" lon="9.21222">
        <ele>1338.469</ele>
        <time>2015-07-06T05:06:41Z</time>
      </trkpt>
      <trkpt lat="41.82929" lon="9.21217">
        <ele>1339.814</ele>
        <time>2015-07-06T05:07:00Z</time>
      </trkpt>
      <trkpt lat="41.82922" lon="9.21213">
        <ele>1341.706</ele>
        <time>2015-07-06T05:07:14Z</time>
      </trkpt>
      <trkpt lat="41.82915" lon="9.21208">
        <ele>1343.422</ele>
        <time>2015-07-06T05:07:27Z</time>
      </trkpt>
      <trkpt lat="41.82909" lon="9.21211">
        <ele>1344.793</ele>
        <time>2015-07-06T05:07:41Z</time>
      </trkpt>
      <trkpt lat="41.82904" lon="9.21209">
        <ele>1346.345</ele>
        <time>2015-07-06T05:07:53Z</time>
      </trkpt>
      <trkpt lat="41.82904" lon="9.21208">
        <ele>1346.896</ele>
        <time>2015-07-06T05:08:07Z</time>
      </trkpt>
      <trkpt lat="41.82899" lon="9.21201">
        <ele>1347.932</ele>
        <time>2015-07-06T05:08:20Z</time>
      </trkpt>
      <trkpt lat="41.82889" lon="9.21197">
        <ele>1349.064</ele>
        <time>2015-07-06T05:08:32Z</time>
      </trkpt>
      <trkpt lat="41.8288" lon="9.21192">
        <ele>1349.099</ele>
        <time>2015-07-06T05:08:45Z</time>
      </trkpt>
      <trkpt lat="41.82873" lon="9.21186">
        <ele>1349.087</ele>
        <time>2015-07-06T05:08:57Z</time>
      </trkpt>
      <trkpt lat="41.82861" lon="9.21185">
        <ele>1350.742</ele>
        <time>2015-07-06T05:09:10Z</time>
      </trkpt>
      <trkpt lat="41.82852" lon="9.21181">
        <ele>1352.285</ele>
        <time>2015-07-06T05:09:26Z</time>
      </trkpt>
      <trkpt lat="41.82842" lon="9.21184">
        <ele>1354.392</ele>
        <time>2015-07-06T05:09:40Z</time>
      </trkpt>
      <trkpt lat="41.82831" lon="9.21181">
        <ele>1354.239</ele>
        <time>2015-07-06T05:09:54Z</time>
      </trkpt>
      <trkpt lat="41.82822" lon="9.21181">
        <ele>1354.296</ele>
        <time>2015-07-06T05:10:02Z</time>
      </trkpt>
      <trkpt lat="41.82804" lon="9.21191">
        <ele>1355.99</ele>
        <time>2015-07-06T05:10:23Z</time>
      </trkpt>
      <trkpt lat="41.82799" lon="9.212">
        <ele>1357.846</ele>
        <time>2015-07-06T05:10:36Z</time>
      </trkpt>
      <trkpt lat="41.82795" lon="9.21209">
        <ele>1359.134</ele>
        <time>2015-07-06T05:10:48Z</time>
      </trkpt>
      <trkpt lat="41.82786" lon="9.21216">
        <ele>1360.633</ele>
        <time>2015-07-06T05:11:00Z</time>
      </trkpt>
      <trkpt lat="41.82779" lon="9.2122">
        <ele>1361.32</ele>
        <time>2015-07-06T05:11:11Z</time>
      </trkpt>
      <trkpt lat="41.82772" lon="9.21222">
        <ele>1362.615</ele>
        <time>2015-07-06T05:11:25Z</time>
      </trkpt>
      <trkpt lat="41.82765" lon="9.21224">
        <ele>1362.068</ele>
        <time>2015-07-06T05:11:39Z</time>
      </trkpt>
      <trkpt lat="41.82759" lon="9.21223">
        <ele>1365.309</ele>
        <time>2015-07-06T05:11:54Z</time>
      </trkpt>
      <trkpt lat="41.82753" lon="9.21229">
        <ele>1366.613</ele>
        <time>2015-07-06T05:12:14Z</time>
      </trkpt>
      <trkpt lat="41.82748" lon="9.21235">
        <ele>1369.411</ele>
        <time>2015-07-06T05:12:26Z</time>
      </trkpt>
      <trkpt lat="41.82743" lon="9.21243">
        <ele>1369.773</ele>
        <time>2015-07-06T05:12:55Z</time>
      </trkpt>
      <trkpt lat="41.8273" lon="9.21255">
        <ele>1372.774</ele>
        <time>2015-07-06T05:13:28Z</time>
      </trkpt>
      <trkpt lat="41.82727" lon="9.21263">
        <ele>1374.077</ele>
        <time>2015-07-06T05:13:49Z</time>
      </trkpt>
      <trkpt lat="41.82728" lon="9.21271">
        <ele>1376.281</ele>
        <time>2015-07-06T05:14:02Z</time>
      </trkpt>
      <trkpt lat="41.82725" lon="9.21274">
        <ele>1379.348</ele>
        <time>2015-07-06T05:14:14Z</time>
      </trkpt>
      <trkpt lat="41.82723" lon="9.21272">
        <ele>1380.108</ele>
        <time>2015-07-06T05:14:29Z</time>
      </trkpt>
      <trkpt lat="41.82724" lon="9.21278">
        <ele>1380.991</ele>
        <time>2015-07-06T05:14:43Z</time>
      </trkpt>
      <trkpt lat="41.82726" lon="9.21287">
        <ele>1384.213</ele>
        <time>2015-07-06T05:15:04Z</time>
      </trkpt>
      <trkpt lat="41.82725" lon="9.2129">
        <ele>1386.334</ele>
        <time>2015-07-06T05:15:23Z</time>
      </trkpt>
      <trkpt lat="41.82716" lon="9.21296">
        <ele>1388.239</ele>
        <time>2015-07-06T05:15:43Z</time>
      </trkpt>
      <trkpt lat="41.82709" lon="9.21299">
        <ele>1388.415</ele>
        <time>2015-07-06T05:15:56Z</time>
      </trkpt>
      <trkpt lat="41.82701" lon="9.21297">
        <ele>1388.864</ele>
        <time>2015-07-06T05:16:12Z</time>
      </trkpt>
      <trkpt lat="41.82701" lon="9.21293">
        <ele>1388.409</ele>
        <time>2015-07-06T05:16:25Z</time>
      </trkpt>
      <trkpt lat="41.82695" lon="9.21291">
        <ele>1387.661</ele>
        <time>2015-07-06T05:16:30Z</time>
      </trkpt>
      <trkpt lat="41.82686" lon="9.21291">
        <ele>1385.812</ele>
        <time>2015-07-06T05:16:41Z</time>
      </trkpt>
      <trkpt lat="41.82676" lon="9.21286">
        <ele>1385.94</ele>
        <time>2015-07-06T05:16:54Z</time>
      </trkpt>
      <trkpt lat="41.82672" lon="9.21281">
        <ele>1384.665</ele>
        <time>2015-07-06T05:17:05Z</time>
      </trkpt>
      <trkpt lat="41.82671" lon="9.21272">
        <ele>1384.119</ele>
        <time>2015-07-06T05:17:16Z</time>
      </trkpt>
      <trkpt lat="41.82666" lon="9.2126">
        <ele>1383.5</ele>
        <time>2015-07-06T05:17:28Z</time>
      </trkpt>
      <trkpt lat="41.82657" lon="9.21243">
        <ele>1382.643</ele>
        <time>2015-07-06T05:17:41Z</time>
      </trkpt>
      <trkpt lat="41.82655" lon="9.21241">
        <ele>1382.962</ele>
        <time>2015-07-06T05:17:43Z</time>
      </trkpt>
      <trkpt lat="41.82649" lon="9.21231">
        <ele>1382.977</ele>
        <time>2015-07-06T05:17:50Z</time>
      </trkpt>
      <trkpt lat="41.82639" lon="9.21212">
        <ele>1382.517</ele>
        <time>2015-07-06T05:18:05Z</time>
      </trkpt>
      <trkpt lat="41.82632" lon="9.21203">
        <ele>1382.415</ele>
        <time>2015-07-06T05:18:14Z</time>
      </trkpt>
      <trkpt lat="41.82621" lon="9.21193">
        <ele>1382.47</ele>
        <time>2015-07-06T05:18:27Z</time>
      </trkpt>
      <trkpt lat="41.82611" lon="9.21184">
        <ele>1382.074</ele>
        <time>2015-07-06T05:18:39Z</time>
      </trkpt>
      <trkpt lat="41.82604" lon="9.2118">
        <ele>1382.574</ele>
        <time>2015-07-06T05:18:49Z</time>
      </trkpt>
      <trkpt lat="41.82589" lon="9.21177">
        <ele>1382.625</ele>
        <time>2015-07-06T05:19:00Z</time>
      </trkpt>
      <trkpt lat="41.82575" lon="9.21173">
        <ele>1383.464</ele>
        <time>2015-07-06T05:19:14Z</time>
      </trkpt>
      <trkpt lat="41.82574" lon="9.21172">
        <ele>1383.05</ele>
        <time>2015-07-06T05:19:15Z</time>
      </trkpt>
      <trkpt lat="41.82564" lon="9.21177">
        <ele>1383.451</ele>
        <time>2015-07-06T05:19:25Z</time>
      </trkpt>
      <trkpt lat="41.82558" lon="9.21173">
        <ele>1383.643</ele>
        <time>2015-07-06T05:19:33Z</time>
      </trkpt>
      <trkpt lat="41.82553" lon="9.2117">
        <ele>1383.646</ele>
        <time>2015-07-06T05:19:38Z</time>
      </trkpt>
      <trkpt lat="41.82535" lon="9.2116">
        <ele>1383.507</ele>
        <time>2015-07-06T05:19:52Z</time>
      </trkpt>
      <trkpt lat="41.82522" lon="9.21151">
        <ele>1383.228</ele>
        <time>2015-07-06T05:20:07Z</time>
      </trkpt>
      <trkpt lat="41.82512" lon="9.21141">
        <ele>1382.428</ele>
        <time>2015-07-06T05:20:21Z</time>
      </trkpt>
      <trkpt lat="41.82497" lon="9.21133">
        <ele>1381.427</ele>
        <time>2015-07-06T05:20:34Z</time>
      </trkpt>
      <trkpt lat="41.82487" lon="9.2113">
        <ele>1380.71</ele>
        <time>2015-07-06T05:20:47Z</time>
      </trkpt>
      <trkpt lat="41.82463" lon="9.21122">
        <ele>1380.026</ele>
        <time>2015-07-06T05:21:03Z</time>
      </trkpt>
      <trkpt lat="41.82451" lon="9.21118">
        <ele>1379.945</ele>
        <time>2015-07-06T05:21:14Z</time>
      </trkpt>
      <trkpt lat="41.82435" lon="9.21112">
        <ele>1380.512</ele>
        <time>2015-07-06T05:21:29Z</time>
      </trkpt>
      <trkpt lat="41.82428" lon="9.21109">
        <ele>1380.648</ele>
        <time>2015-07-06T05:21:43Z</time>
      </trkpt>
      <trkpt lat="41.82427" lon="9.21115">
        <ele>1380.694</ele>
        <time>2015-07-06T05:22:15Z</time>
      </trkpt>
      <trkpt lat="41.82422" lon="9.21111">
        <ele>1379.903</ele>
        <time>2015-07-06T05:22:43Z</time>
      </trkpt>
      <trkpt lat="41.82415" lon="9.21107">
        <ele>1379.462</ele>
        <time>2015-07-06T05:22:54Z</time>
      </trkpt>
      <trkpt lat="41.82405" lon="9.21103">
        <ele>1378.975</ele>
        <time>2015-07-06T05:23:07Z</time>
      </trkpt>
      <trkpt lat="41.82391" lon="9.21096">
        <ele>1377.68</ele>
        <time>2015-07-06T05:23:19Z</time>
      </trkpt>
      <trkpt lat="41.82373" lon="9.21092">
        <ele>1376.238</ele>
        <time>2015-07-06T05:23:35Z</time>
      </trkpt>
      <trkpt lat="41.82369" lon="9.21091">
        <ele>1376.057</ele>
        <time>2015-07-06T05:23:50Z</time>
      </trkpt>
      <trkpt lat="41.82361" lon="9.21092">
        <ele>1376.141</ele>
        <time>2015-07-06T05:24:01Z</time>
      </trkpt>
      <trkpt lat="41.8235" lon="9.21092">
        <ele>1375.397</ele>
        <time>2015-07-06T05:24:13Z</time>
      </trkpt>
      <trkpt lat="41.82344" lon="9.21093">
        <ele>1376.234</ele>
        <time>2015-07-06T05:24:18Z</time>
      </trkpt>
      <trkpt lat="41.82327" lon="9.211">
        <ele>1375.564</ele>
        <time>2015-07-06T05:24:32Z</time>
      </trkpt>
      <trkpt lat="41.8232" lon="9.21098">
        <ele>1375.498</ele>
        <time>2015-07-06T05:24:37Z</time>
      </trkpt>
      <trkpt lat="41.82309" lon="9.21106">
        <ele>1374.557</ele>
        <time>2015-07-06T05:24:50Z</time>
      </trkpt>
      <trkpt lat="41.82303" lon="9.21104">
        <ele>1373.263</ele>
        <time>2015-07-06T05:25:02Z</time>
      </trkpt>
      <trkpt lat="41.82301" lon="9.211">
        <ele>1374.317</ele>
        <time>2015-07-06T05:25:12Z</time>
      </trkpt>
      <trkpt lat="41.82296" lon="9.21096">
        <ele>1376.885</ele>
        <time>2015-07-06T05:25:23Z</time>
      </trkpt>
      <trkpt lat="41.82288" lon="9.21088">
        <ele>1376.823</ele>
        <time>2015-07-06T05:25:33Z</time>
      </trkpt>
      <trkpt lat="41.82286" lon="9.21083">
        <ele>1377.602</ele>
        <time>2015-07-06T05:25:38Z</time>
      </trkpt>
      <trkpt lat="41.8228" lon="9.21077">
        <ele>1377.19</ele>
        <time>2015-07-06T05:25:43Z</time>
      </trkpt>
      <trkpt lat="41.82269" lon="9.21062">
        <ele>1375.991</ele>
        <time>2015-07-06T05:25:57Z</time>
      </trkpt>
      <trkpt lat="41.82253" lon="9.21044">
        <ele>1374.484</ele>
        <time>2015-07-06T05:26:14Z</time>
      </trkpt>
      <trkpt lat="41.82244" lon="9.21038">
        <ele>1373.103</ele>
        <time>2015-07-06T05:26:23Z</time>
      </trkpt>
      <trkpt lat="41.82236" lon="9.21028">
        <ele>1372.911</ele>
        <time>2015-07-06T05:26:33Z</time>
      </trkpt>
      <trkpt lat="41.82219" lon="9.21016">
        <ele>1371.213</ele>
        <time>2015-07-06T05:26:50Z</time>
      </trkpt>
      <trkpt lat="41.82217" lon="9.21014">
        <ele>1371.311</ele>
        <time>2015-07-06T05:26:53Z</time>
      </trkpt>
      <trkpt lat="41.82213" lon="9.21011">
        <ele>1370.819</ele>
        <time>2015-07-06T05:26:58Z</time>
      </trkpt>
      <trkpt lat="41.82203" lon="9.21001">
        <ele>1370.15</ele>
        <time>2015-07-06T05:27:13Z</time>
      </trkpt>
      <trkpt lat="41.82195" lon="9.20993">
        <ele>1367.582</ele>
        <time>2015-07-06T05:27:27Z</time>
      </trkpt>
      <trkpt lat="41.82191" lon="9.20985">
        <ele>1364.206</ele>
        <time>2015-07-06T05:27:37Z</time>
      </trkpt>
      <trkpt lat="41.82188" lon="9.20982">
        <ele>1363.383</ele>
        <time>2015-07-06T05:27:43Z</time>
      </trkpt>
      <trkpt lat="41.82176" lon="9.20978">
        <ele>1363.016</ele>
        <time>2015-07-06T05:27:54Z</time>
      </trkpt>
      <trkpt lat="41.82175" lon="9.20978">
        <ele>1363.091</ele>
        <time>2015-07-06T05:27:55Z</time>
      </trkpt>
      <trkpt lat="41.82163" lon="9.20972">
        <ele>1361.408</ele>
        <time>2015-07-06T05:28:11Z</time>
      </trkpt>
      <trkpt lat="41.82149" lon="9.20974">
        <ele>1359.483</ele>
        <time>2015-07-06T05:28:24Z</time>
      </trkpt>
      <trkpt lat="41.82145" lon="9.20975">
        <ele>1358.938</ele>
        <time>2015-07-06T05:28:28Z</time>
      </trkpt>
      <trkpt lat="41.82134" lon="9.20975">
        <ele>1358.738</ele>
        <time>2015-07-06T05:28:38Z</time>
      </trkpt>
      <trkpt lat="41.82131" lon="9.20973">
        <ele>1358.397</ele>
        <time>2015-07-06T05:28:41Z</time>
      </trkpt>
      <trkpt lat="41.82117" lon="9.2097">
        <ele>1357.595</ele>
        <time>2015-07-06T05:28:54Z</time>
      </trkpt>
      <trkpt lat="41.82115" lon="9.2097">
        <ele>1357.304</ele>
        <time>2015-07-06T05:28:56Z</time>
      </trkpt>
      <trkpt lat="41.82107" lon="9.20974">
        <ele>1356.09</ele>
        <time>2015-07-06T05:29:12Z</time>
      </trkpt>
      <trkpt lat="41.82106" lon="9.20974">
        <ele>1356.113</ele>
        <time>2015-07-06T05:29:13Z</time>
      </trkpt>
      <trkpt lat="41.82099" lon="9.20975">
        <ele>1356.686</ele>
        <time>2015-07-06T05:29:26Z</time>
      </trkpt>
      <trkpt lat="41.82092" lon="9.20972">
        <ele>1356.774</ele>
        <time>2015-07-06T05:29:40Z</time>
      </trkpt>
      <trkpt lat="41.82085" lon="9.2097">
        <ele>1356.468</ele>
        <time>2015-07-06T05:29:51Z</time>
      </trkpt>
      <trkpt lat="41.8208" lon="9.20968">
        <ele>1356.206</ele>
        <time>2015-07-06T05:29:55Z</time>
      </trkpt>
      <trkpt lat="41.82066" lon="9.20961">
        <ele>1355.359</ele>
        <time>2015-07-06T05:30:06Z</time>
      </trkpt>
      <trkpt lat="41.82058" lon="9.20956">
        <ele>1355.552</ele>
        <time>2015-07-06T05:30:12Z</time>
      </trkpt>
      <trkpt lat="41.82041" lon="9.20944">
        <ele>1355.605</ele>
        <time>2015-07-06T05:30:29Z</time>
      </trkpt>
      <trkpt lat="41.82038" lon="9.20943">
        <ele>1355.652</ele>
        <time>2015-07-06T05:30:44Z</time>
      </trkpt>
      <trkpt lat="41.82026" lon="9.20948">
        <ele>1356.024</ele>
        <time>2015-07-06T05:30:56Z</time>
      </trkpt>
      <trkpt lat="41.82018" lon="9.20946">
        <ele>1354.813</ele>
        <time>2015-07-06T05:31:04Z</time>
      </trkpt>
      <trkpt lat="41.82014" lon="9.20947">
        <ele>1354.627</ele>
        <time>2015-07-06T05:31:10Z</time>
      </trkpt>
      <trkpt lat="41.8201" lon="9.20946">
        <ele>1353.735</ele>
        <time>2015-07-06T05:31:14Z</time>
      </trkpt>
      <trkpt lat="41.81999" lon="9.20947">
        <ele>1352.135</ele>
        <time>2015-07-06T05:31:28Z</time>
      </trkpt>
      <trkpt lat="41.81989" lon="9.20948">
        <ele>1350.403</ele>
        <time>2015-07-06T05:31:41Z</time>
      </trkpt>
      <trkpt lat="41.81986" lon="9.2095">
        <ele>1348.851</ele>
        <time>2015-07-06T05:31:55Z</time>
      </trkpt>
      <trkpt lat="41.81979" lon="9.20949">
        <ele>1347.36</ele>
        <time>2015-07-06T05:32:04Z</time>
      </trkpt>
      <trkpt lat="41.81973" lon="9.20951">
        <ele>1347.022</ele>
        <time>2015-07-06T05:32:10Z</time>
      </trkpt>
      <trkpt lat="41.81959" lon="9.2095">
        <ele>1344.64</ele>
        <time>2015-07-06T05:32:24Z</time>
      </trkpt>
      <trkpt lat="41.81942" lon="9.20954">
        <ele>1342.714</ele>
        <time>2015-07-06T05:32:41Z</time>
      </trkpt>
      <trkpt lat="41.81922" lon="9.20951">
        <ele>1342.246</ele>
        <time>2015-07-06T05:32:59Z</time>
      </trkpt>
      <trkpt lat="41.8192" lon="9.20951">
        <ele>1341.78</ele>
        <time>2015-07-06T05:33:01Z</time>
      </trkpt>
      <trkpt lat="41.81918" lon="9.20953">
        <ele>1341.237</ele>
        <time>2015-07-06T05:33:04Z</time>
      </trkpt>
      <trkpt lat="41.81916" lon="9.20957">
        <ele>1341.103</ele>
        <time>2015-07-06T05:33:08Z</time>
      </trkpt>
      <trkpt lat="41.81906" lon="9.20963">
        <ele>1340.013</ele>
        <time>2015-07-06T05:33:21Z</time>
      </trkpt>
      <trkpt lat="41.81901" lon="9.20965">
        <ele>1340.73</ele>
        <time>2015-07-06T05:33:34Z</time>
      </trkpt>
      <trkpt lat="41.819" lon="9.20964">
        <ele>1340.516</ele>
        <time>2015-07-06T05:33:46Z</time>
      </trkpt>
      <trkpt lat="41.81898" lon="9.20961">
        <ele>1338.82</ele>
        <time>2015-07-06T05:33:57Z</time>
      </trkpt>
      <trkpt lat="41.81891" lon="9.20955">
        <ele>1340.105</ele>
        <time>2015-07-06T05:34:09Z</time>
      </trkpt>
      <trkpt lat="41.81883" lon="9.20941">
        <ele>1338.707</ele>
        <time>2015-07-06T05:34:24Z</time>
      </trkpt>
      <trkpt lat="41.81878" lon="9.20932">
        <ele>1337.821</ele>
        <time>2015-07-06T05:34:36Z</time>
      </trkpt>
      <trkpt lat="41.81872" lon="9.20923">
        <ele>1337.692</ele>
        <time>2015-07-06T05:34:47Z</time>
      </trkpt>
      <trkpt lat="41.81862" lon="9.20914">
        <ele>1337.364</ele>
        <time>2015-07-06T05:35:00Z</time>
      </trkpt>
      <trkpt lat="41.81858" lon="9.20904">
        <ele>1335.741</ele>
        <time>2015-07-06T05:35:12Z</time>
      </trkpt>
      <trkpt lat="41.81857" lon="9.20896">
        <ele>1332.715</ele>
        <time>2015-07-06T05:35:24Z</time>
      </trkpt>
      <trkpt lat="41.81856" lon="9.20894">
        <ele>1333.019</ele>
        <time>2015-07-06T05:35:25Z</time>
      </trkpt>
      <trkpt lat="41.81846" lon="9.20889">
        <ele>1332.965</ele>
        <time>2015-07-06T05:35:32Z</time>
      </trkpt>
      <trkpt lat="41.81835" lon="9.20882">
        <ele>1333.072</ele>
        <time>2015-07-06T05:35:48Z</time>
      </trkpt>
      <trkpt lat="41.81832" lon="9.2088">
        <ele>1334.229</ele>
        <time>2015-07-06T05:36:03Z</time>
      </trkpt>
      <trkpt lat="41.81826" lon="9.20879">
        <ele>1332.124</ele>
        <time>2015-07-06T05:36:13Z</time>
      </trkpt>
      <trkpt lat="41.8182" lon="9.20874">
        <ele>1330.844</ele>
        <time>2015-07-06T05:36:26Z</time>
      </trkpt>
      <trkpt lat="41.81816" lon="9.20871">
        <ele>1329.525</ele>
        <time>2015-07-06T05:36:38Z</time>
      </trkpt>
      <trkpt lat="41.81813" lon="9.20868">
        <ele>1329.104</ele>
        <time>2015-07-06T05:36:50Z</time>
      </trkpt>
      <trkpt lat="41.81809" lon="9.20864">
        <ele>1326.809</ele>
        <time>2015-07-06T05:37:03Z</time>
      </trkpt>
      <trkpt lat="41.81809" lon="9.20862">
        <ele>1325.569</ele>
        <time>2015-07-06T05:37:18Z</time>
      </trkpt>
      <trkpt lat="41.81811" lon="9.20857">
        <ele>1323.792</ele>
        <time>2015-07-06T05:37:31Z</time>
      </trkpt>
      <trkpt lat="41.81811" lon="9.2085">
        <ele>1321.762</ele>
        <time>2015-07-06T05:37:44Z</time>
      </trkpt>
      <trkpt lat="41.81811" lon="9.20847">
        <ele>1321.553</ele>
        <time>2015-07-06T05:37:47Z</time>
      </trkpt>
      <trkpt lat="41.81812" lon="9.20835">
        <ele>1323.313</ele>
        <time>2015-07-06T05:38:01Z</time>
      </trkpt>
      <trkpt lat="41.81813" lon="9.20822">
        <ele>1324.361</ele>
        <time>2015-07-06T05:38:15Z</time>
      </trkpt>
      <trkpt lat="41.81801" lon="9.2081">
        <ele>1324.881</ele>
        <time>2015-07-06T05:38:31Z</time>
      </trkpt>
      <trkpt lat="41.81797" lon="9.20805">
        <ele>1325.056</ele>
        <time>2015-07-06T05:39:05Z</time>
      </trkpt>
      <trkpt lat="41.81798" lon="9.20803">
        <ele>1325.291</ele>
        <time>2015-07-06T05:40:03Z</time>
      </trkpt>
      <trkpt lat="41.818" lon="9.208">
        <ele>1324.798</ele>
        <time>2015-07-06T05:40:42Z</time>
      </trkpt>
      <trkpt lat="41.818" lon="9.20804">
        <ele>1325.026</ele>
        <time>2015-07-06T05:41:19Z</time>
      </trkpt>
      <trkpt lat="41.81799" lon="9.20804">
        <ele>1325.023</ele>
        <time>2015-07-06T05:41:43Z</time>
      </trkpt>
      <trkpt lat="41.81803" lon="9.20807">
        <ele>1324.616</ele>
        <time>2015-07-06T05:42:27Z</time>
      </trkpt>
      <trkpt lat="41.81799" lon="9.20805">
        <ele>1324.536</ele>
        <time>2015-07-06T05:42:45Z</time>
      </trkpt>
      <trkpt lat="41.81793" lon="9.20795">
        <ele>1324.054</ele>
        <time>2015-07-06T05:43:00Z</time>
      </trkpt>
      <trkpt lat="41.8179" lon="9.20782">
        <ele>1323.28</ele>
        <time>2015-07-06T05:43:12Z</time>
      </trkpt>
      <trkpt lat="41.81788" lon="9.2078">
        <ele>1322.963</ele>
        <time>2015-07-06T05:43:14Z</time>
      </trkpt>
      <trkpt lat="41.81768" lon="9.20762">
        <ele>1322.542</ele>
        <time>2015-07-06T05:43:30Z</time>
      </trkpt>
      <trkpt lat="41.81749" lon="9.20745">
        <ele>1322.673</ele>
        <time>2015-07-06T05:43:48Z</time>
      </trkpt>
      <trkpt lat="41.81744" lon="9.20738">
        <ele>1319.873</ele>
        <time>2015-07-06T05:44:00Z</time>
      </trkpt>
      <trkpt lat="41.81743" lon="9.20732">
        <ele>1319.003</ele>
        <time>2015-07-06T05:44:04Z</time>
      </trkpt>
      <trkpt lat="41.81742" lon="9.2073">
        <ele>1319.39</ele>
        <time>2015-07-06T05:44:06Z</time>
      </trkpt>
      <trkpt lat="41.81738" lon="9.20724">
        <ele>1316.882</ele>
        <time>2015-07-06T05:44:14Z</time>
      </trkpt>
      <trkpt lat="41.8173" lon="9.20717">
        <ele>1315.114</ele>
        <time>2015-07-06T05:44:28Z</time>
      </trkpt>
      <trkpt lat="41.81722" lon="9.20713">
        <ele>1312.652</ele>
        <time>2015-07-06T05:44:41Z</time>
      </trkpt>
      <trkpt lat="41.81714" lon="9.20712">
        <ele>1310.33</ele>
        <time>2015-07-06T05:44:54Z</time>
      </trkpt>
      <trkpt lat="41.81701" lon="9.2071">
        <ele>1308.686</ele>
        <time>2015-07-06T05:45:05Z</time>
      </trkpt>
      <trkpt lat="41.81692" lon="9.20707">
        <ele>1307.338</ele>
        <time>2015-07-06T05:45:17Z</time>
      </trkpt>
      <trkpt lat="41.81687" lon="9.20701">
        <ele>1303.83</ele>
        <time>2015-07-06T05:45:28Z</time>
      </trkpt>
      <trkpt lat="41.81679" lon="9.20691">
        <ele>1302.715</ele>
        <time>2015-07-06T05:45:42Z</time>
      </trkpt>
      <trkpt lat="41.81671" lon="9.20684">
        <ele>1299.514</ele>
        <time>2015-07-06T05:45:51Z</time>
      </trkpt>
      <trkpt lat="41.81664" lon="9.20678">
        <ele>1299.164</ele>
        <time>2015-07-06T05:46:02Z</time>
      </trkpt>
      <trkpt lat="41.81657" lon="9.20673">
        <ele>1297.213</ele>
        <time>2015-07-06T05:46:10Z</time>
      </trkpt>
      <trkpt lat="41.81652" lon="9.20674">
        <ele>1297.356</ele>
        <time>2015-07-06T05:46:16Z</time>
      </trkpt>
      <trkpt lat="41.81644" lon="9.20679">
        <ele>1296.085</ele>
        <time>2015-07-06T05:46:24Z</time>
      </trkpt>
      <trkpt lat="41.81635" lon="9.20682">
        <ele>1293.092</ele>
        <time>2015-07-06T05:46:40Z</time>
      </trkpt>
      <trkpt lat="41.81628" lon="9.20682">
        <ele>1292.074</ele>
        <time>2015-07-06T05:46:52Z</time>
      </trkpt>
      <trkpt lat="41.81623" lon="9.20678">
        <ele>1289.745</ele>
        <time>2015-07-06T05:47:05Z</time>
      </trkpt>
      <trkpt lat="41.81615" lon="9.20677">
        <ele>1287.274</ele>
        <time>2015-07-06T05:47:21Z</time>
      </trkpt>
      <trkpt lat="41.81607" lon="9.20673">
        <ele>1287.883</ele>
        <time>2015-07-06T05:47:36Z</time>
      </trkpt>
      <trkpt lat="41.81605" lon="9.20663">
        <ele>1290.222</ele>
        <time>2015-07-06T05:47:49Z</time>
      </trkpt>
      <trkpt lat="41.81593" lon="9.20656">
        <ele>1291.806</ele>
        <time>2015-07-06T05:48:05Z</time>
      </trkpt>
      <trkpt lat="41.81585" lon="9.20656">
        <ele>1293.223</ele>
        <time>2015-07-06T05:48:19Z</time>
      </trkpt>
      <trkpt lat="41.81576" lon="9.20655">
        <ele>1294.684</ele>
        <time>2015-07-06T05:48:34Z</time>
      </trkpt>
      <trkpt lat="41.81572" lon="9.20651">
        <ele>1294.005</ele>
        <time>2015-07-06T05:48:46Z</time>
      </trkpt>
      <trkpt lat="41.81559" lon="9.2065">
        <ele>1293.592</ele>
        <time>2015-07-06T05:48:58Z</time>
      </trkpt>
      <trkpt lat="41.81548" lon="9.20654">
        <ele>1293.961</ele>
        <time>2015-07-06T05:49:09Z</time>
      </trkpt>
      <trkpt lat="41.81542" lon="9.20659">
        <ele>1293.012</ele>
        <time>2015-07-06T05:49:21Z</time>
      </trkpt>
      <trkpt lat="41.81537" lon="9.20658">
        <ele>1293.459</ele>
        <time>2015-07-06T05:49:31Z</time>
      </trkpt>
      <trkpt lat="41.8153" lon="9.20648">
        <ele>1292.768</ele>
        <time>2015-07-06T05:49:43Z</time>
      </trkpt>
      <trkpt lat="41.81526" lon="9.20636">
        <ele>1293.484</ele>
        <time>2015-07-06T05:49:55Z</time>
      </trkpt>
      <trkpt lat="41.8152" lon="9.20626">
        <ele>1295.292</ele>
        <time>2015-07-06T05:50:09Z</time>
      </trkpt>
      <trkpt lat="41.81512" lon="9.20614">
        <ele>1297.39</ele>
        <time>2015-07-06T05:50:21Z</time>
      </trkpt>
      <trkpt lat="41.81509" lon="9.20602">
        <ele>1298.093</ele>
        <time>2015-07-06T05:50:33Z</time>
      </trkpt>
      <trkpt lat="41.81504" lon="9.2059">
        <ele>1300.732</ele>
        <time>2015-07-06T05:50:49Z</time>
      </trkpt>
      <trkpt lat="41.81496" lon="9.20579">
        <ele>1301.01</ele>
        <time>2015-07-06T05:51:02Z</time>
      </trkpt>
      <trkpt lat="41.8149" lon="9.20575">
        <ele>1300.403</ele>
        <time>2015-07-06T05:51:08Z</time>
      </trkpt>
      <trkpt lat="41.81467" lon="9.20568">
        <ele>1298.033</ele>
        <time>2015-07-06T05:51:24Z</time>
      </trkpt>
      <trkpt lat="41.81464" lon="9.20567">
        <ele>1298.353</ele>
        <time>2015-07-06T05:51:27Z</time>
      </trkpt>
      <trkpt lat="41.81444" lon="9.20562">
        <ele>1296.638</ele>
        <time>2015-07-06T05:51:45Z</time>
      </trkpt>
      <trkpt lat="41.8143" lon="9.20556">
        <ele>1294.784</ele>
        <time>2015-07-06T05:51:57Z</time>
      </trkpt>
      <trkpt lat="41.81422" lon="9.20552">
        <ele>1293.247</ele>
        <time>2015-07-06T05:52:08Z</time>
      </trkpt>
      <trkpt lat="41.81415" lon="9.20547">
        <ele>1292.522</ele>
        <time>2015-07-06T05:52:22Z</time>
      </trkpt>
      <trkpt lat="41.81409" lon="9.20545">
        <ele>1291.842</ele>
        <time>2015-07-06T05:52:52Z</time>
      </trkpt>
      <trkpt lat="41.81405" lon="9.20541">
        <ele>1290.61</ele>
        <time>2015-07-06T05:53:08Z</time>
      </trkpt>
      <trkpt lat="41.81399" lon="9.20542">
        <ele>1287.102</ele>
        <time>2015-07-06T05:53:18Z</time>
      </trkpt>
      <trkpt lat="41.81398" lon="9.20541">
        <ele>1286.746</ele>
        <time>2015-07-06T05:53:19Z</time>
      </trkpt>
      <trkpt lat="41.81383" lon="9.20548">
        <ele>1284.878</ele>
        <time>2015-07-06T05:53:34Z</time>
      </trkpt>
      <trkpt lat="41.81368" lon="9.20548">
        <ele>1283.222</ele>
        <time>2015-07-06T05:53:47Z</time>
      </trkpt>
      <trkpt lat="41.81351" lon="9.20549">
        <ele>1282.47</ele>
        <time>2015-07-06T05:54:04Z</time>
      </trkpt>
      <trkpt lat="41.8135" lon="9.20553">
        <ele>1281.987</ele>
        <time>2015-07-06T05:54:09Z</time>
      </trkpt>
      <trkpt lat="41.81344" lon="9.20561">
        <ele>1280.223</ele>
        <time>2015-07-06T05:54:17Z</time>
      </trkpt>
      <trkpt lat="41.81342" lon="9.20569">
        <ele>1281.591</ele>
        <time>2015-07-06T05:54:24Z</time>
      </trkpt>
      <trkpt lat="41.81332" lon="9.2057">
        <ele>1281.756</ele>
        <time>2015-07-06T05:54:40Z</time>
      </trkpt>
      <trkpt lat="41.81327" lon="9.20574">
        <ele>1281.486</ele>
        <time>2015-07-06T05:54:54Z</time>
      </trkpt>
      <trkpt lat="41.81326" lon="9.20574">
        <ele>1280.425</ele>
        <time>2015-07-06T05:54:56Z</time>
      </trkpt>
      <trkpt lat="41.81316" lon="9.2058">
        <ele>1280.676</ele>
        <time>2015-07-06T05:55:10Z</time>
      </trkpt>
      <trkpt lat="41.81315" lon="9.2058">
        <ele>1280.412</ele>
        <time>2015-07-06T05:55:12Z</time>
      </trkpt>
      <trkpt lat="41.81302" lon="9.20582">
        <ele>1281.991</ele>
        <time>2015-07-06T05:55:29Z</time>
      </trkpt>
      <trkpt lat="41.81295" lon="9.20586">
        <ele>1283.679</ele>
        <time>2015-07-06T05:55:39Z</time>
      </trkpt>
      <trkpt lat="41.81284" lon="9.20591">
        <ele>1284.566</ele>
        <time>2015-07-06T05:55:53Z</time>
      </trkpt>
      <trkpt lat="41.81276" lon="9.20595">
        <ele>1285.263</ele>
        <time>2015-07-06T05:56:07Z</time>
      </trkpt>
      <trkpt lat="41.81274" lon="9.20602">
        <ele>1284.953</ele>
        <time>2015-07-06T05:56:21Z</time>
      </trkpt>
      <trkpt lat="41.81273" lon="9.20601">
        <ele>1284.055</ele>
        <time>2015-07-06T05:56:35Z</time>
      </trkpt>
      <trkpt lat="41.81271" lon="9.20605">
        <ele>1284.234</ele>
        <time>2015-07-06T05:56:53Z</time>
      </trkpt>
      <trkpt lat="41.8127" lon="9.20607">
        <ele>1283.036</ele>
        <time>2015-07-06T05:57:08Z</time>
      </trkpt>
      <trkpt lat="41.8127" lon="9.20607">
        <ele>1282.327</ele>
        <time>2015-07-06T05:57:20Z</time>
      </trkpt>
      <trkpt lat="41.81269" lon="9.20606">
        <ele>1280.787</ele>
        <time>2015-07-06T05:57:33Z</time>
      </trkpt>
      <trkpt lat="41.81265" lon="9.20602">
        <ele>1281.179</ele>
        <time>2015-07-06T05:57:46Z</time>
      </trkpt>
      <trkpt lat="41.81264" lon="9.20598">
        <ele>1281.771</ele>
        <time>2015-07-06T05:57:58Z</time>
      </trkpt>
      <trkpt lat="41.81255" lon="9.20593">
        <ele>1283.651</ele>
        <time>2015-07-06T05:58:12Z</time>
      </trkpt>
      <trkpt lat="41.81247" lon="9.20586">
        <ele>1284.763</ele>
        <time>2015-07-06T05:58:27Z</time>
      </trkpt>
      <trkpt lat="41.81234" lon="9.20576">
        <ele>1286.301</ele>
        <time>2015-07-06T05:58:42Z</time>
      </trkpt>
      <trkpt lat="41.81228" lon="9.20573">
        <ele>1288.839</ele>
        <time>2015-07-06T05:58:53Z</time>
      </trkpt>
      <trkpt lat="41.81224" lon="9.20573">
        <ele>1288.997</ele>
        <time>2015-07-06T05:59:05Z</time>
      </trkpt>
      <trkpt lat="41.81226" lon="9.20571">
        <ele>1288.511</ele>
        <time>2015-07-06T05:59:24Z</time>
      </trkpt>
      <trkpt lat="41.81225" lon="9.20557">
        <ele>1289.59</ele>
        <time>2015-07-06T05:59:38Z</time>
      </trkpt>
      <trkpt lat="41.81226" lon="9.20551">
        <ele>1290.896</ele>
        <time>2015-07-06T05:59:55Z</time>
      </trkpt>
      <trkpt lat="41.81217" lon="9.20549">
        <ele>1292.187</ele>
        <time>2015-07-06T06:00:11Z</time>
      </trkpt>
      <trkpt lat="41.81219" lon="9.20548">
        <ele>1293.532</ele>
        <time>2015-07-06T06:00:24Z</time>
      </trkpt>
      <trkpt lat="41.81229" lon="9.20543">
        <ele>1295.685</ele>
        <time>2015-07-06T06:00:37Z</time>
      </trkpt>
      <trkpt lat="41.81239" lon="9.20531">
        <ele>1293.956</ele>
        <time>2015-07-06T06:00:50Z</time>
      </trkpt>
      <trkpt lat="41.81246" lon="9.20522">
        <ele>1292.716</ele>
        <time>2015-07-06T06:01:02Z</time>
      </trkpt>
      <trkpt lat="41.81246" lon="9.20517">
        <ele>1291.785</ele>
        <time>2015-07-06T06:01:09Z</time>
      </trkpt>
      <trkpt lat="41.81251" lon="9.20498">
        <ele>1292.102</ele>
        <time>2015-07-06T06:01:23Z</time>
      </trkpt>
      <trkpt lat="41.8125" lon="9.20481">
        <ele>1292.203</ele>
        <time>2015-07-06T06:01:39Z</time>
      </trkpt>
      <trkpt lat="41.81247" lon="9.20468">
        <ele>1291.47</ele>
        <time>2015-07-06T06:01:51Z</time>
      </trkpt>
      <trkpt lat="41.81242" lon="9.20452">
        <ele>1290.417</ele>
        <time>2015-07-06T06:02:05Z</time>
      </trkpt>
      <trkpt lat="41.81237" lon="9.20439">
        <ele>1288.3</ele>
        <time>2015-07-06T06:02:18Z</time>
      </trkpt>
      <trkpt lat="41.8123" lon="9.2043">
        <ele>1288.12</ele>
        <time>2015-07-06T06:02:27Z</time>
      </trkpt>
      <trkpt lat="41.81225" lon="9.20413">
        <ele>1290.258</ele>
        <time>2015-07-06T06:02:41Z</time>
      </trkpt>
      <trkpt lat="41.81218" lon="9.20403">
        <ele>1290.188</ele>
        <time>2015-07-06T06:02:54Z</time>
      </trkpt>
      <trkpt lat="41.81211" lon="9.20392">
        <ele>1289.74</ele>
        <time>2015-07-06T06:03:06Z</time>
      </trkpt>
      <trkpt lat="41.81203" lon="9.20386">
        <ele>1289.401</ele>
        <time>2015-07-06T06:03:15Z</time>
      </trkpt>
      <trkpt lat="41.81195" lon="9.20379">
        <ele>1288.187</ele>
        <time>2015-07-06T06:03:24Z</time>
      </trkpt>
      <trkpt lat="41.81189" lon="9.2037">
        <ele>1288.552</ele>
        <time>2015-07-06T06:03:35Z</time>
      </trkpt>
      <trkpt lat="41.81182" lon="9.20364">
        <ele>1287.41</ele>
        <time>2015-07-06T06:03:47Z</time>
      </trkpt>
      <trkpt lat="41.81173" lon="9.20352">
        <ele>1286.035</ele>
        <time>2015-07-06T06:04:03Z</time>
      </trkpt>
      <trkpt lat="41.81164" lon="9.2034">
        <ele>1285.028</ele>
        <time>2015-07-06T06:04:17Z</time>
      </trkpt>
      <trkpt lat="41.81155" lon="9.20334">
        <ele>1283.63</ele>
        <time>2015-07-06T06:04:28Z</time>
      </trkpt>
      <trkpt lat="41.81151" lon="9.20327">
        <ele>1281.08</ele>
        <time>2015-07-06T06:04:40Z</time>
      </trkpt>
      <trkpt lat="41.81153" lon="9.20311">
        <ele>1279.296</ele>
        <time>2015-07-06T06:04:54Z</time>
      </trkpt>
      <trkpt lat="41.81149" lon="9.20305">
        <ele>1278.572</ele>
        <time>2015-07-06T06:05:00Z</time>
      </trkpt>
      <trkpt lat="41.81146" lon="9.20291">
        <ele>1277.798</ele>
        <time>2015-07-06T06:05:11Z</time>
      </trkpt>
      <trkpt lat="41.81137" lon="9.20278">
        <ele>1276.61</ele>
        <time>2015-07-06T06:05:25Z</time>
      </trkpt>
      <trkpt lat="41.8113" lon="9.20265">
        <ele>1274.458</ele>
        <time>2015-07-06T06:05:38Z</time>
      </trkpt>
      <trkpt lat="41.81122" lon="9.20255">
        <ele>1272.447</ele>
        <time>2015-07-06T06:05:50Z</time>
      </trkpt>
      <trkpt lat="41.81122" lon="9.2025">
        <ele>1272.134</ele>
        <time>2015-07-06T06:05:53Z</time>
      </trkpt>
      <trkpt lat="41.81113" lon="9.20241">
        <ele>1271.033</ele>
        <time>2015-07-06T06:06:05Z</time>
      </trkpt>
      <trkpt lat="41.81103" lon="9.20228">
        <ele>1271.896</ele>
        <time>2015-07-06T06:06:18Z</time>
      </trkpt>
      <trkpt lat="41.81092" lon="9.20219">
        <ele>1271.828</ele>
        <time>2015-07-06T06:06:32Z</time>
      </trkpt>
      <trkpt lat="41.81091" lon="9.20205">
        <ele>1269.996</ele>
        <time>2015-07-06T06:06:45Z</time>
      </trkpt>
      <trkpt lat="41.81081" lon="9.20195">
        <ele>1268.649</ele>
        <time>2015-07-06T06:06:55Z</time>
      </trkpt>
      <trkpt lat="41.81079" lon="9.20188">
        <ele>1268.307</ele>
        <time>2015-07-06T06:07:00Z</time>
      </trkpt>
      <trkpt lat="41.81076" lon="9.20169">
        <ele>1266.315</ele>
        <time>2015-07-06T06:07:13Z</time>
      </trkpt>
      <trkpt lat="41.81064" lon="9.20153">
        <ele>1265.997</ele>
        <time>2015-07-06T06:07:28Z</time>
      </trkpt>
      <trkpt lat="41.8106" lon="9.2015">
        <ele>1266.225</ele>
        <time>2015-07-06T06:07:46Z</time>
      </trkpt>
      <trkpt lat="41.81055" lon="9.20155">
        <ele>1266.043</ele>
        <time>2015-07-06T06:08:05Z</time>
      </trkpt>
      <trkpt lat="41.81046" lon="9.20151">
        <ele>1264.658</ele>
        <time>2015-07-06T06:08:17Z</time>
      </trkpt>
      <trkpt lat="41.81034" lon="9.20146">
        <ele>1262.758</ele>
        <time>2015-07-06T06:08:30Z</time>
      </trkpt>
      <trkpt lat="41.8103" lon="9.20143">
        <ele>1264.747</ele>
        <time>2015-07-06T06:08:46Z</time>
      </trkpt>
      <trkpt lat="41.81025" lon="9.2013">
        <ele>1264.835</ele>
        <time>2015-07-06T06:08:59Z</time>
      </trkpt>
      <trkpt lat="41.81018" lon="9.20121">
        <ele>1265.154</ele>
        <time>2015-07-06T06:09:09Z</time>
      </trkpt>
      <trkpt lat="41.81008" lon="9.20116">
        <ele>1266.066</ele>
        <time>2015-07-06T06:09:20Z</time>
      </trkpt>
      <trkpt lat="41.80991" lon="9.20111">
        <ele>1265.052</ele>
        <time>2015-07-06T06:09:32Z</time>
      </trkpt>
      <trkpt lat="41.80981" lon="9.20101">
        <ele>1263.261</ele>
        <time>2015-07-06T06:09:49Z</time>
      </trkpt>
      <trkpt lat="41.80971" lon="9.20093">
        <ele>1263.295</ele>
        <time>2015-07-06T06:09:59Z</time>
      </trkpt>
      <trkpt lat="41.80962" lon="9.20085">
        <ele>1263.534</ele>
        <time>2015-07-06T06:10:08Z</time>
      </trkpt>
      <trkpt lat="41.80957" lon="9.2008">
        <ele>1262.155</ele>
        <time>2015-07-06T06:10:13Z</time>
      </trkpt>
      <trkpt lat="41.80943" lon="9.20062">
        <ele>1260.462</ele>
        <time>2015-07-06T06:10:30Z</time>
      </trkpt>
      <trkpt lat="41.80941" lon="9.20058">
        <ele>1260.47</ele>
        <time>2015-07-06T06:10:34Z</time>
      </trkpt>
      <trkpt lat="41.80932" lon="9.20057">
        <ele>1259.87</ele>
        <time>2015-07-06T06:10:41Z</time>
      </trkpt>
      <trkpt lat="41.80916" lon="9.20058">
        <ele>1259.757</ele>
        <time>2015-07-06T06:10:56Z</time>
      </trkpt>
      <trkpt lat="41.80901" lon="9.20064">
        <ele>1258.104</ele>
        <time>2015-07-06T06:11:09Z</time>
      </trkpt>
      <trkpt lat="41.80891" lon="9.20064">
        <ele>1257.078</ele>
        <time>2015-07-06T06:11:20Z</time>
      </trkpt>
      <trkpt lat="41.8089" lon="9.20064">
        <ele>1256.565</ele>
        <time>2015-07-06T06:11:21Z</time>
      </trkpt>
      <trkpt lat="41.80878" lon="9.20066">
        <ele>1255.039</ele>
        <time>2015-07-06T06:11:36Z</time>
      </trkpt>
      <trkpt lat="41.80866" lon="9.20064">
        <ele>1252.979</ele>
        <time>2015-07-06T06:11:50Z</time>
      </trkpt>
      <trkpt lat="41.80861" lon="9.20057">
        <ele>1252.029</ele>
        <time>2015-07-06T06:12:01Z</time>
      </trkpt>
      <trkpt lat="41.80858" lon="9.20054">
        <ele>1251.921</ele>
        <time>2015-07-06T06:12:05Z</time>
      </trkpt>
      <trkpt lat="41.80855" lon="9.2005">
        <ele>1251.791</ele>
        <time>2015-07-06T06:12:09Z</time>
      </trkpt>
      <trkpt lat="41.8084" lon="9.20045">
        <ele>1250.463</ele>
        <time>2015-07-06T06:12:20Z</time>
      </trkpt>
      <trkpt lat="41.80837" lon="9.20041">
        <ele>1248.871</ele>
        <time>2015-07-06T06:12:31Z</time>
      </trkpt>
      <trkpt lat="41.80828" lon="9.20035">
        <ele>1247.021</ele>
        <time>2015-07-06T06:12:43Z</time>
      </trkpt>
      <trkpt lat="41.80818" lon="9.2003">
        <ele>1245.445</ele>
        <time>2015-07-06T06:12:55Z</time>
      </trkpt>
      <trkpt lat="41.80814" lon="9.20027">
        <ele>1245.267</ele>
        <time>2015-07-06T06:12:59Z</time>
      </trkpt>
      <trkpt lat="41.80808" lon="9.20024">
        <ele>1244.794</ele>
        <time>2015-07-06T06:13:03Z</time>
      </trkpt>
      <trkpt lat="41.80797" lon="9.20011">
        <ele>1244.38</ele>
        <time>2015-07-06T06:13:17Z</time>
      </trkpt>
      <trkpt lat="41.80794" lon="9.20002">
        <ele>1242.365</ele>
        <time>2015-07-06T06:13:29Z</time>
      </trkpt>
      <trkpt lat="41.80796" lon="9.20004">
        <ele>1243.446</ele>
        <time>2015-07-06T06:13:42Z</time>
      </trkpt>
      <trkpt lat="41.8079" lon="9.20004">
        <ele>1246.491</ele>
        <time>2015-07-06T06:13:58Z</time>
      </trkpt>
      <trkpt lat="41.80779" lon="9.19998">
        <ele>1248.551</ele>
        <time>2015-07-06T06:14:16Z</time>
      </trkpt>
      <trkpt lat="41.80775" lon="9.19994">
        <ele>1249.255</ele>
        <time>2015-07-06T06:14:26Z</time>
      </trkpt>
      <trkpt lat="41.80768" lon="9.1999">
        <ele>1250.882</ele>
        <time>2015-07-06T06:14:41Z</time>
      </trkpt>
      <trkpt lat="41.80769" lon="9.19981">
        <ele>1251.832</ele>
        <time>2015-07-06T06:14:53Z</time>
      </trkpt>
      <trkpt lat="41.80769" lon="9.19971">
        <ele>1254.863</ele>
        <time>2015-07-06T06:15:09Z</time>
      </trkpt>
      <trkpt lat="41.80764" lon="9.19961">
        <ele>1257.111</ele>
        <time>2015-07-06T06:15:26Z</time>
      </trkpt>
      <trkpt lat="41.80762" lon="9.19951">
        <ele>1258.613</ele>
        <time>2015-07-06T06:15:40Z</time>
      </trkpt>
      <trkpt lat="41.80756" lon="9.19949">
        <ele>1259.351</ele>
        <time>2015-07-06T06:15:55Z</time>
      </trkpt>
      <trkpt lat="41.80749" lon="9.19949">
        <ele>1260.812</ele>
        <time>2015-07-06T06:16:08Z</time>
      </trkpt>
      <trkpt lat="41.80743" lon="9.19949">
        <ele>1263.231</ele>
        <time>2015-07-06T06:16:26Z</time>
      </trkpt>
      <trkpt lat="41.8074" lon="9.1995">
        <ele>1264.649</ele>
        <time>2015-07-06T06:16:38Z</time>
      </trkpt>
      <trkpt lat="41.80737" lon="9.19953">
        <ele>1266.541</ele>
        <time>2015-07-06T06:16:54Z</time>
      </trkpt>
      <trkpt lat="41.80731" lon="9.19955">
        <ele>1268.022</ele>
        <time>2015-07-06T06:17:09Z</time>
      </trkpt>
      <trkpt lat="41.80726" lon="9.19956">
        <ele>1269.805</ele>
        <time>2015-07-06T06:17:22Z</time>
      </trkpt>
      <trkpt lat="41.8072" lon="9.19961">
        <ele>1271.339</ele>
        <time>2015-07-06T06:17:38Z</time>
      </trkpt>
      <trkpt lat="41.80717" lon="9.19965">
        <ele>1272.604</ele>
        <time>2015-07-06T06:17:54Z</time>
      </trkpt>
      <trkpt lat="41.80711" lon="9.19966">
        <ele>1274.415</ele>
        <time>2015-07-06T06:18:11Z</time>
      </trkpt>
      <trkpt lat="41.80705" lon="9.19966">
        <ele>1275.291</ele>
        <time>2015-07-06T06:18:24Z</time>
      </trkpt>
      <trkpt lat="41.80699" lon="9.19963">
        <ele>1275.444</ele>
        <time>2015-07-06T06:18:38Z</time>
      </trkpt>
      <trkpt lat="41.80696" lon="9.19957">
        <ele>1274.544</ele>
        <time>2015-07-06T06:19:16Z</time>
      </trkpt>
      <trkpt lat="41.80695" lon="9.19955">
        <ele>1274.33</ele>
        <time>2015-07-06T06:19:36Z</time>
      </trkpt>
      <trkpt lat="41.80692" lon="9.19956">
        <ele>1274.621</ele>
        <time>2015-07-06T06:19:52Z</time>
      </trkpt>
      <trkpt lat="41.80692" lon="9.19956">
        <ele>1274.995</ele>
        <time>2015-07-06T06:20:18Z</time>
      </trkpt>
      <trkpt lat="41.80694" lon="9.1996">
        <ele>1274.633</ele>
        <time>2015-07-06T06:20:42Z</time>
      </trkpt>
      <trkpt lat="41.80697" lon="9.19956">
        <ele>1274.026</ele>
        <time>2015-07-06T06:20:58Z</time>
      </trkpt>
      <trkpt lat="41.80695" lon="9.1995">
        <ele>1272.033</ele>
        <time>2015-07-06T06:21:13Z</time>
      </trkpt>
      <trkpt lat="41.80691" lon="9.19948">
        <ele>1270.763</ele>
        <time>2015-07-06T06:21:22Z</time>
      </trkpt>
      <trkpt lat="41.80684" lon="9.19943">
        <ele>1268.127</ele>
        <time>2015-07-06T06:21:36Z</time>
      </trkpt>
      <trkpt lat="41.80684" lon="9.19937">
        <ele>1265.084</ele>
        <time>2015-07-06T06:21:53Z</time>
      </trkpt>
      <trkpt lat="41.8068" lon="9.19922">
        <ele>1262.768</ele>
        <time>2015-07-06T06:22:11Z</time>
      </trkpt>
      <trkpt lat="41.80675" lon="9.1992">
        <ele>1261.016</ele>
        <time>2015-07-06T06:22:24Z</time>
      </trkpt>
      <trkpt lat="41.8068" lon="9.19915">
        <ele>1258.165</ele>
        <time>2015-07-06T06:22:42Z</time>
      </trkpt>
      <trkpt lat="41.80677" lon="9.19906">
        <ele>1255.939</ele>
        <time>2015-07-06T06:22:57Z</time>
      </trkpt>
      <trkpt lat="41.80674" lon="9.19897">
        <ele>1254.62</ele>
        <time>2015-07-06T06:23:07Z</time>
      </trkpt>
      <trkpt lat="41.8067" lon="9.19884">
        <ele>1252.986</ele>
        <time>2015-07-06T06:23:19Z</time>
      </trkpt>
      <trkpt lat="41.8067" lon="9.19883">
        <ele>1252.411</ele>
        <time>2015-07-06T06:23:21Z</time>
      </trkpt>
      <trkpt lat="41.80669" lon="9.19876">
        <ele>1252.019</ele>
        <time>2015-07-06T06:23:26Z</time>
      </trkpt>
      <trkpt lat="41.80657" lon="9.19857">
        <ele>1251.889</ele>
        <time>2015-07-06T06:23:40Z</time>
      </trkpt>
      <trkpt lat="41.80651" lon="9.19851">
        <ele>1252.354</ele>
        <time>2015-07-06T06:23:48Z</time>
      </trkpt>
      <trkpt lat="41.80637" lon="9.19844">
        <ele>1251.856</ele>
        <time>2015-07-06T06:24:02Z</time>
      </trkpt>
      <trkpt lat="41.80631" lon="9.19834">
        <ele>1251.473</ele>
        <time>2015-07-06T06:24:14Z</time>
      </trkpt>
      <trkpt lat="41.80623" lon="9.19827">
        <ele>1248.462</ele>
        <time>2015-07-06T06:24:27Z</time>
      </trkpt>
      <trkpt lat="41.80617" lon="9.19823">
        <ele>1247.221</ele>
        <time>2015-07-06T06:24:33Z</time>
      </trkpt>
      <trkpt lat="41.80608" lon="9.19809">
        <ele>1245.772</ele>
        <time>2015-07-06T06:24:47Z</time>
      </trkpt>
      <trkpt lat="41.80601" lon="9.19796">
        <ele>1242.986</ele>
        <time>2015-07-06T06:25:01Z</time>
      </trkpt>
      <trkpt lat="41.80598" lon="9.19789">
        <ele>1241.072</ele>
        <time>2015-07-06T06:25:12Z</time>
      </trkpt>
      <trkpt lat="41.80596" lon="9.19787">
        <ele>1240.625</ele>
        <time>2015-07-06T06:25:33Z</time>
      </trkpt>
      <trkpt lat="41.8059" lon="9.19787">
        <ele>1240.673</ele>
        <time>2015-07-06T06:26:11Z</time>
      </trkpt>
      <trkpt lat="41.8059" lon="9.19788">
        <ele>1240.555</ele>
        <time>2015-07-06T06:26:24Z</time>
      </trkpt>
      <trkpt lat="41.80594" lon="9.19773">
        <ele>1240.654</ele>
        <time>2015-07-06T06:26:49Z</time>
      </trkpt>
      <trkpt lat="41.80593" lon="9.19767">
        <ele>1240.844</ele>
        <time>2015-07-06T06:27:05Z</time>
      </trkpt>
      <trkpt lat="41.80586" lon="9.19759">
        <ele>1240.562</ele>
        <time>2015-07-06T06:27:21Z</time>
      </trkpt>
      <trkpt lat="41.80581" lon="9.19761">
        <ele>1239.376</ele>
        <time>2015-07-06T06:27:39Z</time>
      </trkpt>
      <trkpt lat="41.80576" lon="9.19754">
        <ele>1236.599</ele>
        <time>2015-07-06T06:27:52Z</time>
      </trkpt>
      <trkpt lat="41.80569" lon="9.19748">
        <ele>1236.145</ele>
        <time>2015-07-06T06:28:03Z</time>
      </trkpt>
      <trkpt lat="41.80561" lon="9.19745">
        <ele>1233.336</ele>
        <time>2015-07-06T06:28:16Z</time>
      </trkpt>
      <trkpt lat="41.80555" lon="9.19741">
        <ele>1231.175</ele>
        <time>2015-07-06T06:28:28Z</time>
      </trkpt>
      <trkpt lat="41.80546" lon="9.19732">
        <ele>1228.923</ele>
        <time>2015-07-06T06:28:43Z</time>
      </trkpt>
      <trkpt lat="41.80541" lon="9.19724">
        <ele>1228.59</ele>
        <time>2015-07-06T06:28:58Z</time>
      </trkpt>
      <trkpt lat="41.80532" lon="9.19713">
        <ele>1225.976</ele>
        <time>2015-07-06T06:29:12Z</time>
      </trkpt>
      <trkpt lat="41.80524" lon="9.19706">
        <ele>1225.491</ele>
        <time>2015-07-06T06:29:22Z</time>
      </trkpt>
      <trkpt lat="41.80514" lon="9.197">
        <ele>1225.041</ele>
        <time>2015-07-06T06:29:33Z</time>
      </trkpt>
      <trkpt lat="41.80508" lon="9.19694">
        <ele>1223.108</ele>
        <time>2015-07-06T06:29:44Z</time>
      </trkpt>
      <trkpt lat="41.80498" lon="9.19682">
        <ele>1219.929</ele>
        <time>2015-07-06T06:29:57Z</time>
      </trkpt>
      <trkpt lat="41.80492" lon="9.19674">
        <ele>1219.972</ele>
        <time>2015-07-06T06:30:05Z</time>
      </trkpt>
      <trkpt lat="41.80481" lon="9.19667">
        <ele>1217.845</ele>
        <time>2015-07-06T06:30:17Z</time>
      </trkpt>
      <trkpt lat="41.80468" lon="9.19668">
        <ele>1215.846</ele>
        <time>2015-07-06T06:30:31Z</time>
      </trkpt>
      <trkpt lat="41.8046" lon="9.19666">
        <ele>1213.23</ele>
        <time>2015-07-06T06:30:49Z</time>
      </trkpt>
      <trkpt lat="41.80456" lon="9.1966">
        <ele>1210.991</ele>
        <time>2015-07-06T06:31:04Z</time>
      </trkpt>
      <trkpt lat="41.80454" lon="9.19654">
        <ele>1208.531</ele>
        <time>2015-07-06T06:31:16Z</time>
      </trkpt>
      <trkpt lat="41.80448" lon="9.19644">
        <ele>1206.672</ele>
        <time>2015-07-06T06:31:28Z</time>
      </trkpt>
      <trkpt lat="41.80442" lon="9.19637">
        <ele>1204.795</ele>
        <time>2015-07-06T06:31:38Z</time>
      </trkpt>
      <trkpt lat="41.80434" lon="9.19623">
        <ele>1203.27</ele>
        <time>2015-07-06T06:31:51Z</time>
      </trkpt>
      <trkpt lat="41.80434" lon="9.19615">
        <ele>1201.137</ele>
        <time>2015-07-06T06:32:02Z</time>
      </trkpt>
      <trkpt lat="41.80429" lon="9.19607">
        <ele>1198.862</ele>
        <time>2015-07-06T06:32:14Z</time>
      </trkpt>
      <trkpt lat="41.80425" lon="9.19601">
        <ele>1195.732</ele>
        <time>2015-07-06T06:32:25Z</time>
      </trkpt>
      <trkpt lat="41.80419" lon="9.19595">
        <ele>1194.215</ele>
        <time>2015-07-06T06:32:38Z</time>
      </trkpt>
      <trkpt lat="41.80411" lon="9.19592">
        <ele>1192.112</ele>
        <time>2015-07-06T06:32:49Z</time>
      </trkpt>
      <trkpt lat="41.80404" lon="9.19592">
        <ele>1190.008</ele>
        <time>2015-07-06T06:33:01Z</time>
      </trkpt>
      <trkpt lat="41.80399" lon="9.19592">
        <ele>1189.5</ele>
        <time>2015-07-06T06:33:07Z</time>
      </trkpt>
      <trkpt lat="41.80387" lon="9.19598">
        <ele>1189.44</ele>
        <time>2015-07-06T06:33:22Z</time>
      </trkpt>
      <trkpt lat="41.8038" lon="9.19597">
        <ele>1189.518</ele>
        <time>2015-07-06T06:33:34Z</time>
      </trkpt>
      <trkpt lat="41.80372" lon="9.1959">
        <ele>1190.384</ele>
        <time>2015-07-06T06:33:49Z</time>
      </trkpt>
      <trkpt lat="41.80365" lon="9.19585">
        <ele>1193.048</ele>
        <time>2015-07-06T06:34:05Z</time>
      </trkpt>
      <trkpt lat="41.8036" lon="9.19579">
        <ele>1191.481</ele>
        <time>2015-07-06T06:34:16Z</time>
      </trkpt>
      <trkpt lat="41.80352" lon="9.1957">
        <ele>1190.914</ele>
        <time>2015-07-06T06:34:26Z</time>
      </trkpt>
      <trkpt lat="41.80338" lon="9.19563">
        <ele>1190.506</ele>
        <time>2015-07-06T06:34:40Z</time>
      </trkpt>
      <trkpt lat="41.80327" lon="9.19569">
        <ele>1188.885</ele>
        <time>2015-07-06T06:34:54Z</time>
      </trkpt>
      <trkpt lat="41.80323" lon="9.19567">
        <ele>1187.657</ele>
        <time>2015-07-06T06:35:05Z</time>
      </trkpt>
      <trkpt lat="41.80316" lon="9.19562">
        <ele>1184.832</ele>
        <time>2015-07-06T06:35:20Z</time>
      </trkpt>
      <trkpt lat="41.80311" lon="9.19557">
        <ele>1181.549</ele>
        <time>2015-07-06T06:35:31Z</time>
      </trkpt>
      <trkpt lat="41.80302" lon="9.1955">
        <ele>1180.57</ele>
        <time>2015-07-06T06:35:44Z</time>
      </trkpt>
      <trkpt lat="41.80293" lon="9.19548">
        <ele>1178.335</ele>
        <time>2015-07-06T06:35:59Z</time>
      </trkpt>
      <trkpt lat="41.80291" lon="9.19541">
        <ele>1177.275</ele>
        <time>2015-07-06T06:36:18Z</time>
      </trkpt>
      <trkpt lat="41.80283" lon="9.19542">
        <ele>1175.013</ele>
        <time>2015-07-06T06:36:30Z</time>
      </trkpt>
      <trkpt lat="41.80272" lon="9.1954">
        <ele>1172.646</ele>
        <time>2015-07-06T06:36:46Z</time>
      </trkpt>
      <trkpt lat="41.80266" lon="9.19538">
        <ele>1172.21</ele>
        <time>2015-07-06T06:36:52Z</time>
      </trkpt>
      <trkpt lat="41.8025" lon="9.19538">
        <ele>1170.743</ele>
        <time>2015-07-06T06:37:09Z</time>
      </trkpt>
      <trkpt lat="41.80247" lon="9.19536">
        <ele>1171.041</ele>
        <time>2015-07-06T06:37:13Z</time>
      </trkpt>
      <trkpt lat="41.80242" lon="9.19529">
        <ele>1171.244</ele>
        <time>2015-07-06T06:37:20Z</time>
      </trkpt>
      <trkpt lat="41.8023" lon="9.19527">
        <ele>1169.07</ele>
        <time>2015-07-06T06:37:37Z</time>
      </trkpt>
      <trkpt lat="41.80223" lon="9.19523">
        <ele>1168.082</ele>
        <time>2015-07-06T06:37:49Z</time>
      </trkpt>
      <trkpt lat="41.80223" lon="9.19523">
        <ele>1169.132</ele>
        <time>2015-07-06T06:37:50Z</time>
      </trkpt>
      <trkpt lat="41.80217" lon="9.19518">
        <ele>1168.41</ele>
        <time>2015-07-06T06:37:58Z</time>
      </trkpt>
      <trkpt lat="41.80204" lon="9.19503">
        <ele>1167.561</ele>
        <time>2015-07-06T06:38:15Z</time>
      </trkpt>
      <trkpt lat="41.80191" lon="9.19498">
        <ele>1167.368</ele>
        <time>2015-07-06T06:38:30Z</time>
      </trkpt>
      <trkpt lat="41.80187" lon="9.19496">
        <ele>1166.943</ele>
        <time>2015-07-06T06:38:35Z</time>
      </trkpt>
      <trkpt lat="41.80182" lon="9.19495">
        <ele>1166.855</ele>
        <time>2015-07-06T06:38:40Z</time>
      </trkpt>
      <trkpt lat="41.8017" lon="9.19486">
        <ele>1165.446</ele>
        <time>2015-07-06T06:38:55Z</time>
      </trkpt>
      <trkpt lat="41.80164" lon="9.19481">
        <ele>1163.982</ele>
        <time>2015-07-06T06:39:06Z</time>
      </trkpt>
      <trkpt lat="41.80154" lon="9.19472">
        <ele>1163.351</ele>
        <time>2015-07-06T06:39:22Z</time>
      </trkpt>
      <trkpt lat="41.8014" lon="9.19463">
        <ele>1161.506</ele>
        <time>2015-07-06T06:39:37Z</time>
      </trkpt>
      <trkpt lat="41.80127" lon="9.19453">
        <ele>1161.546</ele>
        <time>2015-07-06T06:39:51Z</time>
      </trkpt>
      <trkpt lat="41.80117" lon="9.19448">
        <ele>1162.087</ele>
        <time>2015-07-06T06:40:07Z</time>
      </trkpt>
      <trkpt lat="41.80112" lon="9.19449">
        <ele>1161.363</ele>
        <time>2015-07-06T06:40:26Z</time>
      </trkpt>
      <trkpt lat="41.80112" lon="9.19451">
        <ele>1159.632</ele>
        <time>2015-07-06T06:40:28Z</time>
      </trkpt>
      <trkpt lat="41.8011" lon="9.19451">
        <ele>1162.978</ele>
        <time>2015-07-06T06:42:16Z</time>
      </trkpt>
      <trkpt lat="41.8011" lon="9.19451">
        <ele>1160.513</ele>
        <time>2015-07-06T06:42:17Z</time>
      </trkpt>
      <trkpt lat="41.8011" lon="9.19451">
        <ele>1159.704</ele>
        <time>2015-07-06T06:42:19Z</time>
      </trkpt>
      <trkpt lat="41.8011" lon="9.19451">
        <ele>1157.594</ele>
        <time>2015-07-06T06:42:28Z</time>
      </trkpt>
      <trkpt lat="41.8011" lon="9.19452">
        <ele>1158.731</ele>
        <time>2015-07-06T06:42:30Z</time>
      </trkpt>
      <trkpt lat="41.8011" lon="9.19453">
        <ele>1155.613</ele>
        <time>2015-07-06T06:42:52Z</time>
      </trkpt>
      <trkpt lat="41.8011" lon="9.19453">
        <ele>1159.069</ele>
        <time>2015-07-06T06:42:53Z</time>
      </trkpt>
      <trkpt lat="41.8011" lon="9.1945">
        <ele>1157.92</ele>
        <time>2015-07-06T06:44:21Z</time>
      </trkpt>
      <trkpt lat="41.80114" lon="9.19449">
        <ele>1157.078</ele>
        <time>2015-07-06T06:58:27Z</time>
      </trkpt>
      <trkpt lat="41.80112" lon="9.19452">
        <ele>1157.387</ele>
        <time>2015-07-06T06:59:06Z</time>
      </trkpt>
      <trkpt lat="41.80109" lon="9.19454">
        <ele>1157.163</ele>
        <time>2015-07-06T06:59:59Z</time>
      </trkpt>
      <trkpt lat="41.8011" lon="9.19453">
        <ele>1156.939</ele>
        <time>2015-07-06T07:00:21Z</time>
      </trkpt>
      <trkpt lat="41.8011" lon="9.19454">
        <ele>1153.742</ele>
        <time>2015-07-06T07:00:25Z</time>
      </trkpt>
      <trkpt lat="41.8011" lon="9.19454">
        <ele>1157.082</ele>
        <time>2015-07-06T07:00:27Z</time>
      </trkpt>
      <trkpt lat="41.8011" lon="9.19454">
        <ele>1166.187</ele>
        <time>2015-07-06T07:00:30Z</time>
      </trkpt>
      <trkpt lat="41.8011" lon="9.19454">
        <ele>1156.908</ele>
        <time>2015-07-06T07:00:31Z</time>
      </trkpt>
      <trkpt lat="41.8011" lon="9.19455">
        <ele>1156.626</ele>
        <time>2015-07-06T07:01:12Z</time>
      </trkpt>
      <trkpt lat="41.8011" lon="9.19452">
        <ele>1157.171</ele>
        <time>2015-07-06T07:01:35Z</time>
      </trkpt>
      <trkpt lat="41.8011" lon="9.1945">
        <ele>1157.311</ele>
        <time>2015-07-06T07:02:06Z</time>
      </trkpt>
      <trkpt lat="41.8011" lon="9.19449">
        <ele>1156.82</ele>
        <time>2015-07-06T07:02:30Z</time>
      </trkpt>
      <trkpt lat="41.80105" lon="9.19447">
        <ele>1156.141</ele>
        <time>2015-07-06T07:02:42Z</time>
      </trkpt>
      <trkpt lat="41.80102" lon="9.19447">
        <ele>1155.493</ele>
        <time>2015-07-06T07:02:45Z</time>
      </trkpt>
      <trkpt lat="41.80089" lon="9.19439">
        <ele>1155.22</ele>
        <time>2015-07-06T07:03:02Z</time>
      </trkpt>
      <trkpt lat="41.80082" lon="9.19431">
        <ele>1153.386</ele>
        <time>2015-07-06T07:03:16Z</time>
      </trkpt>
      <trkpt lat="41.80076" lon="9.19427">
        <ele>1152.892</ele>
        <time>2015-07-06T07:03:22Z</time>
      </trkpt>
      <trkpt lat="41.80073" lon="9.19424">
        <ele>1152.56</ele>
        <time>2015-07-06T07:03:26Z</time>
      </trkpt>
      <trkpt lat="41.80059" lon="9.19416">
        <ele>1153.389</ele>
        <time>2015-07-06T07:03:40Z</time>
      </trkpt>
      <trkpt lat="41.80044" lon="9.19409">
        <ele>1151.601</ele>
        <time>2015-07-06T07:03:56Z</time>
      </trkpt>
      <trkpt lat="41.80033" lon="9.19397">
        <ele>1151.211</ele>
        <time>2015-07-06T07:04:12Z</time>
      </trkpt>
      <trkpt lat="41.80028" lon="9.19397">
        <ele>1151.883</ele>
        <time>2015-07-06T07:04:27Z</time>
      </trkpt>
      <trkpt lat="41.80026" lon="9.19397">
        <ele>1150.928</ele>
        <time>2015-07-06T07:04:48Z</time>
      </trkpt>
      <trkpt lat="41.80021" lon="9.19393">
        <ele>1148.892</ele>
        <time>2015-07-06T07:05:00Z</time>
      </trkpt>
      <trkpt lat="41.80015" lon="9.19394">
        <ele>1146.162</ele>
        <time>2015-07-06T07:05:12Z</time>
      </trkpt>
      <trkpt lat="41.80014" lon="9.19389">
        <ele>1143.476</ele>
        <time>2015-07-06T07:05:21Z</time>
      </trkpt>
      <trkpt lat="41.80011" lon="9.19388">
        <ele>1141.831</ele>
        <time>2015-07-06T07:05:34Z</time>
      </trkpt>
      <trkpt lat="41.80005" lon="9.19389">
        <ele>1139.329</ele>
        <time>2015-07-06T07:05:48Z</time>
      </trkpt>
      <trkpt lat="41.79997" lon="9.1939">
        <ele>1135.927</ele>
        <time>2015-07-06T07:06:02Z</time>
      </trkpt>
      <trkpt lat="41.79988" lon="9.19389">
        <ele>1134.456</ele>
        <time>2015-07-06T07:06:18Z</time>
      </trkpt>
      <trkpt lat="41.79984" lon="9.19389">
        <ele>1132.919</ele>
        <time>2015-07-06T07:06:24Z</time>
      </trkpt>
      <trkpt lat="41.79971" lon="9.19396">
        <ele>1131.065</ele>
        <time>2015-07-06T07:06:40Z</time>
      </trkpt>
      <trkpt lat="41.79962" lon="9.19395">
        <ele>1129.146</ele>
        <time>2015-07-06T07:06:52Z</time>
      </trkpt>
      <trkpt lat="41.79956" lon="9.19394">
        <ele>1128.576</ele>
        <time>2015-07-06T07:06:58Z</time>
      </trkpt>
      <trkpt lat="41.79942" lon="9.194">
        <ele>1125.815</ele>
        <time>2015-07-06T07:07:14Z</time>
      </trkpt>
      <trkpt lat="41.79927" lon="9.19406">
        <ele>1125.303</ele>
        <time>2015-07-06T07:07:31Z</time>
      </trkpt>
      <trkpt lat="41.79916" lon="9.19408">
        <ele>1125.451</ele>
        <time>2015-07-06T07:07:44Z</time>
      </trkpt>
      <trkpt lat="41.79904" lon="9.19414">
        <ele>1126.028</ele>
        <time>2015-07-06T07:07:59Z</time>
      </trkpt>
      <trkpt lat="41.79902" lon="9.19416">
        <ele>1127.121</ele>
        <time>2015-07-06T07:08:04Z</time>
      </trkpt>
      <trkpt lat="41.79894" lon="9.19418">
        <ele>1127.413</ele>
        <time>2015-07-06T07:08:14Z</time>
      </trkpt>
      <trkpt lat="41.79881" lon="9.1942">
        <ele>1127.658</ele>
        <time>2015-07-06T07:08:29Z</time>
      </trkpt>
      <trkpt lat="41.79869" lon="9.19421">
        <ele>1127.611</ele>
        <time>2015-07-06T07:08:42Z</time>
      </trkpt>
      <trkpt lat="41.79853" lon="9.19413">
        <ele>1127.073</ele>
        <time>2015-07-06T07:09:00Z</time>
      </trkpt>
      <trkpt lat="41.7985" lon="9.1941">
        <ele>1126.893</ele>
        <time>2015-07-06T07:09:04Z</time>
      </trkpt>
      <trkpt lat="41.7984" lon="9.19411">
        <ele>1127.189</ele>
        <time>2015-07-06T07:09:15Z</time>
      </trkpt>
      <trkpt lat="41.79829" lon="9.19416">
        <ele>1127.525</ele>
        <time>2015-07-06T07:09:30Z</time>
      </trkpt>
      <trkpt lat="41.79818" lon="9.19417">
        <ele>1127.593</ele>
        <time>2015-07-06T07:09:44Z</time>
      </trkpt>
      <trkpt lat="41.79806" lon="9.19421">
        <ele>1127.781</ele>
        <time>2015-07-06T07:09:58Z</time>
      </trkpt>
      <trkpt lat="41.79791" lon="9.19428">
        <ele>1127.561</ele>
        <time>2015-07-06T07:10:15Z</time>
      </trkpt>
      <trkpt lat="41.7979" lon="9.19429">
        <ele>1127.941</ele>
        <time>2015-07-06T07:10:16Z</time>
      </trkpt>
      <trkpt lat="41.79775" lon="9.19437">
        <ele>1127.706</ele>
        <time>2015-07-06T07:10:32Z</time>
      </trkpt>
      <trkpt lat="41.79769" lon="9.19437">
        <ele>1126.858</ele>
        <time>2015-07-06T07:10:38Z</time>
      </trkpt>
      <trkpt lat="41.79762" lon="9.19441">
        <ele>1126.01</ele>
        <time>2015-07-06T07:10:53Z</time>
      </trkpt>
      <trkpt lat="41.7975" lon="9.19446">
        <ele>1124.286</ele>
        <time>2015-07-06T07:11:08Z</time>
      </trkpt>
      <trkpt lat="41.79739" lon="9.19447">
        <ele>1121.908</ele>
        <time>2015-07-06T07:11:26Z</time>
      </trkpt>
      <trkpt lat="41.79735" lon="9.19443">
        <ele>1119.323</ele>
        <time>2015-07-06T07:11:40Z</time>
      </trkpt>
      <trkpt lat="41.79726" lon="9.19441">
        <ele>1116.198</ele>
        <time>2015-07-06T07:11:57Z</time>
      </trkpt>
      <trkpt lat="41.79721" lon="9.19432">
        <ele>1114.059</ele>
        <time>2015-07-06T07:12:09Z</time>
      </trkpt>
      <trkpt lat="41.79715" lon="9.19425">
        <ele>1111.488</ele>
        <time>2015-07-06T07:12:23Z</time>
      </trkpt>
      <trkpt lat="41.79706" lon="9.19425">
        <ele>1109.34</ele>
        <time>2015-07-06T07:12:38Z</time>
      </trkpt>
      <trkpt lat="41.79702" lon="9.19414">
        <ele>1107.996</ele>
        <time>2015-07-06T07:12:51Z</time>
      </trkpt>
      <trkpt lat="41.79698" lon="9.19408">
        <ele>1105.749</ele>
        <time>2015-07-06T07:13:06Z</time>
      </trkpt>
      <trkpt lat="41.79696" lon="9.19404">
        <ele>1103.706</ele>
        <time>2015-07-06T07:13:19Z</time>
      </trkpt>
      <trkpt lat="41.79693" lon="9.19402">
        <ele>1101.699</ele>
        <time>2015-07-06T07:13:34Z</time>
      </trkpt>
      <trkpt lat="41.79693" lon="9.19394">
        <ele>1099.803</ele>
        <time>2015-07-06T07:13:48Z</time>
      </trkpt>
      <trkpt lat="41.79691" lon="9.19389">
        <ele>1096.81</ele>
        <time>2015-07-06T07:14:01Z</time>
      </trkpt>
      <trkpt lat="41.79687" lon="9.19385">
        <ele>1095.609</ele>
        <time>2015-07-06T07:14:14Z</time>
      </trkpt>
      <trkpt lat="41.79681" lon="9.19383">
        <ele>1094.689</ele>
        <time>2015-07-06T07:14:29Z</time>
      </trkpt>
      <trkpt lat="41.79673" lon="9.19379">
        <ele>1091.994</ele>
        <time>2015-07-06T07:14:44Z</time>
      </trkpt>
      <trkpt lat="41.79666" lon="9.19375">
        <ele>1088.529</ele>
        <time>2015-07-06T07:14:57Z</time>
      </trkpt>
      <trkpt lat="41.79662" lon="9.19372">
        <ele>1086.823</ele>
        <time>2015-07-06T07:15:12Z</time>
      </trkpt>
      <trkpt lat="41.79662" lon="9.19359">
        <ele>1084.359</ele>
        <time>2015-07-06T07:15:27Z</time>
      </trkpt>
      <trkpt lat="41.79652" lon="9.19354">
        <ele>1082.045</ele>
        <time>2015-07-06T07:15:43Z</time>
      </trkpt>
      <trkpt lat="41.79644" lon="9.19357">
        <ele>1079.527</ele>
        <time>2015-07-06T07:15:57Z</time>
      </trkpt>
      <trkpt lat="41.79639" lon="9.19352">
        <ele>1078.449</ele>
        <time>2015-07-06T07:16:12Z</time>
      </trkpt>
      <trkpt lat="41.79635" lon="9.19356">
        <ele>1075.372</ele>
        <time>2015-07-06T07:16:24Z</time>
      </trkpt>
      <trkpt lat="41.7963" lon="9.19361">
        <ele>1073.548</ele>
        <time>2015-07-06T07:16:38Z</time>
      </trkpt>
      <trkpt lat="41.79624" lon="9.19368">
        <ele>1071.566</ele>
        <time>2015-07-06T07:16:54Z</time>
      </trkpt>
      <trkpt lat="41.79619" lon="9.19378">
        <ele>1069.669</ele>
        <time>2015-07-06T07:17:09Z</time>
      </trkpt>
      <trkpt lat="41.79616" lon="9.19386">
        <ele>1068.389</ele>
        <time>2015-07-06T07:17:25Z</time>
      </trkpt>
      <trkpt lat="41.79611" lon="9.19388">
        <ele>1066.519</ele>
        <time>2015-07-06T07:17:39Z</time>
      </trkpt>
      <trkpt lat="41.79605" lon="9.1939">
        <ele>1063.854</ele>
        <time>2015-07-06T07:17:55Z</time>
      </trkpt>
      <trkpt lat="41.79599" lon="9.19399">
        <ele>1061.171</ele>
        <time>2015-07-06T07:18:10Z</time>
      </trkpt>
      <trkpt lat="41.79593" lon="9.19414">
        <ele>1060.285</ele>
        <time>2015-07-06T07:18:25Z</time>
      </trkpt>
      <trkpt lat="41.79587" lon="9.19428">
        <ele>1059.561</ele>
        <time>2015-07-06T07:18:40Z</time>
      </trkpt>
      <trkpt lat="41.79584" lon="9.19432">
        <ele>1058.781</ele>
        <time>2015-07-06T07:18:44Z</time>
      </trkpt>
      <trkpt lat="41.79578" lon="9.19453">
        <ele>1059.736</ele>
        <time>2015-07-06T07:19:03Z</time>
      </trkpt>
      <trkpt lat="41.79571" lon="9.19465">
        <ele>1057.5</ele>
        <time>2015-07-06T07:19:16Z</time>
      </trkpt>
      <trkpt lat="41.79558" lon="9.1949">
        <ele>1056.709</ele>
        <time>2015-07-06T07:19:35Z</time>
      </trkpt>
      <trkpt lat="41.79546" lon="9.19511">
        <ele>1055.837</ele>
        <time>2015-07-06T07:19:50Z</time>
      </trkpt>
      <trkpt lat="41.79545" lon="9.1952">
        <ele>1054.983</ele>
        <time>2015-07-06T07:19:57Z</time>
      </trkpt>
      <trkpt lat="41.79542" lon="9.19528">
        <ele>1055.181</ele>
        <time>2015-07-06T07:20:03Z</time>
      </trkpt>
      <trkpt lat="41.7954" lon="9.19538">
        <ele>1054.819</ele>
        <time>2015-07-06T07:20:09Z</time>
      </trkpt>
      <trkpt lat="41.79536" lon="9.19549">
        <ele>1054.181</ele>
        <time>2015-07-06T07:20:16Z</time>
      </trkpt>
      <trkpt lat="41.79528" lon="9.19578">
        <ele>1052.588</ele>
        <time>2015-07-06T07:20:35Z</time>
      </trkpt>
      <trkpt lat="41.7952" lon="9.19607">
        <ele>1050.77</ele>
        <time>2015-07-06T07:20:54Z</time>
      </trkpt>
      <trkpt lat="41.79512" lon="9.19633">
        <ele>1051.463</ele>
        <time>2015-07-06T07:21:12Z</time>
      </trkpt>
      <trkpt lat="41.79504" lon="9.19666">
        <ele>1052.093</ele>
        <time>2015-07-06T07:21:35Z</time>
      </trkpt>
      <trkpt lat="41.79503" lon="9.19691">
        <ele>1052.831</ele>
        <time>2015-07-06T07:21:52Z</time>
      </trkpt>
      <trkpt lat="41.79505" lon="9.19698">
        <ele>1052.108</ele>
        <time>2015-07-06T07:21:57Z</time>
      </trkpt>
      <trkpt lat="41.79512" lon="9.19713">
        <ele>1050.614</ele>
        <time>2015-07-06T07:22:09Z</time>
      </trkpt>
      <trkpt lat="41.79519" lon="9.19742">
        <ele>1049.055</ele>
        <time>2015-07-06T07:22:27Z</time>
      </trkpt>
      <trkpt lat="41.79524" lon="9.19766">
        <ele>1048.534</ele>
        <time>2015-07-06T07:22:44Z</time>
      </trkpt>
      <trkpt lat="41.79528" lon="9.1978">
        <ele>1048.402</ele>
        <time>2015-07-06T07:22:53Z</time>
      </trkpt>
      <trkpt lat="41.79532" lon="9.19785">
        <ele>1047.693</ele>
        <time>2015-07-06T07:22:58Z</time>
      </trkpt>
      <trkpt lat="41.79534" lon="9.19793">
        <ele>1047.519</ele>
        <time>2015-07-06T07:23:04Z</time>
      </trkpt>
      <trkpt lat="41.79538" lon="9.19799">
        <ele>1047.659</ele>
        <time>2015-07-06T07:23:09Z</time>
      </trkpt>
      <trkpt lat="41.7954" lon="9.19809">
        <ele>1047.06</ele>
        <time>2015-07-06T07:23:17Z</time>
      </trkpt>
      <trkpt lat="41.7954" lon="9.19819">
        <ele>1047.034</ele>
        <time>2015-07-06T07:23:23Z</time>
      </trkpt>
      <trkpt lat="41.79549" lon="9.1985">
        <ele>1047.955</ele>
        <time>2015-07-06T07:23:43Z</time>
      </trkpt>
      <trkpt lat="41.79564" lon="9.19867">
        <ele>1050.295</ele>
        <time>2015-07-06T07:24:01Z</time>
      </trkpt>
      <trkpt lat="41.79571" lon="9.19874">
        <ele>1050.879</ele>
        <time>2015-07-06T07:24:12Z</time>
      </trkpt>
      <trkpt lat="41.79576" lon="9.19887">
        <ele>1050.155</ele>
        <time>2015-07-06T07:24:29Z</time>
      </trkpt>
      <trkpt lat="41.79581" lon="9.1989">
        <ele>1051.557</ele>
        <time>2015-07-06T07:24:41Z</time>
      </trkpt>
      <trkpt lat="41.79586" lon="9.19899">
        <ele>1051.062</ele>
        <time>2015-07-06T07:24:50Z</time>
      </trkpt>
      <trkpt lat="41.79592" lon="9.19916">
        <ele>1050.362</ele>
        <time>2015-07-06T07:25:06Z</time>
      </trkpt>
      <trkpt lat="41.79604" lon="9.1993">
        <ele>1051.48</ele>
        <time>2015-07-06T07:25:22Z</time>
      </trkpt>
      <trkpt lat="41.79606" lon="9.19939">
        <ele>1049.394</ele>
        <time>2015-07-06T07:25:28Z</time>
      </trkpt>
      <trkpt lat="41.7961" lon="9.19955">
        <ele>1047.789</ele>
        <time>2015-07-06T07:25:42Z</time>
      </trkpt>
      <trkpt lat="41.79611" lon="9.19962">
        <ele>1046.76</ele>
        <time>2015-07-06T07:25:55Z</time>
      </trkpt>
      <trkpt lat="41.79608" lon="9.19968">
        <ele>1046.161</ele>
        <time>2015-07-06T07:26:11Z</time>
      </trkpt>
      <trkpt lat="41.79612" lon="9.19971">
        <ele>1047.958</ele>
        <time>2015-07-06T07:26:38Z</time>
      </trkpt>
      <trkpt lat="41.79614" lon="9.19983">
        <ele>1050.195</ele>
        <time>2015-07-06T07:26:52Z</time>
      </trkpt>
      <trkpt lat="41.79611" lon="9.2">
        <ele>1051.616</ele>
        <time>2015-07-06T07:27:10Z</time>
      </trkpt>
      <trkpt lat="41.79611" lon="9.20009">
        <ele>1049.428</ele>
        <time>2015-07-06T07:27:21Z</time>
      </trkpt>
      <trkpt lat="41.79609" lon="9.20023">
        <ele>1050.358</ele>
        <time>2015-07-06T07:27:35Z</time>
      </trkpt>
      <trkpt lat="41.79605" lon="9.20026">
        <ele>1050.63</ele>
        <time>2015-07-06T07:27:41Z</time>
      </trkpt>
      <trkpt lat="41.79593" lon="9.20045">
        <ele>1051.441</ele>
        <time>2015-07-06T07:28:00Z</time>
      </trkpt>
      <trkpt lat="41.7958" lon="9.20056">
        <ele>1052.564</ele>
        <time>2015-07-06T07:28:17Z</time>
      </trkpt>
      <trkpt lat="41.79569" lon="9.20064">
        <ele>1053.668</ele>
        <time>2015-07-06T07:28:32Z</time>
      </trkpt>
      <trkpt lat="41.79554" lon="9.20073">
        <ele>1053.583</ele>
        <time>2015-07-06T07:28:47Z</time>
      </trkpt>
      <trkpt lat="41.79546" lon="9.20077">
        <ele>1053.815</ele>
        <time>2015-07-06T07:28:55Z</time>
      </trkpt>
      <trkpt lat="41.79543" lon="9.20082">
        <ele>1053.68</ele>
        <time>2015-07-06T07:28:59Z</time>
      </trkpt>
      <trkpt lat="41.79531" lon="9.20094">
        <ele>1052.758</ele>
        <time>2015-07-06T07:29:15Z</time>
      </trkpt>
      <trkpt lat="41.79516" lon="9.20104">
        <ele>1053.375</ele>
        <time>2015-07-06T07:29:33Z</time>
      </trkpt>
      <trkpt lat="41.79505" lon="9.20107">
        <ele>1054.441</ele>
        <time>2015-07-06T07:29:47Z</time>
      </trkpt>
      <trkpt lat="41.79493" lon="9.20113">
        <ele>1056.492</ele>
        <time>2015-07-06T07:30:05Z</time>
      </trkpt>
      <trkpt lat="41.79489" lon="9.20118">
        <ele>1057.617</ele>
        <time>2015-07-06T07:30:17Z</time>
      </trkpt>
      <trkpt lat="41.79478" lon="9.20119">
        <ele>1058.652</ele>
        <time>2015-07-06T07:30:31Z</time>
      </trkpt>
      <trkpt lat="41.79468" lon="9.20125">
        <ele>1059.524</ele>
        <time>2015-07-06T07:30:46Z</time>
      </trkpt>
      <trkpt lat="41.79463" lon="9.20135">
        <ele>1058.777</ele>
        <time>2015-07-06T07:30:58Z</time>
      </trkpt>
      <trkpt lat="41.79453" lon="9.20149">
        <ele>1056.552</ele>
        <time>2015-07-06T07:31:13Z</time>
      </trkpt>
      <trkpt lat="41.79448" lon="9.20169">
        <ele>1053.811</ele>
        <time>2015-07-06T07:31:31Z</time>
      </trkpt>
      <trkpt lat="41.79447" lon="9.20171">
        <ele>1053.826</ele>
        <time>2015-07-06T07:31:32Z</time>
      </trkpt>
      <trkpt lat="41.79447" lon="9.20178">
        <ele>1053.604</ele>
        <time>2015-07-06T07:31:37Z</time>
      </trkpt>
      <trkpt lat="41.79447" lon="9.20207">
        <ele>1052.844</ele>
        <time>2015-07-06T07:31:56Z</time>
      </trkpt>
      <trkpt lat="41.79449" lon="9.20219">
        <ele>1053.75</ele>
        <time>2015-07-06T07:32:13Z</time>
      </trkpt>
      <trkpt lat="41.7945" lon="9.20217">
        <ele>1053.227</ele>
        <time>2015-07-06T07:32:28Z</time>
      </trkpt>
      <trkpt lat="41.79456" lon="9.20216">
        <ele>1051.482</ele>
        <time>2015-07-06T07:32:41Z</time>
      </trkpt>
      <trkpt lat="41.79473" lon="9.20221">
        <ele>1051.429</ele>
        <time>2015-07-06T07:32:59Z</time>
      </trkpt>
      <trkpt lat="41.79482" lon="9.20234">
        <ele>1053.416</ele>
        <time>2015-07-06T07:33:16Z</time>
      </trkpt>
      <trkpt lat="41.79484" lon="9.20252">
        <ele>1056.006</ele>
        <time>2015-07-06T07:33:35Z</time>
      </trkpt>
      <trkpt lat="41.7949" lon="9.20265">
        <ele>1054.256</ele>
        <time>2015-07-06T07:33:51Z</time>
      </trkpt>
      <trkpt lat="41.79493" lon="9.20271">
        <ele>1053.543</ele>
        <time>2015-07-06T07:34:09Z</time>
      </trkpt>
      <trkpt lat="41.79496" lon="9.20274">
        <ele>1053.611</ele>
        <time>2015-07-06T07:34:29Z</time>
      </trkpt>
      <trkpt lat="41.795" lon="9.2028">
        <ele>1052.676</ele>
        <time>2015-07-06T07:35:01Z</time>
      </trkpt>
      <trkpt lat="41.79504" lon="9.20286">
        <ele>1050.563</ele>
        <time>2015-07-06T07:35:18Z</time>
      </trkpt>
      <trkpt lat="41.79521" lon="9.20297">
        <ele>1050.171</ele>
        <time>2015-07-06T07:35:36Z</time>
      </trkpt>
      <trkpt lat="41.79533" lon="9.20304">
        <ele>1051.425</ele>
        <time>2015-07-06T07:35:50Z</time>
      </trkpt>
      <trkpt lat="41.79548" lon="9.20312">
        <ele>1052.053</ele>
        <time>2015-07-06T07:36:07Z</time>
      </trkpt>
      <trkpt lat="41.7956" lon="9.20318">
        <ele>1051.456</ele>
        <time>2015-07-06T07:36:20Z</time>
      </trkpt>
      <trkpt lat="41.79576" lon="9.20321">
        <ele>1054.216</ele>
        <time>2015-07-06T07:36:38Z</time>
      </trkpt>
      <trkpt lat="41.79587" lon="9.20324">
        <ele>1053.881</ele>
        <time>2015-07-06T07:36:53Z</time>
      </trkpt>
      <trkpt lat="41.79599" lon="9.20332">
        <ele>1053.228</ele>
        <time>2015-07-06T07:37:08Z</time>
      </trkpt>
      <trkpt lat="41.79611" lon="9.20343">
        <ele>1052.857</ele>
        <time>2015-07-06T07:37:22Z</time>
      </trkpt>
      <trkpt lat="41.79613" lon="9.20347">
        <ele>1052.694</ele>
        <time>2015-07-06T07:37:26Z</time>
      </trkpt>
      <trkpt lat="41.79623" lon="9.20358">
        <ele>1053.77</ele>
        <time>2015-07-06T07:37:41Z</time>
      </trkpt>
      <trkpt lat="41.79634" lon="9.20376">
        <ele>1051.887</ele>
        <time>2015-07-06T07:37:59Z</time>
      </trkpt>
      <trkpt lat="41.79643" lon="9.20388">
        <ele>1051.162</ele>
        <time>2015-07-06T07:38:13Z</time>
      </trkpt>
      <trkpt lat="41.79651" lon="9.20402">
        <ele>1049.21</ele>
        <time>2015-07-06T07:38:30Z</time>
      </trkpt>
      <trkpt lat="41.79654" lon="9.20406">
        <ele>1047.285</ele>
        <time>2015-07-06T07:38:36Z</time>
      </trkpt>
      <trkpt lat="41.79664" lon="9.20414">
        <ele>1045.998</ele>
        <time>2015-07-06T07:38:49Z</time>
      </trkpt>
      <trkpt lat="41.79675" lon="9.20422">
        <ele>1045.546</ele>
        <time>2015-07-06T07:39:02Z</time>
      </trkpt>
      <trkpt lat="41.79687" lon="9.2043">
        <ele>1044.398</ele>
        <time>2015-07-06T07:39:20Z</time>
      </trkpt>
      <trkpt lat="41.79695" lon="9.20438">
        <ele>1042.112</ele>
        <time>2015-07-06T07:39:30Z</time>
      </trkpt>
      <trkpt lat="41.79699" lon="9.20442">
        <ele>1041.875</ele>
        <time>2015-07-06T07:39:36Z</time>
      </trkpt>
      <trkpt lat="41.79709" lon="9.20446">
        <ele>1042.398</ele>
        <time>2015-07-06T07:39:47Z</time>
      </trkpt>
      <trkpt lat="41.79714" lon="9.2045">
        <ele>1042.868</ele>
        <time>2015-07-06T07:39:53Z</time>
      </trkpt>
      <trkpt lat="41.79726" lon="9.20454">
        <ele>1044.056</ele>
        <time>2015-07-06T07:40:07Z</time>
      </trkpt>
      <trkpt lat="41.79732" lon="9.20454">
        <ele>1044.605</ele>
        <time>2015-07-06T07:40:14Z</time>
      </trkpt>
      <trkpt lat="41.79741" lon="9.20453">
        <ele>1042.576</ele>
        <time>2015-07-06T07:40:24Z</time>
      </trkpt>
      <trkpt lat="41.79752" lon="9.20459">
        <ele>1044.672</ele>
        <time>2015-07-06T07:40:40Z</time>
      </trkpt>
      <trkpt lat="41.7976" lon="9.2047">
        <ele>1044.161</ele>
        <time>2015-07-06T07:40:53Z</time>
      </trkpt>
      <trkpt lat="41.79767" lon="9.20478">
        <ele>1044.732</ele>
        <time>2015-07-06T07:41:09Z</time>
      </trkpt>
      <trkpt lat="41.79777" lon="9.2049">
        <ele>1044.08</ele>
        <time>2015-07-06T07:41:24Z</time>
      </trkpt>
      <trkpt lat="41.79783" lon="9.20494">
        <ele>1044.273</ele>
        <time>2015-07-06T07:41:31Z</time>
      </trkpt>
      <trkpt lat="41.79787" lon="9.20502">
        <ele>1043.399</ele>
        <time>2015-07-06T07:41:42Z</time>
      </trkpt>
      <trkpt lat="41.79794" lon="9.20509">
        <ele>1043.152</ele>
        <time>2015-07-06T07:41:54Z</time>
      </trkpt>
      <trkpt lat="41.79804" lon="9.20514">
        <ele>1042.68</ele>
        <time>2015-07-06T07:42:07Z</time>
      </trkpt>
      <trkpt lat="41.7981" lon="9.2052">
        <ele>1041.641</ele>
        <time>2015-07-06T07:42:21Z</time>
      </trkpt>
      <trkpt lat="41.79817" lon="9.2053">
        <ele>1038.371</ele>
        <time>2015-07-06T07:42:37Z</time>
      </trkpt>
      <trkpt lat="41.79818" lon="9.20531">
        <ele>1038.218</ele>
        <time>2015-07-06T07:42:38Z</time>
      </trkpt>
      <trkpt lat="41.79821" lon="9.20538">
        <ele>1036.082</ele>
        <time>2015-07-06T07:42:54Z</time>
      </trkpt>
      <trkpt lat="41.79825" lon="9.20541">
        <ele>1033.924</ele>
        <time>2015-07-06T07:43:09Z</time>
      </trkpt>
      <trkpt lat="41.79828" lon="9.20548">
        <ele>1031.271</ele>
        <time>2015-07-06T07:43:21Z</time>
      </trkpt>
      <trkpt lat="41.79839" lon="9.20558">
        <ele>1031.763</ele>
        <time>2015-07-06T07:43:32Z</time>
      </trkpt>
      <trkpt lat="41.79851" lon="9.20558">
        <ele>1033.28</ele>
        <time>2015-07-06T07:43:45Z</time>
      </trkpt>
      <trkpt lat="41.79854" lon="9.20556">
        <ele>1036.292</ele>
        <time>2015-07-06T07:44:09Z</time>
      </trkpt>
      <trkpt lat="41.79859" lon="9.20561">
        <ele>1039.322</ele>
        <time>2015-07-06T07:44:35Z</time>
      </trkpt>
      <trkpt lat="41.79868" lon="9.20549">
        <ele>1042.857</ele>
        <time>2015-07-06T07:44:54Z</time>
      </trkpt>
      <trkpt lat="41.79876" lon="9.20554">
        <ele>1043.31</ele>
        <time>2015-07-06T07:45:12Z</time>
      </trkpt>
      <trkpt lat="41.79883" lon="9.20559">
        <ele>1044.344</ele>
        <time>2015-07-06T07:45:33Z</time>
      </trkpt>
      <trkpt lat="41.79888" lon="9.20558">
        <ele>1044.496</ele>
        <time>2015-07-06T07:45:46Z</time>
      </trkpt>
      <trkpt lat="41.7989" lon="9.20562">
        <ele>1044.558</ele>
        <time>2015-07-06T07:45:58Z</time>
      </trkpt>
      <trkpt lat="41.79893" lon="9.20572">
        <ele>1042.992</ele>
        <time>2015-07-06T07:46:10Z</time>
      </trkpt>
      <trkpt lat="41.79895" lon="9.2058">
        <ele>1043.235</ele>
        <time>2015-07-06T07:46:22Z</time>
      </trkpt>
      <trkpt lat="41.79904" lon="9.20587">
        <ele>1046.248</ele>
        <time>2015-07-06T07:46:45Z</time>
      </trkpt>
      <trkpt lat="41.79906" lon="9.20599">
        <ele>1047.844</ele>
        <time>2015-07-06T07:47:08Z</time>
      </trkpt>
      <trkpt lat="41.79906" lon="9.20601">
        <ele>1047.07</ele>
        <time>2015-07-06T07:47:44Z</time>
      </trkpt>
      <trkpt lat="41.79904" lon="9.20607">
        <ele>1046.506</ele>
        <time>2015-07-06T07:48:02Z</time>
      </trkpt>
      <trkpt lat="41.79908" lon="9.20619">
        <ele>1046.201</ele>
        <time>2015-07-06T07:48:20Z</time>
      </trkpt>
      <trkpt lat="41.79903" lon="9.20624">
        <ele>1048.014</ele>
        <time>2015-07-06T07:48:37Z</time>
      </trkpt>
      <trkpt lat="41.79903" lon="9.20629">
        <ele>1049.215</ele>
        <time>2015-07-06T07:48:52Z</time>
      </trkpt>
      <trkpt lat="41.79899" lon="9.20638">
        <ele>1050.298</ele>
        <time>2015-07-06T07:49:05Z</time>
      </trkpt>
      <trkpt lat="41.799" lon="9.20642">
        <ele>1051.876</ele>
        <time>2015-07-06T07:49:18Z</time>
      </trkpt>
      <trkpt lat="41.79896" lon="9.20649">
        <ele>1052.545</ele>
        <time>2015-07-06T07:49:33Z</time>
      </trkpt>
      <trkpt lat="41.79894" lon="9.20655">
        <ele>1053.69</ele>
        <time>2015-07-06T07:49:47Z</time>
      </trkpt>
      <trkpt lat="41.79896" lon="9.20662">
        <ele>1055.414</ele>
        <time>2015-07-06T07:50:01Z</time>
      </trkpt>
      <trkpt lat="41.79902" lon="9.20664">
        <ele>1056.433</ele>
        <time>2015-07-06T07:50:13Z</time>
      </trkpt>
      <trkpt lat="41.79906" lon="9.20665">
        <ele>1058.155</ele>
        <time>2015-07-06T07:50:28Z</time>
      </trkpt>
      <trkpt lat="41.79901" lon="9.20671">
        <ele>1060.181</ele>
        <time>2015-07-06T07:50:42Z</time>
      </trkpt>
      <trkpt lat="41.79901" lon="9.20676">
        <ele>1061.974</ele>
        <time>2015-07-06T07:50:58Z</time>
      </trkpt>
      <trkpt lat="41.79899" lon="9.2068">
        <ele>1063.06</ele>
        <time>2015-07-06T07:51:11Z</time>
      </trkpt>
      <trkpt lat="41.79898" lon="9.20679">
        <ele>1064.941</ele>
        <time>2015-07-06T07:51:25Z</time>
      </trkpt>
      <trkpt lat="41.79895" lon="9.20681">
        <ele>1065.373</ele>
        <time>2015-07-06T07:51:38Z</time>
      </trkpt>
      <trkpt lat="41.7989" lon="9.20682">
        <ele>1066.701</ele>
        <time>2015-07-06T07:51:51Z</time>
      </trkpt>
      <trkpt lat="41.79885" lon="9.20682">
        <ele>1068.476</ele>
        <time>2015-07-06T07:52:04Z</time>
      </trkpt>
      <trkpt lat="41.79882" lon="9.20686">
        <ele>1069.495</ele>
        <time>2015-07-06T07:52:19Z</time>
      </trkpt>
      <trkpt lat="41.79875" lon="9.20688">
        <ele>1071.576</ele>
        <time>2015-07-06T07:52:35Z</time>
      </trkpt>
      <trkpt lat="41.79869" lon="9.20692">
        <ele>1072.57</ele>
        <time>2015-07-06T07:52:52Z</time>
      </trkpt>
      <trkpt lat="41.79865" lon="9.20695">
        <ele>1074.596</ele>
        <time>2015-07-06T07:53:05Z</time>
      </trkpt>
      <trkpt lat="41.7986" lon="9.20696">
        <ele>1076.151</ele>
        <time>2015-07-06T07:53:19Z</time>
      </trkpt>
      <trkpt lat="41.79856" lon="9.20701">
        <ele>1077.145</ele>
        <time>2015-07-06T07:53:32Z</time>
      </trkpt>
      <trkpt lat="41.79853" lon="9.20707">
        <ele>1078.776</ele>
        <time>2015-07-06T07:53:46Z</time>
      </trkpt>
      <trkpt lat="41.79849" lon="9.20705">
        <ele>1079.696</ele>
        <time>2015-07-06T07:53:58Z</time>
      </trkpt>
      <trkpt lat="41.7984" lon="9.20709">
        <ele>1081.201</ele>
        <time>2015-07-06T07:54:13Z</time>
      </trkpt>
      <trkpt lat="41.7983" lon="9.20715">
        <ele>1081.355</ele>
        <time>2015-07-06T07:54:29Z</time>
      </trkpt>
      <trkpt lat="41.79821" lon="9.2072">
        <ele>1081.418</ele>
        <time>2015-07-06T07:54:45Z</time>
      </trkpt>
      <trkpt lat="41.79811" lon="9.20718">
        <ele>1083.024</ele>
        <time>2015-07-06T07:55:00Z</time>
      </trkpt>
      <trkpt lat="41.79806" lon="9.20718">
        <ele>1084.401</ele>
        <time>2015-07-06T07:55:14Z</time>
      </trkpt>
      <trkpt lat="41.79802" lon="9.20721">
        <ele>1086.698</ele>
        <time>2015-07-06T07:55:30Z</time>
      </trkpt>
      <trkpt lat="41.79796" lon="9.2072">
        <ele>1086.93</ele>
        <time>2015-07-06T07:55:45Z</time>
      </trkpt>
      <trkpt lat="41.79793" lon="9.2072">
        <ele>1084.99</ele>
        <time>2015-07-06T07:55:58Z</time>
      </trkpt>
      <trkpt lat="41.79784" lon="9.2072">
        <ele>1083.284</ele>
        <time>2015-07-06T07:56:12Z</time>
      </trkpt>
      <trkpt lat="41.79775" lon="9.20718">
        <ele>1081.853</ele>
        <time>2015-07-06T07:56:25Z</time>
      </trkpt>
      <trkpt lat="41.79771" lon="9.2072">
        <ele>1083.69</ele>
        <time>2015-07-06T07:56:40Z</time>
      </trkpt>
      <trkpt lat="41.79767" lon="9.20721">
        <ele>1084.727</ele>
        <time>2015-07-06T07:56:53Z</time>
      </trkpt>
      <trkpt lat="41.79762" lon="9.20724">
        <ele>1086.417</ele>
        <time>2015-07-06T07:57:07Z</time>
      </trkpt>
      <trkpt lat="41.79759" lon="9.20727">
        <ele>1087.315</ele>
        <time>2015-07-06T07:57:21Z</time>
      </trkpt>
      <trkpt lat="41.79752" lon="9.20723">
        <ele>1088.431</ele>
        <time>2015-07-06T07:57:34Z</time>
      </trkpt>
      <trkpt lat="41.79747" lon="9.20723">
        <ele>1088.179</ele>
        <time>2015-07-06T07:57:48Z</time>
      </trkpt>
      <trkpt lat="41.79744" lon="9.20722">
        <ele>1087.545</ele>
        <time>2015-07-06T07:57:58Z</time>
      </trkpt>
      <trkpt lat="41.79738" lon="9.2072">
        <ele>1084.489</ele>
        <time>2015-07-06T07:58:13Z</time>
      </trkpt>
      <trkpt lat="41.79734" lon="9.20722">
        <ele>1083.349</ele>
        <time>2015-07-06T07:58:26Z</time>
      </trkpt>
      <trkpt lat="41.79727" lon="9.20728">
        <ele>1083.247</ele>
        <time>2015-07-06T07:58:41Z</time>
      </trkpt>
      <trkpt lat="41.79724" lon="9.20735">
        <ele>1084.376</ele>
        <time>2015-07-06T07:58:54Z</time>
      </trkpt>
      <trkpt lat="41.79719" lon="9.20734">
        <ele>1081.36</ele>
        <time>2015-07-06T07:59:08Z</time>
      </trkpt>
      <trkpt lat="41.79713" lon="9.20738">
        <ele>1079.664</ele>
        <time>2015-07-06T07:59:24Z</time>
      </trkpt>
      <trkpt lat="41.79706" lon="9.20743">
        <ele>1077.678</ele>
        <time>2015-07-06T07:59:38Z</time>
      </trkpt>
      <trkpt lat="41.79699" lon="9.2075">
        <ele>1078.752</ele>
        <time>2015-07-06T07:59:52Z</time>
      </trkpt>
      <trkpt lat="41.79696" lon="9.20753">
        <ele>1077.769</ele>
        <time>2015-07-06T07:59:57Z</time>
      </trkpt>
      <trkpt lat="41.79688" lon="9.20756">
        <ele>1077.09</ele>
        <time>2015-07-06T08:00:11Z</time>
      </trkpt>
      <trkpt lat="41.79675" lon="9.20765">
        <ele>1076.808</ele>
        <time>2015-07-06T08:00:26Z</time>
      </trkpt>
      <trkpt lat="41.79667" lon="9.2078">
        <ele>1076.416</ele>
        <time>2015-07-06T08:00:42Z</time>
      </trkpt>
      <trkpt lat="41.7966" lon="9.20783">
        <ele>1074.2</ele>
        <time>2015-07-06T08:00:57Z</time>
      </trkpt>
      <trkpt lat="41.79649" lon="9.20793">
        <ele>1072.893</ele>
        <time>2015-07-06T08:01:11Z</time>
      </trkpt>
      <trkpt lat="41.79642" lon="9.20799">
        <ele>1070.108</ele>
        <time>2015-07-06T08:01:24Z</time>
      </trkpt>
      <trkpt lat="41.79634" lon="9.20807">
        <ele>1069.597</ele>
        <time>2015-07-06T08:01:39Z</time>
      </trkpt>
      <trkpt lat="41.79626" lon="9.20811">
        <ele>1067.12</ele>
        <time>2015-07-06T08:01:54Z</time>
      </trkpt>
      <trkpt lat="41.7962" lon="9.20819">
        <ele>1064.728</ele>
        <time>2015-07-06T08:02:06Z</time>
      </trkpt>
      <trkpt lat="41.79619" lon="9.20822">
        <ele>1063.16</ele>
        <time>2015-07-06T08:02:10Z</time>
      </trkpt>
      <trkpt lat="41.79613" lon="9.20829">
        <ele>1061.565</ele>
        <time>2015-07-06T08:02:23Z</time>
      </trkpt>
      <trkpt lat="41.79605" lon="9.20838">
        <ele>1059.509</ele>
        <time>2015-07-06T08:02:39Z</time>
      </trkpt>
      <trkpt lat="41.79598" lon="9.20844">
        <ele>1058.092</ele>
        <time>2015-07-06T08:02:51Z</time>
      </trkpt>
      <trkpt lat="41.79593" lon="9.20851">
        <ele>1055.603</ele>
        <time>2015-07-06T08:03:06Z</time>
      </trkpt>
      <trkpt lat="41.79588" lon="9.2086">
        <ele>1053.297</ele>
        <time>2015-07-06T08:03:20Z</time>
      </trkpt>
      <trkpt lat="41.79584" lon="9.20866">
        <ele>1051.84</ele>
        <time>2015-07-06T08:03:35Z</time>
      </trkpt>
      <trkpt lat="41.79577" lon="9.20877">
        <ele>1049.361</ele>
        <time>2015-07-06T08:03:51Z</time>
      </trkpt>
      <trkpt lat="41.79574" lon="9.20888">
        <ele>1047.434</ele>
        <time>2015-07-06T08:04:07Z</time>
      </trkpt>
      <trkpt lat="41.79568" lon="9.20897">
        <ele>1046.73</ele>
        <time>2015-07-06T08:04:21Z</time>
      </trkpt>
      <trkpt lat="41.79561" lon="9.20896">
        <ele>1045.475</ele>
        <time>2015-07-06T08:04:36Z</time>
      </trkpt>
      <trkpt lat="41.79554" lon="9.20901">
        <ele>1043.201</ele>
        <time>2015-07-06T08:04:52Z</time>
      </trkpt>
      <trkpt lat="41.79551" lon="9.20901">
        <ele>1041.14</ele>
        <time>2015-07-06T08:05:05Z</time>
      </trkpt>
      <trkpt lat="41.79545" lon="9.20903">
        <ele>1039.371</ele>
        <time>2015-07-06T08:05:19Z</time>
      </trkpt>
      <trkpt lat="41.79544" lon="9.20906">
        <ele>1038.147</ele>
        <time>2015-07-06T08:05:22Z</time>
      </trkpt>
      <trkpt lat="41.79546" lon="9.20912">
        <ele>1037.666</ele>
        <time>2015-07-06T08:05:28Z</time>
      </trkpt>
      <trkpt lat="41.79548" lon="9.20918">
        <ele>1038.422</ele>
        <time>2015-07-06T08:05:34Z</time>
      </trkpt>
      <trkpt lat="41.79549" lon="9.20938">
        <ele>1036.375</ele>
        <time>2015-07-06T08:05:53Z</time>
      </trkpt>
      <trkpt lat="41.79547" lon="9.20939">
        <ele>1036.053</ele>
        <time>2015-07-06T08:06:14Z</time>
      </trkpt>
      <trkpt lat="41.79548" lon="9.20935">
        <ele>1035.862</ele>
        <time>2015-07-06T08:07:02Z</time>
      </trkpt>
      <trkpt lat="41.79548" lon="9.20942">
        <ele>1036.243</ele>
        <time>2015-07-06T08:07:20Z</time>
      </trkpt>
      <trkpt lat="41.79548" lon="9.20946">
        <ele>1037.55</ele>
        <time>2015-07-06T08:07:34Z</time>
      </trkpt>
      <trkpt lat="41.7954" lon="9.20946">
        <ele>1038.058</ele>
        <time>2015-07-06T08:07:49Z</time>
      </trkpt>
      <trkpt lat="41.79532" lon="9.20948">
        <ele>1038.604</ele>
        <time>2015-07-06T08:08:01Z</time>
      </trkpt>
      <trkpt lat="41.79518" lon="9.20956">
        <ele>1039.703</ele>
        <time>2015-07-06T08:08:18Z</time>
      </trkpt>
      <trkpt lat="41.79515" lon="9.20957">
        <ele>1039.765</ele>
        <time>2015-07-06T08:08:21Z</time>
      </trkpt>
      <trkpt lat="41.79504" lon="9.20966">
        <ele>1041.036</ele>
        <time>2015-07-06T08:08:34Z</time>
      </trkpt>
      <trkpt lat="41.795" lon="9.20966">
        <ele>1040.647</ele>
        <time>2015-07-06T08:08:37Z</time>
      </trkpt>
      <trkpt lat="41.79489" lon="9.20971">
        <ele>1040.252</ele>
        <time>2015-07-06T08:08:52Z</time>
      </trkpt>
      <trkpt lat="41.79477" lon="9.20983">
        <ele>1038.647</ele>
        <time>2015-07-06T08:09:09Z</time>
      </trkpt>
      <trkpt lat="41.79472" lon="9.20987">
        <ele>1039.262</ele>
        <time>2015-07-06T08:09:22Z</time>
      </trkpt>
      <trkpt lat="41.79463" lon="9.20985">
        <ele>1039.141</ele>
        <time>2015-07-06T08:09:34Z</time>
      </trkpt>
      <trkpt lat="41.79455" lon="9.20983">
        <ele>1038.208</ele>
        <time>2015-07-06T08:09:42Z</time>
      </trkpt>
      <trkpt lat="41.79448" lon="9.20982">
        <ele>1037.329</ele>
        <time>2015-07-06T08:09:49Z</time>
      </trkpt>
      <trkpt lat="41.79437" lon="9.20997">
        <ele>1035.051</ele>
        <time>2015-07-06T08:10:04Z</time>
      </trkpt>
      <trkpt lat="41.79429" lon="9.21007">
        <ele>1033.893</ele>
        <time>2015-07-06T08:10:18Z</time>
      </trkpt>
      <trkpt lat="41.79422" lon="9.21008">
        <ele>1031.344</ele>
        <time>2015-07-06T08:10:31Z</time>
      </trkpt>
      <trkpt lat="41.79418" lon="9.21009">
        <ele>1030.217</ele>
        <time>2015-07-06T08:10:38Z</time>
      </trkpt>
      <trkpt lat="41.79407" lon="9.21019">
        <ele>1029.552</ele>
        <time>2015-07-06T08:10:54Z</time>
      </trkpt>
      <trkpt lat="41.79399" lon="9.21023">
        <ele>1029.803</ele>
        <time>2015-07-06T08:11:07Z</time>
      </trkpt>
      <trkpt lat="41.79393" lon="9.21019">
        <ele>1029.745</ele>
        <time>2015-07-06T08:11:20Z</time>
      </trkpt>
      <trkpt lat="41.79383" lon="9.21019">
        <ele>1030.931</ele>
        <time>2015-07-06T08:11:33Z</time>
      </trkpt>
      <trkpt lat="41.79379" lon="9.21021">
        <ele>1031.391</ele>
        <time>2015-07-06T08:11:37Z</time>
      </trkpt>
      <trkpt lat="41.79363" lon="9.21023">
        <ele>1031.272</ele>
        <time>2015-07-06T08:11:54Z</time>
      </trkpt>
      <trkpt lat="41.79352" lon="9.21026">
        <ele>1031.46</ele>
        <time>2015-07-06T08:12:11Z</time>
      </trkpt>
      <trkpt lat="41.79346" lon="9.21029">
        <ele>1029.924</ele>
        <time>2015-07-06T08:12:26Z</time>
      </trkpt>
      <trkpt lat="41.79345" lon="9.21029">
        <ele>1029.856</ele>
        <time>2015-07-06T08:12:27Z</time>
      </trkpt>
      <trkpt lat="41.79333" lon="9.21027">
        <ele>1029.6</ele>
        <time>2015-07-06T08:12:42Z</time>
      </trkpt>
      <trkpt lat="41.7932" lon="9.21023">
        <ele>1029.715</ele>
        <time>2015-07-06T08:12:58Z</time>
      </trkpt>
      <trkpt lat="41.7931" lon="9.21025">
        <ele>1030.192</ele>
        <time>2015-07-06T08:13:14Z</time>
      </trkpt>
      <trkpt lat="41.79307" lon="9.21023">
        <ele>1029.189</ele>
        <time>2015-07-06T08:13:19Z</time>
      </trkpt>
      <trkpt lat="41.79298" lon="9.2102">
        <ele>1029.439</ele>
        <time>2015-07-06T08:13:30Z</time>
      </trkpt>
      <trkpt lat="41.7929" lon="9.21023">
        <ele>1028.674</ele>
        <time>2015-07-06T08:13:41Z</time>
      </trkpt>
      <trkpt lat="41.79277" lon="9.21023">
        <ele>1029.428</ele>
        <time>2015-07-06T08:14:01Z</time>
      </trkpt>
      <trkpt lat="41.79267" lon="9.21024">
        <ele>1028.618</ele>
        <time>2015-07-06T08:14:15Z</time>
      </trkpt>
      <trkpt lat="41.79261" lon="9.21025">
        <ele>1027.614</ele>
        <time>2015-07-06T08:14:27Z</time>
      </trkpt>
      <trkpt lat="41.79254" lon="9.21029">
        <ele>1026.537</ele>
        <time>2015-07-06T08:14:40Z</time>
      </trkpt>
      <trkpt lat="41.79242" lon="9.21035">
        <ele>1027.357</ele>
        <time>2015-07-06T08:14:58Z</time>
      </trkpt>
      <trkpt lat="41.79234" lon="9.21039">
        <ele>1027.018</ele>
        <time>2015-07-06T08:15:11Z</time>
      </trkpt>
      <trkpt lat="41.79228" lon="9.21043">
        <ele>1028.337</ele>
        <time>2015-07-06T08:15:25Z</time>
      </trkpt>
      <trkpt lat="41.79218" lon="9.21047">
        <ele>1029.317</ele>
        <time>2015-07-06T08:15:38Z</time>
      </trkpt>
      <trkpt lat="41.79213" lon="9.21044">
        <ele>1030.534</ele>
        <time>2015-07-06T08:15:52Z</time>
      </trkpt>
      <trkpt lat="41.79207" lon="9.21042">
        <ele>1031.641</ele>
        <time>2015-07-06T08:16:06Z</time>
      </trkpt>
      <trkpt lat="41.79203" lon="9.21051">
        <ele>1033.333</ele>
        <time>2015-07-06T08:16:20Z</time>
      </trkpt>
      <trkpt lat="41.792" lon="9.21049">
        <ele>1034.942</ele>
        <time>2015-07-06T08:16:33Z</time>
      </trkpt>
      <trkpt lat="41.79198" lon="9.21054">
        <ele>1036.135</ele>
        <time>2015-07-06T08:16:42Z</time>
      </trkpt>
      <trkpt lat="41.79196" lon="9.21056">
        <ele>1037.283</ele>
        <time>2015-07-06T08:16:52Z</time>
      </trkpt>
      <trkpt lat="41.79193" lon="9.21061">
        <ele>1039.067</ele>
        <time>2015-07-06T08:17:05Z</time>
      </trkpt>
      <trkpt lat="41.7919" lon="9.21066">
        <ele>1040.267</ele>
        <time>2015-07-06T08:17:19Z</time>
      </trkpt>
      <trkpt lat="41.79187" lon="9.21069">
        <ele>1041.948</ele>
        <time>2015-07-06T08:17:31Z</time>
      </trkpt>
      <trkpt lat="41.79182" lon="9.21071">
        <ele>1042.77</ele>
        <time>2015-07-06T08:17:44Z</time>
      </trkpt>
      <trkpt lat="41.79175" lon="9.2108">
        <ele>1041.484</ele>
        <time>2015-07-06T08:17:58Z</time>
      </trkpt>
      <trkpt lat="41.79171" lon="9.21089">
        <ele>1042.459</ele>
        <time>2015-07-06T08:18:12Z</time>
      </trkpt>
      <trkpt lat="41.79169" lon="9.21091">
        <ele>1042.192</ele>
        <time>2015-07-06T08:18:15Z</time>
      </trkpt>
      <trkpt lat="41.79158" lon="9.211">
        <ele>1041.503</ele>
        <time>2015-07-06T08:18:30Z</time>
      </trkpt>
      <trkpt lat="41.79148" lon="9.21108">
        <ele>1042.571</ele>
        <time>2015-07-06T08:18:46Z</time>
      </trkpt>
      <trkpt lat="41.7914" lon="9.2112">
        <ele>1043.91</ele>
        <time>2015-07-06T08:19:02Z</time>
      </trkpt>
      <trkpt lat="41.79133" lon="9.21128">
        <ele>1043.612</ele>
        <time>2015-07-06T08:19:17Z</time>
      </trkpt>
      <trkpt lat="41.79129" lon="9.21134">
        <ele>1044.9</ele>
        <time>2015-07-06T08:19:30Z</time>
      </trkpt>
      <trkpt lat="41.79127" lon="9.21143">
        <ele>1046.855</ele>
        <time>2015-07-06T08:19:43Z</time>
      </trkpt>
      <trkpt lat="41.79125" lon="9.21145">
        <ele>1046.61</ele>
        <time>2015-07-06T08:19:45Z</time>
      </trkpt>
      <trkpt lat="41.79127" lon="9.21165">
        <ele>1046.65</ele>
        <time>2015-07-06T08:20:03Z</time>
      </trkpt>
      <trkpt lat="41.79135" lon="9.21187">
        <ele>1047.856</ele>
        <time>2015-07-06T08:20:23Z</time>
      </trkpt>
      <trkpt lat="41.79138" lon="9.21198">
        <ele>1048.814</ele>
        <time>2015-07-06T08:20:39Z</time>
      </trkpt>
      <trkpt lat="41.79139" lon="9.21209">
        <ele>1050.672</ele>
        <time>2015-07-06T08:20:54Z</time>
      </trkpt>
      <trkpt lat="41.79141" lon="9.21222">
        <ele>1051.027</ele>
        <time>2015-07-06T08:21:06Z</time>
      </trkpt>
      <trkpt lat="41.79148" lon="9.21238">
        <ele>1051.935</ele>
        <time>2015-07-06T08:21:21Z</time>
      </trkpt>
      <trkpt lat="41.79153" lon="9.21251">
        <ele>1052.289</ele>
        <time>2015-07-06T08:21:37Z</time>
      </trkpt>
      <trkpt lat="41.79162" lon="9.21262">
        <ele>1053.028</ele>
        <time>2015-07-06T08:21:51Z</time>
      </trkpt>
      <trkpt lat="41.79168" lon="9.21272">
        <ele>1052.871</ele>
        <time>2015-07-06T08:22:04Z</time>
      </trkpt>
      <trkpt lat="41.79173" lon="9.21283">
        <ele>1052.62</ele>
        <time>2015-07-06T08:22:33Z</time>
      </trkpt>
      <trkpt lat="41.79187" lon="9.21293">
        <ele>1051.191</ele>
        <time>2015-07-06T08:22:50Z</time>
      </trkpt>
      <trkpt lat="41.79197" lon="9.21306">
        <ele>1050.618</ele>
        <time>2015-07-06T08:23:06Z</time>
      </trkpt>
      <trkpt lat="41.79206" lon="9.21309">
        <ele>1050.797</ele>
        <time>2015-07-06T08:23:19Z</time>
      </trkpt>
      <trkpt lat="41.7921" lon="9.21313">
        <ele>1050.178</ele>
        <time>2015-07-06T08:23:27Z</time>
      </trkpt>
      <trkpt lat="41.79221" lon="9.21325">
        <ele>1049.776</ele>
        <time>2015-07-06T08:23:44Z</time>
      </trkpt>
      <trkpt lat="41.79226" lon="9.21331">
        <ele>1050.449</ele>
        <time>2015-07-06T08:23:55Z</time>
      </trkpt>
      <trkpt lat="41.79229" lon="9.21336">
        <ele>1051.482</ele>
        <time>2015-07-06T08:24:09Z</time>
      </trkpt>
      <trkpt lat="41.79229" lon="9.21336">
        <ele>1052.103</ele>
        <time>2015-07-06T08:24:25Z</time>
      </trkpt>
      <trkpt lat="41.79226" lon="9.21338">
        <ele>1051.516</ele>
        <time>2015-07-06T08:25:03Z</time>
      </trkpt>
      <trkpt lat="41.79234" lon="9.21332">
        <ele>1050.374</ele>
        <time>2015-07-06T08:25:54Z</time>
      </trkpt>
      <trkpt lat="41.79231" lon="9.21349">
        <ele>1051.119</ele>
        <time>2015-07-06T08:26:25Z</time>
      </trkpt>
      <trkpt lat="41.79231" lon="9.21347">
        <ele>1052.142</ele>
        <time>2015-07-06T08:26:50Z</time>
      </trkpt>
      <trkpt lat="41.79229" lon="9.21343">
        <ele>1051.44</ele>
        <time>2015-07-06T08:27:48Z</time>
      </trkpt>
      <trkpt lat="41.79228" lon="9.21339">
        <ele>1051.71</ele>
        <time>2015-07-06T08:28:25Z</time>
      </trkpt>
      <trkpt lat="41.7923" lon="9.21328">
        <ele>1051.957</ele>
        <time>2015-07-06T08:29:27Z</time>
      </trkpt>
      <trkpt lat="41.79228" lon="9.2133">
        <ele>1051.288</ele>
        <time>2015-07-06T08:31:15Z</time>
      </trkpt>
      <trkpt lat="41.79229" lon="9.21335">
        <ele>1051.463</ele>
        <time>2015-07-06T08:31:34Z</time>
      </trkpt>
      <trkpt lat="41.79231" lon="9.21345">
        <ele>1050.941</ele>
        <time>2015-07-06T08:32:03Z</time>
      </trkpt>
      <trkpt lat="41.79227" lon="9.21342">
        <ele>1051.6</ele>
        <time>2015-07-06T08:32:31Z</time>
      </trkpt>
      <trkpt lat="41.79224" lon="9.2134">
        <ele>1052.352</ele>
        <time>2015-07-06T08:33:07Z</time>
      </trkpt>
      <trkpt lat="41.7923" lon="9.21347">
        <ele>1052.445</ele>
        <time>2015-07-06T08:33:29Z</time>
      </trkpt>
      <trkpt lat="41.79237" lon="9.21358">
        <ele>1054.214</ele>
        <time>2015-07-06T08:33:47Z</time>
      </trkpt>
      <trkpt lat="41.79239" lon="9.21367">
        <ele>1053.984</ele>
        <time>2015-07-06T08:34:03Z</time>
      </trkpt>
      <trkpt lat="41.79242" lon="9.21379">
        <ele>1054.513</ele>
        <time>2015-07-06T08:34:17Z</time>
      </trkpt>
      <trkpt lat="41.79243" lon="9.21384">
        <ele>1054.449</ele>
        <time>2015-07-06T08:34:22Z</time>
      </trkpt>
      <trkpt lat="41.79246" lon="9.21397">
        <ele>1055.12</ele>
        <time>2015-07-06T08:34:38Z</time>
      </trkpt>
      <trkpt lat="41.79254" lon="9.21401">
        <ele>1055.773</ele>
        <time>2015-07-06T08:35:08Z</time>
      </trkpt>
      <trkpt lat="41.79262" lon="9.21406">
        <ele>1056.754</ele>
        <time>2015-07-06T08:35:22Z</time>
      </trkpt>
      <trkpt lat="41.7927" lon="9.21412">
        <ele>1058.658</ele>
        <time>2015-07-06T08:35:38Z</time>
      </trkpt>
      <trkpt lat="41.79272" lon="9.21418">
        <ele>1059.042</ele>
        <time>2015-07-06T08:35:51Z</time>
      </trkpt>
      <trkpt lat="41.79277" lon="9.21429">
        <ele>1059.094</ele>
        <time>2015-07-06T08:36:04Z</time>
      </trkpt>
      <trkpt lat="41.79285" lon="9.21446">
        <ele>1058.393</ele>
        <time>2015-07-06T08:36:21Z</time>
      </trkpt>
      <trkpt lat="41.79293" lon="9.21456">
        <ele>1060.307</ele>
        <time>2015-07-06T08:36:36Z</time>
      </trkpt>
      <trkpt lat="41.79297" lon="9.21463">
        <ele>1062.553</ele>
        <time>2015-07-06T08:36:52Z</time>
      </trkpt>
      <trkpt lat="41.79299" lon="9.21477">
        <ele>1062.559</ele>
        <time>2015-07-06T08:37:07Z</time>
      </trkpt>
      <trkpt lat="41.79302" lon="9.21485">
        <ele>1062.075</ele>
        <time>2015-07-06T08:37:24Z</time>
      </trkpt>
      <trkpt lat="41.79306" lon="9.21493">
        <ele>1062.81</ele>
        <time>2015-07-06T08:37:39Z</time>
      </trkpt>
      <trkpt lat="41.79302" lon="9.215">
        <ele>1060.685</ele>
        <time>2015-07-06T08:37:52Z</time>
      </trkpt>
      <trkpt lat="41.79301" lon="9.21505">
        <ele>1059.551</ele>
        <time>2015-07-06T08:37:56Z</time>
      </trkpt>
      <trkpt lat="41.79297" lon="9.21518">
        <ele>1059.468</ele>
        <time>2015-07-06T08:38:11Z</time>
      </trkpt>
      <trkpt lat="41.79296" lon="9.21531">
        <ele>1060.684</ele>
        <time>2015-07-06T08:38:26Z</time>
      </trkpt>
      <trkpt lat="41.7929" lon="9.21546">
        <ele>1060.594</ele>
        <time>2015-07-06T08:38:43Z</time>
      </trkpt>
      <trkpt lat="41.79289" lon="9.21551">
        <ele>1062.627</ele>
        <time>2015-07-06T08:38:51Z</time>
      </trkpt>
      <trkpt lat="41.79289" lon="9.21557">
        <ele>1064.452</ele>
        <time>2015-07-06T08:39:06Z</time>
      </trkpt>
      <trkpt lat="41.79291" lon="9.21568">
        <ele>1064.823</ele>
        <time>2015-07-06T08:39:20Z</time>
      </trkpt>
      <trkpt lat="41.79294" lon="9.21581">
        <ele>1065.706</ele>
        <time>2015-07-06T08:39:35Z</time>
      </trkpt>
      <trkpt lat="41.79295" lon="9.21593">
        <ele>1067.762</ele>
        <time>2015-07-06T08:39:51Z</time>
      </trkpt>
      <trkpt lat="41.79293" lon="9.21605">
        <ele>1068.978</ele>
        <time>2015-07-06T08:40:08Z</time>
      </trkpt>
      <trkpt lat="41.79295" lon="9.21611">
        <ele>1069.955</ele>
        <time>2015-07-06T08:40:22Z</time>
      </trkpt>
      <trkpt lat="41.79297" lon="9.21618">
        <ele>1071.039</ele>
        <time>2015-07-06T08:40:35Z</time>
      </trkpt>
      <trkpt lat="41.79303" lon="9.21624">
        <ele>1072.628</ele>
        <time>2015-07-06T08:40:51Z</time>
      </trkpt>
      <trkpt lat="41.79308" lon="9.21629">
        <ele>1073.543</ele>
        <time>2015-07-06T08:41:05Z</time>
      </trkpt>
      <trkpt lat="41.7931" lon="9.21638">
        <ele>1074.466</ele>
        <time>2015-07-06T08:41:19Z</time>
      </trkpt>
      <trkpt lat="41.79315" lon="9.21644">
        <ele>1076.256</ele>
        <time>2015-07-06T08:41:32Z</time>
      </trkpt>
      <trkpt lat="41.79324" lon="9.21652">
        <ele>1077.41</ele>
        <time>2015-07-06T08:41:47Z</time>
      </trkpt>
      <trkpt lat="41.79333" lon="9.21654">
        <ele>1078.58</ele>
        <time>2015-07-06T08:42:02Z</time>
      </trkpt>
      <trkpt lat="41.79344" lon="9.21662">
        <ele>1079.218</ele>
        <time>2015-07-06T08:42:16Z</time>
      </trkpt>
      <trkpt lat="41.79352" lon="9.21665">
        <ele>1080.595</ele>
        <time>2015-07-06T08:42:30Z</time>
      </trkpt>
      <trkpt lat="41.79359" lon="9.21671">
        <ele>1082.397</ele>
        <time>2015-07-06T08:42:46Z</time>
      </trkpt>
      <trkpt lat="41.79367" lon="9.21675">
        <ele>1083.367</ele>
        <time>2015-07-06T08:42:59Z</time>
      </trkpt>
      <trkpt lat="41.79376" lon="9.21678">
        <ele>1085.044</ele>
        <time>2015-07-06T08:43:16Z</time>
      </trkpt>
      <trkpt lat="41.79382" lon="9.21682">
        <ele>1085.688</ele>
        <time>2015-07-06T08:43:30Z</time>
      </trkpt>
      <trkpt lat="41.79389" lon="9.21689">
        <ele>1086.622</ele>
        <time>2015-07-06T08:43:45Z</time>
      </trkpt>
      <trkpt lat="41.79395" lon="9.21699">
        <ele>1087.447</ele>
        <time>2015-07-06T08:43:59Z</time>
      </trkpt>
      <trkpt lat="41.79402" lon="9.21707">
        <ele>1088.266</ele>
        <time>2015-07-06T08:44:14Z</time>
      </trkpt>
      <trkpt lat="41.79409" lon="9.21716">
        <ele>1089.791</ele>
        <time>2015-07-06T08:44:26Z</time>
      </trkpt>
      <trkpt lat="41.79415" lon="9.2172">
        <ele>1091.128</ele>
        <time>2015-07-06T08:44:39Z</time>
      </trkpt>
      <trkpt lat="41.79421" lon="9.21721">
        <ele>1090.879</ele>
        <time>2015-07-06T08:44:58Z</time>
      </trkpt>
      <trkpt lat="41.79425" lon="9.21723">
        <ele>1091.15</ele>
        <time>2015-07-06T08:45:05Z</time>
      </trkpt>
      <trkpt lat="41.79438" lon="9.21724">
        <ele>1090.904</ele>
        <time>2015-07-06T08:45:22Z</time>
      </trkpt>
      <trkpt lat="41.79441" lon="9.21726">
        <ele>1091.37</ele>
        <time>2015-07-06T08:45:32Z</time>
      </trkpt>
      <trkpt lat="41.79451" lon="9.21733">
        <ele>1091.036</ele>
        <time>2015-07-06T08:45:46Z</time>
      </trkpt>
      <trkpt lat="41.79463" lon="9.21738">
        <ele>1089.926</ele>
        <time>2015-07-06T08:46:03Z</time>
      </trkpt>
      <trkpt lat="41.79467" lon="9.21743">
        <ele>1089.266</ele>
        <time>2015-07-06T08:46:14Z</time>
      </trkpt>
      <trkpt lat="41.7947" lon="9.21746">
        <ele>1087.991</ele>
        <time>2015-07-06T08:46:28Z</time>
      </trkpt>
      <trkpt lat="41.79472" lon="9.21746">
        <ele>1087.631</ele>
        <time>2015-07-06T08:46:44Z</time>
      </trkpt>
      <trkpt lat="41.79472" lon="9.21749">
        <ele>1087.415</ele>
        <time>2015-07-06T08:47:04Z</time>
      </trkpt>
      <trkpt lat="41.79473" lon="9.21751">
        <ele>1087.522</ele>
        <time>2015-07-06T08:47:18Z</time>
      </trkpt>
      <trkpt lat="41.7947" lon="9.21761">
        <ele>1087.484</ele>
        <time>2015-07-06T08:47:30Z</time>
      </trkpt>
      <trkpt lat="41.7947" lon="9.2177">
        <ele>1088.977</ele>
        <time>2015-07-06T08:47:46Z</time>
      </trkpt>
      <trkpt lat="41.79471" lon="9.21776">
        <ele>1088.841</ele>
        <time>2015-07-06T08:47:58Z</time>
      </trkpt>
      <trkpt lat="41.79471" lon="9.21783">
        <ele>1090.564</ele>
        <time>2015-07-06T08:48:12Z</time>
      </trkpt>
      <trkpt lat="41.79468" lon="9.21789">
        <ele>1090.502</ele>
        <time>2015-07-06T08:48:25Z</time>
      </trkpt>
      <trkpt lat="41.79469" lon="9.21804">
        <ele>1090.993</ele>
        <time>2015-07-06T08:48:42Z</time>
      </trkpt>
      <trkpt lat="41.79467" lon="9.21811">
        <ele>1092.833</ele>
        <time>2015-07-06T08:48:56Z</time>
      </trkpt>
      <trkpt lat="41.79467" lon="9.21818">
        <ele>1092.989</ele>
        <time>2015-07-06T08:49:07Z</time>
      </trkpt>
      <trkpt lat="41.79465" lon="9.21834">
        <ele>1091.569</ele>
        <time>2015-07-06T08:49:23Z</time>
      </trkpt>
      <trkpt lat="41.7947" lon="9.21846">
        <ele>1091.589</ele>
        <time>2015-07-06T08:49:41Z</time>
      </trkpt>
      <trkpt lat="41.79475" lon="9.21858">
        <ele>1092.92</ele>
        <time>2015-07-06T08:49:58Z</time>
      </trkpt>
      <trkpt lat="41.79481" lon="9.21864">
        <ele>1094.539</ele>
        <time>2015-07-06T08:50:12Z</time>
      </trkpt>
      <trkpt lat="41.79484" lon="9.2187">
        <ele>1096.575</ele>
        <time>2015-07-06T08:50:28Z</time>
      </trkpt>
      <trkpt lat="41.79487" lon="9.21873">
        <ele>1097.59</ele>
        <time>2015-07-06T08:50:42Z</time>
      </trkpt>
      <trkpt lat="41.79489" lon="9.21879">
        <ele>1097.81</ele>
        <time>2015-07-06T08:50:56Z</time>
      </trkpt>
      <trkpt lat="41.79493" lon="9.21882">
        <ele>1099.731</ele>
        <time>2015-07-06T08:51:10Z</time>
      </trkpt>
      <trkpt lat="41.79495" lon="9.21887">
        <ele>1099.957</ele>
        <time>2015-07-06T08:51:23Z</time>
      </trkpt>
      <trkpt lat="41.795" lon="9.21893">
        <ele>1101.145</ele>
        <time>2015-07-06T08:51:36Z</time>
      </trkpt>
      <trkpt lat="41.79502" lon="9.21898">
        <ele>1101.798</ele>
        <time>2015-07-06T08:51:49Z</time>
      </trkpt>
      <trkpt lat="41.79504" lon="9.21903">
        <ele>1103.143</ele>
        <time>2015-07-06T08:52:02Z</time>
      </trkpt>
      <trkpt lat="41.79505" lon="9.21905">
        <ele>1104.337</ele>
        <time>2015-07-06T08:52:18Z</time>
      </trkpt>
      <trkpt lat="41.79509" lon="9.21903">
        <ele>1105.084</ele>
        <time>2015-07-06T08:52:44Z</time>
      </trkpt>
      <trkpt lat="41.7951" lon="9.21903">
        <ele>1105.922</ele>
        <time>2015-07-06T08:52:59Z</time>
      </trkpt>
      <trkpt lat="41.79511" lon="9.21907">
        <ele>1107.226</ele>
        <time>2015-07-06T08:53:12Z</time>
      </trkpt>
      <trkpt lat="41.79514" lon="9.21906">
        <ele>1108.017</ele>
        <time>2015-07-06T08:53:24Z</time>
      </trkpt>
      <trkpt lat="41.79515" lon="9.21904">
        <ele>1109.139</ele>
        <time>2015-07-06T08:53:37Z</time>
      </trkpt>
      <trkpt lat="41.79516" lon="9.21901">
        <ele>1109.801</ele>
        <time>2015-07-06T08:53:49Z</time>
      </trkpt>
      <trkpt lat="41.79517" lon="9.21899">
        <ele>1112.339</ele>
        <time>2015-07-06T08:54:04Z</time>
      </trkpt>
      <trkpt lat="41.7952" lon="9.219">
        <ele>1112.581</ele>
        <time>2015-07-06T08:54:18Z</time>
      </trkpt>
      <trkpt lat="41.79521" lon="9.219">
        <ele>1113.65</ele>
        <time>2015-07-06T08:54:32Z</time>
      </trkpt>
      <trkpt lat="41.79523" lon="9.219">
        <ele>1114.506</ele>
        <time>2015-07-06T08:54:45Z</time>
      </trkpt>
      <trkpt lat="41.79525" lon="9.21898">
        <ele>1116.449</ele>
        <time>2015-07-06T08:54:58Z</time>
      </trkpt>
      <trkpt lat="41.79527" lon="9.21899">
        <ele>1117.48</ele>
        <time>2015-07-06T08:55:10Z</time>
      </trkpt>
      <trkpt lat="41.79529" lon="9.21896">
        <ele>1118.787</ele>
        <time>2015-07-06T08:55:22Z</time>
      </trkpt>
      <trkpt lat="41.79529" lon="9.21895">
        <ele>1119.973</ele>
        <time>2015-07-06T08:55:35Z</time>
      </trkpt>
      <trkpt lat="41.79531" lon="9.21898">
        <ele>1121.866</ele>
        <time>2015-07-06T08:55:48Z</time>
      </trkpt>
      <trkpt lat="41.79534" lon="9.21902">
        <ele>1122.723</ele>
        <time>2015-07-06T08:56:01Z</time>
      </trkpt>
      <trkpt lat="41.79538" lon="9.21906">
        <ele>1123.505</ele>
        <time>2015-07-06T08:56:13Z</time>
      </trkpt>
      <trkpt lat="41.79543" lon="9.21909">
        <ele>1124.2</ele>
        <time>2015-07-06T08:56:26Z</time>
      </trkpt>
      <trkpt lat="41.79547" lon="9.21911">
        <ele>1125.523</ele>
        <time>2015-07-06T08:56:38Z</time>
      </trkpt>
      <trkpt lat="41.79549" lon="9.21912">
        <ele>1126.146</ele>
        <time>2015-07-06T08:56:51Z</time>
      </trkpt>
      <trkpt lat="41.79552" lon="9.21915">
        <ele>1127.803</ele>
        <time>2015-07-06T08:57:06Z</time>
      </trkpt>
      <trkpt lat="41.79555" lon="9.21918">
        <ele>1129.212</ele>
        <time>2015-07-06T08:57:20Z</time>
      </trkpt>
      <trkpt lat="41.79557" lon="9.21919">
        <ele>1130.092</ele>
        <time>2015-07-06T08:57:32Z</time>
      </trkpt>
      <trkpt lat="41.79558" lon="9.21923">
        <ele>1130.994</ele>
        <time>2015-07-06T08:57:45Z</time>
      </trkpt>
      <trkpt lat="41.7956" lon="9.21927">
        <ele>1132.118</ele>
        <time>2015-07-06T08:57:57Z</time>
      </trkpt>
      <trkpt lat="41.79562" lon="9.21931">
        <ele>1131.286</ele>
        <time>2015-07-06T08:58:10Z</time>
      </trkpt>
      <trkpt lat="41.79564" lon="9.21935">
        <ele>1133.19</ele>
        <time>2015-07-06T08:58:25Z</time>
      </trkpt>
      <trkpt lat="41.79569" lon="9.21939">
        <ele>1134.87</ele>
        <time>2015-07-06T08:58:40Z</time>
      </trkpt>
      <trkpt lat="41.79571" lon="9.21942">
        <ele>1135.966</ele>
        <time>2015-07-06T08:58:52Z</time>
      </trkpt>
      <trkpt lat="41.79571" lon="9.21942">
        <ele>1136.981</ele>
        <time>2015-07-06T08:59:06Z</time>
      </trkpt>
      <trkpt lat="41.79573" lon="9.21943">
        <ele>1138.471</ele>
        <time>2015-07-06T08:59:21Z</time>
      </trkpt>
      <trkpt lat="41.79576" lon="9.21944">
        <ele>1140.024</ele>
        <time>2015-07-06T08:59:33Z</time>
      </trkpt>
      <trkpt lat="41.79578" lon="9.2195">
        <ele>1140.629</ele>
        <time>2015-07-06T08:59:45Z</time>
      </trkpt>
      <trkpt lat="41.7958" lon="9.21954">
        <ele>1141.608</ele>
        <time>2015-07-06T08:59:59Z</time>
      </trkpt>
      <trkpt lat="41.79582" lon="9.21959">
        <ele>1142.734</ele>
        <time>2015-07-06T09:00:13Z</time>
      </trkpt>
      <trkpt lat="41.79584" lon="9.21964">
        <ele>1144.52</ele>
        <time>2015-07-06T09:00:29Z</time>
      </trkpt>
      <trkpt lat="41.79586" lon="9.21967">
        <ele>1145.117</ele>
        <time>2015-07-06T09:00:40Z</time>
      </trkpt>
      <trkpt lat="41.79589" lon="9.21971">
        <ele>1146.32</ele>
        <time>2015-07-06T09:00:53Z</time>
      </trkpt>
      <trkpt lat="41.79591" lon="9.21975">
        <ele>1147.341</ele>
        <time>2015-07-06T09:01:06Z</time>
      </trkpt>
      <trkpt lat="41.79591" lon="9.21979">
        <ele>1148.009</ele>
        <time>2015-07-06T09:01:19Z</time>
      </trkpt>
      <trkpt lat="41.79592" lon="9.21982">
        <ele>1149.436</ele>
        <time>2015-07-06T09:01:32Z</time>
      </trkpt>
      <trkpt lat="41.79594" lon="9.21983">
        <ele>1149.325</ele>
        <time>2015-07-06T09:01:47Z</time>
      </trkpt>
      <trkpt lat="41.79595" lon="9.21987">
        <ele>1149.505</ele>
        <time>2015-07-06T09:01:58Z</time>
      </trkpt>
      <trkpt lat="41.79595" lon="9.21991">
        <ele>1150.055</ele>
        <time>2015-07-06T09:02:11Z</time>
      </trkpt>
      <trkpt lat="41.79598" lon="9.21993">
        <ele>1153.188</ele>
        <time>2015-07-06T09:02:24Z</time>
      </trkpt>
      <trkpt lat="41.796" lon="9.21995">
        <ele>1154.001</ele>
        <time>2015-07-06T09:02:37Z</time>
      </trkpt>
      <trkpt lat="41.79602" lon="9.21997">
        <ele>1154.962</ele>
        <time>2015-07-06T09:02:51Z</time>
      </trkpt>
      <trkpt lat="41.79604" lon="9.21999">
        <ele>1155.649</ele>
        <time>2015-07-06T09:03:06Z</time>
      </trkpt>
      <trkpt lat="41.79605" lon="9.22004">
        <ele>1156.722</ele>
        <time>2015-07-06T09:03:20Z</time>
      </trkpt>
      <trkpt lat="41.79608" lon="9.22009">
        <ele>1157.384</ele>
        <time>2015-07-06T09:03:32Z</time>
      </trkpt>
      <trkpt lat="41.79614" lon="9.22012">
        <ele>1158.232</ele>
        <time>2015-07-06T09:03:47Z</time>
      </trkpt>
      <trkpt lat="41.79616" lon="9.22014">
        <ele>1159.798</ele>
        <time>2015-07-06T09:04:01Z</time>
      </trkpt>
      <trkpt lat="41.79618" lon="9.22018">
        <ele>1159.918</ele>
        <time>2015-07-06T09:04:13Z</time>
      </trkpt>
      <trkpt lat="41.79625" lon="9.22027">
        <ele>1158.989</ele>
        <time>2015-07-06T09:04:28Z</time>
      </trkpt>
      <trkpt lat="41.79629" lon="9.22035">
        <ele>1159.359</ele>
        <time>2015-07-06T09:04:43Z</time>
      </trkpt>
      <trkpt lat="41.79629" lon="9.22043">
        <ele>1159.827</ele>
        <time>2015-07-06T09:04:58Z</time>
      </trkpt>
      <trkpt lat="41.79631" lon="9.22051">
        <ele>1160.241</ele>
        <time>2015-07-06T09:05:11Z</time>
      </trkpt>
      <trkpt lat="41.79634" lon="9.22054">
        <ele>1161.396</ele>
        <time>2015-07-06T09:05:24Z</time>
      </trkpt>
      <trkpt lat="41.79639" lon="9.2206">
        <ele>1161.331</ele>
        <time>2015-07-06T09:05:39Z</time>
      </trkpt>
      <trkpt lat="41.7964" lon="9.22069">
        <ele>1160.957</ele>
        <time>2015-07-06T09:05:54Z</time>
      </trkpt>
      <trkpt lat="41.79642" lon="9.22072">
        <ele>1164.107</ele>
        <time>2015-07-06T09:06:16Z</time>
      </trkpt>
      <trkpt lat="41.79651" lon="9.22078">
        <ele>1165.187</ele>
        <time>2015-07-06T09:06:30Z</time>
      </trkpt>
      <trkpt lat="41.79654" lon="9.22083">
        <ele>1167.18</ele>
        <time>2015-07-06T09:06:58Z</time>
      </trkpt>
      <trkpt lat="41.79658" lon="9.22086">
        <ele>1169.21</ele>
        <time>2015-07-06T09:07:16Z</time>
      </trkpt>
      <trkpt lat="41.79658" lon="9.2209">
        <ele>1171.12</ele>
        <time>2015-07-06T09:07:34Z</time>
      </trkpt>
      <trkpt lat="41.79664" lon="9.22097">
        <ele>1172.374</ele>
        <time>2015-07-06T09:07:59Z</time>
      </trkpt>
      <trkpt lat="41.79665" lon="9.221">
        <ele>1173.897</ele>
        <time>2015-07-06T09:08:13Z</time>
      </trkpt>
      <trkpt lat="41.79672" lon="9.22104">
        <ele>1177.073</ele>
        <time>2015-07-06T09:08:40Z</time>
      </trkpt>
      <trkpt lat="41.79673" lon="9.2211">
        <ele>1178.152</ele>
        <time>2015-07-06T09:09:01Z</time>
      </trkpt>
      <trkpt lat="41.7967" lon="9.22118">
        <ele>1180.559</ele>
        <time>2015-07-06T09:09:30Z</time>
      </trkpt>
      <trkpt lat="41.79674" lon="9.22131">
        <ele>1183.06</ele>
        <time>2015-07-06T09:10:03Z</time>
      </trkpt>
      <trkpt lat="41.79676" lon="9.22127">
        <ele>1183.709</ele>
        <time>2015-07-06T09:10:47Z</time>
      </trkpt>
      <trkpt lat="41.79673" lon="9.22124">
        <ele>1183.423</ele>
        <time>2015-07-06T09:11:39Z</time>
      </trkpt>
      <trkpt lat="41.79681" lon="9.22134">
        <ele>1185.383</ele>
        <time>2015-07-06T09:12:05Z</time>
      </trkpt>
      <trkpt lat="41.79679" lon="9.22136">
        <ele>1186.389</ele>
        <time>2015-07-06T09:12:25Z</time>
      </trkpt>
      <trkpt lat="41.7968" lon="9.22143">
        <ele>1189.069</ele>
        <time>2015-07-06T09:12:55Z</time>
      </trkpt>
      <trkpt lat="41.79682" lon="9.2215">
        <ele>1190.542</ele>
        <time>2015-07-06T09:13:09Z</time>
      </trkpt>
      <trkpt lat="41.79687" lon="9.22163">
        <ele>1191.578</ele>
        <time>2015-07-06T09:13:20Z</time>
      </trkpt>
      <trkpt lat="41.79683" lon="9.2217">
        <ele>1194.399</ele>
        <time>2015-07-06T09:13:45Z</time>
      </trkpt>
      <trkpt lat="41.79686" lon="9.22178">
        <ele>1196.037</ele>
        <time>2015-07-06T09:14:01Z</time>
      </trkpt>
      <trkpt lat="41.79689" lon="9.22183">
        <ele>1198.115</ele>
        <time>2015-07-06T09:14:18Z</time>
      </trkpt>
      <trkpt lat="41.79698" lon="9.22194">
        <ele>1198.913</ele>
        <time>2015-07-06T09:14:35Z</time>
      </trkpt>
      <trkpt lat="41.79708" lon="9.22185">
        <ele>1200.12</ele>
        <time>2015-07-06T09:15:04Z</time>
      </trkpt>
      <trkpt lat="41.79706" lon="9.22187">
        <ele>1203.187</ele>
        <time>2015-07-06T09:15:18Z</time>
      </trkpt>
      <trkpt lat="41.79706" lon="9.22188">
        <ele>1203.396</ele>
        <time>2015-07-06T09:15:19Z</time>
      </trkpt>
      <trkpt lat="41.79711" lon="9.22193">
        <ele>1204.587</ele>
        <time>2015-07-06T09:15:31Z</time>
      </trkpt>
      <trkpt lat="41.7971" lon="9.22203">
        <ele>1206.67</ele>
        <time>2015-07-06T09:15:57Z</time>
      </trkpt>
      <trkpt lat="41.79711" lon="9.22212">
        <ele>1207.677</ele>
        <time>2015-07-06T09:16:13Z</time>
      </trkpt>
      <trkpt lat="41.79712" lon="9.22228">
        <ele>1208.662</ele>
        <time>2015-07-06T09:16:26Z</time>
      </trkpt>
      <trkpt lat="41.79714" lon="9.22238">
        <ele>1210.274</ele>
        <time>2015-07-06T09:16:40Z</time>
      </trkpt>
      <trkpt lat="41.79713" lon="9.22245">
        <ele>1209.892</ele>
        <time>2015-07-06T09:16:52Z</time>
      </trkpt>
      <trkpt lat="41.7971" lon="9.22256">
        <ele>1209.493</ele>
        <time>2015-07-06T09:17:06Z</time>
      </trkpt>
      <trkpt lat="41.79702" lon="9.22272">
        <ele>1209.795</ele>
        <time>2015-07-06T09:17:20Z</time>
      </trkpt>
      <trkpt lat="41.79695" lon="9.22286">
        <ele>1210.813</ele>
        <time>2015-07-06T09:17:30Z</time>
      </trkpt>
      <trkpt lat="41.79693" lon="9.22301">
        <ele>1210.46</ele>
        <time>2015-07-06T09:17:45Z</time>
      </trkpt>
      <trkpt lat="41.79688" lon="9.22316">
        <ele>1212.873</ele>
        <time>2015-07-06T09:18:02Z</time>
      </trkpt>
      <trkpt lat="41.79683" lon="9.22329">
        <ele>1213.889</ele>
        <time>2015-07-06T09:18:14Z</time>
      </trkpt>
      <trkpt lat="41.79678" lon="9.22338">
        <ele>1213.838</ele>
        <time>2015-07-06T09:18:26Z</time>
      </trkpt>
      <trkpt lat="41.79675" lon="9.22346">
        <ele>1215.649</ele>
        <time>2015-07-06T09:18:36Z</time>
      </trkpt>
      <trkpt lat="41.79669" lon="9.22351">
        <ele>1215.64</ele>
        <time>2015-07-06T09:18:45Z</time>
      </trkpt>
      <trkpt lat="41.79659" lon="9.22362">
        <ele>1214.882</ele>
        <time>2015-07-06T09:18:57Z</time>
      </trkpt>
      <trkpt lat="41.7965" lon="9.22373">
        <ele>1215.251</ele>
        <time>2015-07-06T09:19:06Z</time>
      </trkpt>
      <trkpt lat="41.79645" lon="9.2238">
        <ele>1215.07</ele>
        <time>2015-07-06T09:19:19Z</time>
      </trkpt>
      <trkpt lat="41.79626" lon="9.22403">
        <ele>1216.283</ele>
        <time>2015-07-06T09:19:39Z</time>
      </trkpt>
      <trkpt lat="41.79613" lon="9.22424">
        <ele>1217.899</ele>
        <time>2015-07-06T09:19:59Z</time>
      </trkpt>
      <trkpt lat="41.79593" lon="9.22431">
        <ele>1220.233</ele>
        <time>2015-07-06T09:20:21Z</time>
      </trkpt>
      <trkpt lat="41.79589" lon="9.22432">
        <ele>1220.629</ele>
        <time>2015-07-06T09:20:26Z</time>
      </trkpt>
      <trkpt lat="41.79588" lon="9.22441">
        <ele>1220.859</ele>
        <time>2015-07-06T09:20:34Z</time>
      </trkpt>
      <trkpt lat="41.7959" lon="9.22469">
        <ele>1221.75</ele>
        <time>2015-07-06T09:20:56Z</time>
      </trkpt>
      <trkpt lat="41.7959" lon="9.22477">
        <ele>1221.389</ele>
        <time>2015-07-06T09:21:02Z</time>
      </trkpt>
      <trkpt lat="41.79589" lon="9.22482">
        <ele>1221.421</ele>
        <time>2015-07-06T09:21:06Z</time>
      </trkpt>
      <trkpt lat="41.79589" lon="9.22513">
        <ele>1220.556</ele>
        <time>2015-07-06T09:21:29Z</time>
      </trkpt>
      <trkpt lat="41.79589" lon="9.22536">
        <ele>1218.712</ele>
        <time>2015-07-06T09:21:45Z</time>
      </trkpt>
      <trkpt lat="41.79591" lon="9.22539">
        <ele>1218.524</ele>
        <time>2015-07-06T09:21:48Z</time>
      </trkpt>
      <trkpt lat="41.7959" lon="9.22564">
        <ele>1217.343</ele>
        <time>2015-07-06T09:22:05Z</time>
      </trkpt>
      <trkpt lat="41.79591" lon="9.2259">
        <ele>1213.842</ele>
        <time>2015-07-06T09:22:24Z</time>
      </trkpt>
      <trkpt lat="41.79596" lon="9.22597">
        <ele>1213.105</ele>
        <time>2015-07-06T09:22:41Z</time>
      </trkpt>
      <trkpt lat="41.79606" lon="9.22591">
        <ele>1212.546</ele>
        <time>2015-07-06T09:22:53Z</time>
      </trkpt>
      <trkpt lat="41.79612" lon="9.22585">
        <ele>1213.182</ele>
        <time>2015-07-06T09:23:09Z</time>
      </trkpt>
      <trkpt lat="41.79623" lon="9.22587">
        <ele>1213.435</ele>
        <time>2015-07-06T09:23:37Z</time>
      </trkpt>
      <trkpt lat="41.79618" lon="9.22586">
        <ele>1213.74</ele>
        <time>2015-07-06T09:24:05Z</time>
      </trkpt>
      <trkpt lat="41.79613" lon="9.22586">
        <ele>1213.098</ele>
        <time>2015-07-06T09:24:24Z</time>
      </trkpt>
      <trkpt lat="41.79611" lon="9.22586">
        <ele>1213.3</ele>
        <time>2015-07-06T09:24:41Z</time>
      </trkpt>
      <trkpt lat="41.79608" lon="9.22586">
        <ele>1212.945</ele>
        <time>2015-07-06T09:25:04Z</time>
      </trkpt>
      <trkpt lat="41.79609" lon="9.22581">
        <ele>1212.962</ele>
        <time>2015-07-06T09:26:14Z</time>
      </trkpt>
    </trkseg>
  </trk>
  <trk>
    <name><![CDATA[ACTIVE LOG124023]]></name>
    <trkseg>
      <trkpt lat="41.79542" lon="9.22837">
        <ele>1188.243</ele>
        <time>2015-07-06T10:40:23Z</time>
      </trkpt>
      <trkpt lat="41.79539" lon="9.22834">
        <ele>1193.367</ele>
        <time>2015-07-06T10:40:24Z</time>
      </trkpt>
      <trkpt lat="41.79535" lon="9.22829">
        <ele>1191.686</ele>
        <time>2015-07-06T10:40:25Z</time>
      </trkpt>
      <trkpt lat="41.7953" lon="9.22826">
        <ele>1190.915</ele>
        <time>2015-07-06T10:40:43Z</time>
      </trkpt>
      <trkpt lat="41.79534" lon="9.22828">
        <ele>1188.714</ele>
        <time>2015-07-06T10:40:51Z</time>
      </trkpt>
      <trkpt lat="41.79535" lon="9.22826">
        <ele>1185.685</ele>
        <time>2015-07-06T10:40:55Z</time>
      </trkpt>
      <trkpt lat="41.79532" lon="9.22828">
        <ele>1182.04</ele>
        <time>2015-07-06T10:41:03Z</time>
      </trkpt>
      <trkpt lat="41.7953" lon="9.22829">
        <ele>1178.986</ele>
        <time>2015-07-06T10:41:07Z</time>
      </trkpt>
      <trkpt lat="41.79529" lon="9.22832">
        <ele>1175.133</ele>
        <time>2015-07-06T10:41:12Z</time>
      </trkpt>
      <trkpt lat="41.79529" lon="9.22833">
        <ele>1174.863</ele>
        <time>2015-07-06T10:41:13Z</time>
      </trkpt>
      <trkpt lat="41.79528" lon="9.22833">
        <ele>1173.715</ele>
        <time>2015-07-06T10:41:15Z</time>
      </trkpt>
      <trkpt lat="41.79519" lon="9.22834">
        <ele>1170.916</ele>
        <time>2015-07-06T10:41:20Z</time>
      </trkpt>
      <trkpt lat="41.79503" lon="9.22845">
        <ele>1167.664</ele>
        <time>2015-07-06T10:41:36Z</time>
      </trkpt>
      <trkpt lat="41.79486" lon="9.2287">
        <ele>1165.961</ele>
        <time>2015-07-06T10:42:00Z</time>
      </trkpt>
      <trkpt lat="41.79475" lon="9.22882">
        <ele>1165.566</ele>
        <time>2015-07-06T10:42:14Z</time>
      </trkpt>
      <trkpt lat="41.7947" lon="9.22897">
        <ele>1165.432</ele>
        <time>2015-07-06T10:42:24Z</time>
      </trkpt>
      <trkpt lat="41.79471" lon="9.22901">
        <ele>1165.681</ele>
        <time>2015-07-06T10:42:27Z</time>
      </trkpt>
      <trkpt lat="41.79468" lon="9.22921">
        <ele>1165.429</ele>
        <time>2015-07-06T10:42:42Z</time>
      </trkpt>
      <trkpt lat="41.79468" lon="9.22941">
        <ele>1164.46</ele>
        <time>2015-07-06T10:42:55Z</time>
      </trkpt>
      <trkpt lat="41.79469" lon="9.22947">
        <ele>1164.593</ele>
        <time>2015-07-06T10:43:00Z</time>
      </trkpt>
      <trkpt lat="41.79458" lon="9.22974">
        <ele>1164.282</ele>
        <time>2015-07-06T10:43:22Z</time>
      </trkpt>
      <trkpt lat="41.79462" lon="9.22979">
        <ele>1164.751</ele>
        <time>2015-07-06T10:43:37Z</time>
      </trkpt>
      <trkpt lat="41.79463" lon="9.22978">
        <ele>1164.465</ele>
        <time>2015-07-06T10:43:46Z</time>
      </trkpt>
      <trkpt lat="41.79462" lon="9.22973">
        <ele>1164.594</ele>
        <time>2015-07-06T10:43:50Z</time>
      </trkpt>
      <trkpt lat="41.7944" lon="9.22973">
        <ele>1165.388</ele>
        <time>2015-07-06T10:44:10Z</time>
      </trkpt>
      <trkpt lat="41.79424" lon="9.22963">
        <ele>1165.05</ele>
        <time>2015-07-06T10:44:26Z</time>
      </trkpt>
      <trkpt lat="41.79421" lon="9.22963">
        <ele>1165.183</ele>
        <time>2015-07-06T10:44:29Z</time>
      </trkpt>
      <trkpt lat="41.79418" lon="9.22964">
        <ele>1164.839</ele>
        <time>2015-07-06T10:44:32Z</time>
      </trkpt>
      <trkpt lat="41.79401" lon="9.2298">
        <ele>1165.292</ele>
        <time>2015-07-06T10:44:50Z</time>
      </trkpt>
      <trkpt lat="41.79391" lon="9.22991">
        <ele>1164.602</ele>
        <time>2015-07-06T10:45:01Z</time>
      </trkpt>
      <trkpt lat="41.79385" lon="9.22995">
        <ele>1164.67</ele>
        <time>2015-07-06T10:45:06Z</time>
      </trkpt>
      <trkpt lat="41.79379" lon="9.22999">
        <ele>1164.859</ele>
        <time>2015-07-06T10:45:11Z</time>
      </trkpt>
      <trkpt lat="41.7936" lon="9.23016">
        <ele>1164.315</ele>
        <time>2015-07-06T10:45:30Z</time>
      </trkpt>
      <trkpt lat="41.79357" lon="9.2302">
        <ele>1164.405</ele>
        <time>2015-07-06T10:45:34Z</time>
      </trkpt>
      <trkpt lat="41.79354" lon="9.23024">
        <ele>1164.172</ele>
        <time>2015-07-06T10:45:37Z</time>
      </trkpt>
      <trkpt lat="41.79349" lon="9.23025">
        <ele>1164.351</ele>
        <time>2015-07-06T10:45:41Z</time>
      </trkpt>
      <trkpt lat="41.7934" lon="9.2303">
        <ele>1164.355</ele>
        <time>2015-07-06T10:45:50Z</time>
      </trkpt>
      <trkpt lat="41.79338" lon="9.23032">
        <ele>1164.534</ele>
        <time>2015-07-06T10:45:52Z</time>
      </trkpt>
      <trkpt lat="41.79316" lon="9.23043">
        <ele>1165.917</ele>
        <time>2015-07-06T10:46:11Z</time>
      </trkpt>
      <trkpt lat="41.79309" lon="9.23049">
        <ele>1165.716</ele>
        <time>2015-07-06T10:46:20Z</time>
      </trkpt>
      <trkpt lat="41.79302" lon="9.23051">
        <ele>1165.514</ele>
        <time>2015-07-06T10:46:25Z</time>
      </trkpt>
      <trkpt lat="41.79289" lon="9.23052">
        <ele>1164.478</ele>
        <time>2015-07-06T10:46:37Z</time>
      </trkpt>
      <trkpt lat="41.7927" lon="9.23048">
        <ele>1164.367</ele>
        <time>2015-07-06T10:46:53Z</time>
      </trkpt>
      <trkpt lat="41.79252" lon="9.23047">
        <ele>1162.599</ele>
        <time>2015-07-06T10:47:09Z</time>
      </trkpt>
      <trkpt lat="41.79235" lon="9.23048">
        <ele>1163.338</ele>
        <time>2015-07-06T10:47:24Z</time>
      </trkpt>
      <trkpt lat="41.79224" lon="9.23045">
        <ele>1163.94</ele>
        <time>2015-07-06T10:47:41Z</time>
      </trkpt>
      <trkpt lat="41.79223" lon="9.23041">
        <ele>1162.957</ele>
        <time>2015-07-06T10:48:01Z</time>
      </trkpt>
      <trkpt lat="41.7922" lon="9.23043">
        <ele>1165.035</ele>
        <time>2015-07-06T10:48:19Z</time>
      </trkpt>
      <trkpt lat="41.79211" lon="9.23048">
        <ele>1164.67</ele>
        <time>2015-07-06T10:48:29Z</time>
      </trkpt>
      <trkpt lat="41.79209" lon="9.23049">
        <ele>1164.775</ele>
        <time>2015-07-06T10:48:31Z</time>
      </trkpt>
      <trkpt lat="41.79203" lon="9.23051">
        <ele>1163.916</ele>
        <time>2015-07-06T10:48:36Z</time>
      </trkpt>
      <trkpt lat="41.79195" lon="9.23058">
        <ele>1163.925</ele>
        <time>2015-07-06T10:48:46Z</time>
      </trkpt>
      <trkpt lat="41.79194" lon="9.2308">
        <ele>1164.106</ele>
        <time>2015-07-06T10:49:00Z</time>
      </trkpt>
      <trkpt lat="41.79196" lon="9.23113">
        <ele>1163.977</ele>
        <time>2015-07-06T10:49:18Z</time>
      </trkpt>
      <trkpt lat="41.79196" lon="9.23131">
        <ele>1164.565</ele>
        <time>2015-07-06T10:49:31Z</time>
      </trkpt>
      <trkpt lat="41.79185" lon="9.23162">
        <ele>1165.288</ele>
        <time>2015-07-06T10:49:51Z</time>
      </trkpt>
      <trkpt lat="41.79181" lon="9.23175">
        <ele>1165.35</ele>
        <time>2015-07-06T10:49:59Z</time>
      </trkpt>
      <trkpt lat="41.79164" lon="9.23194">
        <ele>1164.027</ele>
        <time>2015-07-06T10:50:16Z</time>
      </trkpt>
      <trkpt lat="41.7915" lon="9.23213">
        <ele>1163.601</ele>
        <time>2015-07-06T10:50:31Z</time>
      </trkpt>
      <trkpt lat="41.79131" lon="9.23236">
        <ele>1163.56</ele>
        <time>2015-07-06T10:50:53Z</time>
      </trkpt>
      <trkpt lat="41.79113" lon="9.23246">
        <ele>1161.975</ele>
        <time>2015-07-06T10:51:11Z</time>
      </trkpt>
      <trkpt lat="41.79095" lon="9.23241">
        <ele>1160.256</ele>
        <time>2015-07-06T10:51:28Z</time>
      </trkpt>
      <trkpt lat="41.79089" lon="9.23242">
        <ele>1159.987</ele>
        <time>2015-07-06T10:51:37Z</time>
      </trkpt>
      <trkpt lat="41.79084" lon="9.23257">
        <ele>1158.18</ele>
        <time>2015-07-06T10:51:50Z</time>
      </trkpt>
      <trkpt lat="41.79085" lon="9.23266">
        <ele>1157.717</ele>
        <time>2015-07-06T10:51:55Z</time>
      </trkpt>
      <trkpt lat="41.79086" lon="9.23291">
        <ele>1157.441</ele>
        <time>2015-07-06T10:52:12Z</time>
      </trkpt>
      <trkpt lat="41.79085" lon="9.233">
        <ele>1157.741</ele>
        <time>2015-07-06T10:52:18Z</time>
      </trkpt>
      <trkpt lat="41.79077" lon="9.23307">
        <ele>1158.238</ele>
        <time>2015-07-06T10:52:31Z</time>
      </trkpt>
      <trkpt lat="41.79071" lon="9.23317">
        <ele>1158.913</ele>
        <time>2015-07-06T10:52:40Z</time>
      </trkpt>
      <trkpt lat="41.79071" lon="9.23349">
        <ele>1158.372</ele>
        <time>2015-07-06T10:52:59Z</time>
      </trkpt>
      <trkpt lat="41.79072" lon="9.23366">
        <ele>1159.318</ele>
        <time>2015-07-06T10:53:10Z</time>
      </trkpt>
      <trkpt lat="41.79073" lon="9.23376">
        <ele>1159.443</ele>
        <time>2015-07-06T10:53:16Z</time>
      </trkpt>
      <trkpt lat="41.79068" lon="9.23391">
        <ele>1158.126</ele>
        <time>2015-07-06T10:53:31Z</time>
      </trkpt>
      <trkpt lat="41.79071" lon="9.23402">
        <ele>1154.86</ele>
        <time>2015-07-06T10:53:46Z</time>
      </trkpt>
      <trkpt lat="41.79069" lon="9.23414">
        <ele>1152.338</ele>
        <time>2015-07-06T10:54:02Z</time>
      </trkpt>
      <trkpt lat="41.79068" lon="9.23418">
        <ele>1150.163</ele>
        <time>2015-07-06T10:54:12Z</time>
      </trkpt>
      <trkpt lat="41.79068" lon="9.23426">
        <ele>1147.415</ele>
        <time>2015-07-06T10:54:26Z</time>
      </trkpt>
      <trkpt lat="41.79064" lon="9.23435">
        <ele>1145.479</ele>
        <time>2015-07-06T10:54:39Z</time>
      </trkpt>
      <trkpt lat="41.79061" lon="9.23441">
        <ele>1144.004</ele>
        <time>2015-07-06T10:54:49Z</time>
      </trkpt>
      <trkpt lat="41.79058" lon="9.23447">
        <ele>1141.801</ele>
        <time>2015-07-06T10:55:01Z</time>
      </trkpt>
      <trkpt lat="41.79053" lon="9.23462">
        <ele>1138.476</ele>
        <time>2015-07-06T10:55:16Z</time>
      </trkpt>
      <trkpt lat="41.79047" lon="9.23475">
        <ele>1135.746</ele>
        <time>2015-07-06T10:55:33Z</time>
      </trkpt>
      <trkpt lat="41.79047" lon="9.23484">
        <ele>1133.951</ele>
        <time>2015-07-06T10:55:50Z</time>
      </trkpt>
      <trkpt lat="41.79044" lon="9.23492">
        <ele>1132.382</ele>
        <time>2015-07-06T10:56:07Z</time>
      </trkpt>
      <trkpt lat="41.79044" lon="9.23497">
        <ele>1130.943</ele>
        <time>2015-07-06T10:56:24Z</time>
      </trkpt>
      <trkpt lat="41.79043" lon="9.23505">
        <ele>1128.726</ele>
        <time>2015-07-06T10:56:39Z</time>
      </trkpt>
      <trkpt lat="41.79038" lon="9.23508">
        <ele>1127.332</ele>
        <time>2015-07-06T10:56:51Z</time>
      </trkpt>
      <trkpt lat="41.79036" lon="9.23509">
        <ele>1126.338</ele>
        <time>2015-07-06T10:57:04Z</time>
      </trkpt>
      <trkpt lat="41.79034" lon="9.23511">
        <ele>1123.235</ele>
        <time>2015-07-06T10:57:12Z</time>
      </trkpt>
      <trkpt lat="41.79026" lon="9.23516">
        <ele>1121.1</ele>
        <time>2015-07-06T10:57:27Z</time>
      </trkpt>
      <trkpt lat="41.79022" lon="9.23519">
        <ele>1119.585</ele>
        <time>2015-07-06T10:57:40Z</time>
      </trkpt>
      <trkpt lat="41.79014" lon="9.23525">
        <ele>1117.36</ele>
        <time>2015-07-06T10:57:51Z</time>
      </trkpt>
      <trkpt lat="41.79007" lon="9.23534">
        <ele>1115.245</ele>
        <time>2015-07-06T10:58:10Z</time>
      </trkpt>
      <trkpt lat="41.79002" lon="9.23535">
        <ele>1113.59</ele>
        <time>2015-07-06T10:58:22Z</time>
      </trkpt>
      <trkpt lat="41.79" lon="9.23543">
        <ele>1111.192</ele>
        <time>2015-07-06T10:58:36Z</time>
      </trkpt>
      <trkpt lat="41.78999" lon="9.23543">
        <ele>1108.399</ele>
        <time>2015-07-06T10:58:50Z</time>
      </trkpt>
      <trkpt lat="41.78999" lon="9.23543">
        <ele>1108.402</ele>
        <time>2015-07-06T10:58:51Z</time>
      </trkpt>
      <trkpt lat="41.78988" lon="9.23547">
        <ele>1105.95</ele>
        <time>2015-07-06T10:59:05Z</time>
      </trkpt>
      <trkpt lat="41.78979" lon="9.23551">
        <ele>1104.34</ele>
        <time>2015-07-06T10:59:19Z</time>
      </trkpt>
      <trkpt lat="41.78976" lon="9.23554">
        <ele>1102.334</ele>
        <time>2015-07-06T10:59:26Z</time>
      </trkpt>
      <trkpt lat="41.7897" lon="9.23559">
        <ele>1101.142</ele>
        <time>2015-07-06T10:59:39Z</time>
      </trkpt>
      <trkpt lat="41.78966" lon="9.23561">
        <ele>1097.94</ele>
        <time>2015-07-06T10:59:50Z</time>
      </trkpt>
      <trkpt lat="41.78958" lon="9.23564">
        <ele>1096.4</ele>
        <time>2015-07-06T11:00:07Z</time>
      </trkpt>
      <trkpt lat="41.78951" lon="9.23568">
        <ele>1093.768</ele>
        <time>2015-07-06T11:00:21Z</time>
      </trkpt>
      <trkpt lat="41.78949" lon="9.23575">
        <ele>1091.324</ele>
        <time>2015-07-06T11:00:34Z</time>
      </trkpt>
      <trkpt lat="41.78948" lon="9.23576">
        <ele>1091.09</ele>
        <time>2015-07-06T11:00:35Z</time>
      </trkpt>
      <trkpt lat="41.78947" lon="9.23578">
        <ele>1088.453</ele>
        <time>2015-07-06T11:00:47Z</time>
      </trkpt>
      <trkpt lat="41.78942" lon="9.23586">
        <ele>1087.173</ele>
        <time>2015-07-06T11:01:00Z</time>
      </trkpt>
      <trkpt lat="41.78937" lon="9.23593">
        <ele>1084.657</ele>
        <time>2015-07-06T11:01:13Z</time>
      </trkpt>
      <trkpt lat="41.78937" lon="9.23602">
        <ele>1086.348</ele>
        <time>2015-07-06T11:01:26Z</time>
      </trkpt>
      <trkpt lat="41.78937" lon="9.23613">
        <ele>1087.583</ele>
        <time>2015-07-06T11:01:40Z</time>
      </trkpt>
      <trkpt lat="41.7894" lon="9.23619">
        <ele>1084.855</ele>
        <time>2015-07-06T11:01:53Z</time>
      </trkpt>
      <trkpt lat="41.78944" lon="9.23626">
        <ele>1084.062</ele>
        <time>2015-07-06T11:02:06Z</time>
      </trkpt>
      <trkpt lat="41.78942" lon="9.23644">
        <ele>1082.521</ele>
        <time>2015-07-06T11:02:21Z</time>
      </trkpt>
      <trkpt lat="41.7894" lon="9.23658">
        <ele>1080.631</ele>
        <time>2015-07-06T11:02:34Z</time>
      </trkpt>
      <trkpt lat="41.78942" lon="9.23674">
        <ele>1078.747</ele>
        <time>2015-07-06T11:02:49Z</time>
      </trkpt>
      <trkpt lat="41.78943" lon="9.2369">
        <ele>1077.381</ele>
        <time>2015-07-06T11:03:02Z</time>
      </trkpt>
      <trkpt lat="41.78944" lon="9.23703">
        <ele>1075.098</ele>
        <time>2015-07-06T11:03:17Z</time>
      </trkpt>
      <trkpt lat="41.78946" lon="9.23711">
        <ele>1073.241</ele>
        <time>2015-07-06T11:03:30Z</time>
      </trkpt>
      <trkpt lat="41.78948" lon="9.23728">
        <ele>1071.026</ele>
        <time>2015-07-06T11:03:45Z</time>
      </trkpt>
      <trkpt lat="41.78949" lon="9.23742">
        <ele>1069.565</ele>
        <time>2015-07-06T11:03:57Z</time>
      </trkpt>
      <trkpt lat="41.7895" lon="9.23753">
        <ele>1066.716</ele>
        <time>2015-07-06T11:04:13Z</time>
      </trkpt>
      <trkpt lat="41.78953" lon="9.23759">
        <ele>1064.754</ele>
        <time>2015-07-06T11:04:26Z</time>
      </trkpt>
      <trkpt lat="41.7895" lon="9.23766">
        <ele>1063.499</ele>
        <time>2015-07-06T11:04:41Z</time>
      </trkpt>
      <trkpt lat="41.78952" lon="9.23773">
        <ele>1060.677</ele>
        <time>2015-07-06T11:04:55Z</time>
      </trkpt>
      <trkpt lat="41.78951" lon="9.23779">
        <ele>1059.169</ele>
        <time>2015-07-06T11:05:10Z</time>
      </trkpt>
      <trkpt lat="41.78957" lon="9.23789">
        <ele>1056.596</ele>
        <time>2015-07-06T11:05:26Z</time>
      </trkpt>
      <trkpt lat="41.78963" lon="9.23801">
        <ele>1054.811</ele>
        <time>2015-07-06T11:05:40Z</time>
      </trkpt>
      <trkpt lat="41.78967" lon="9.23808">
        <ele>1053.784</ele>
        <time>2015-07-06T11:05:58Z</time>
      </trkpt>
      <trkpt lat="41.78976" lon="9.23817">
        <ele>1051.636</ele>
        <time>2015-07-06T11:06:15Z</time>
      </trkpt>
      <trkpt lat="41.78978" lon="9.2383">
        <ele>1049.546</ele>
        <time>2015-07-06T11:06:32Z</time>
      </trkpt>
      <trkpt lat="41.78978" lon="9.23842">
        <ele>1047.214</ele>
        <time>2015-07-06T11:06:45Z</time>
      </trkpt>
      <trkpt lat="41.78977" lon="9.23843">
        <ele>1046.837</ele>
        <time>2015-07-06T11:06:47Z</time>
      </trkpt>
      <trkpt lat="41.78964" lon="9.23852">
        <ele>1043.874</ele>
        <time>2015-07-06T11:07:03Z</time>
      </trkpt>
      <trkpt lat="41.78955" lon="9.2385">
        <ele>1040.805</ele>
        <time>2015-07-06T11:07:19Z</time>
      </trkpt>
      <trkpt lat="41.78946" lon="9.23845">
        <ele>1038.189</ele>
        <time>2015-07-06T11:07:34Z</time>
      </trkpt>
      <trkpt lat="41.78936" lon="9.23848">
        <ele>1036.628</ele>
        <time>2015-07-06T11:07:49Z</time>
      </trkpt>
      <trkpt lat="41.7893" lon="9.23851">
        <ele>1033.851</ele>
        <time>2015-07-06T11:08:03Z</time>
      </trkpt>
      <trkpt lat="41.78927" lon="9.23861">
        <ele>1031.095</ele>
        <time>2015-07-06T11:08:17Z</time>
      </trkpt>
      <trkpt lat="41.78923" lon="9.23867">
        <ele>1029.121</ele>
        <time>2015-07-06T11:08:29Z</time>
      </trkpt>
      <trkpt lat="41.78917" lon="9.23871">
        <ele>1026.021</ele>
        <time>2015-07-06T11:08:41Z</time>
      </trkpt>
      <trkpt lat="41.78915" lon="9.23872">
        <ele>1025.603</ele>
        <time>2015-07-06T11:08:44Z</time>
      </trkpt>
      <trkpt lat="41.7891" lon="9.2387">
        <ele>1026.2</ele>
        <time>2015-07-06T11:08:49Z</time>
      </trkpt>
      <trkpt lat="41.78895" lon="9.23857">
        <ele>1023.868</ele>
        <time>2015-07-06T11:09:07Z</time>
      </trkpt>
      <trkpt lat="41.78881" lon="9.23844">
        <ele>1022.537</ele>
        <time>2015-07-06T11:09:23Z</time>
      </trkpt>
      <trkpt lat="41.78861" lon="9.23851">
        <ele>1022.451</ele>
        <time>2015-07-06T11:09:42Z</time>
      </trkpt>
      <trkpt lat="41.78851" lon="9.23855">
        <ele>1021.261</ele>
        <time>2015-07-06T11:09:56Z</time>
      </trkpt>
      <trkpt lat="41.7883" lon="9.23864">
        <ele>1019.668</ele>
        <time>2015-07-06T11:10:13Z</time>
      </trkpt>
      <trkpt lat="41.78809" lon="9.23869">
        <ele>1018.863</ele>
        <time>2015-07-06T11:10:31Z</time>
      </trkpt>
      <trkpt lat="41.78799" lon="9.23877">
        <ele>1019.008</ele>
        <time>2015-07-06T11:10:48Z</time>
      </trkpt>
      <trkpt lat="41.78794" lon="9.23876">
        <ele>1019.79</ele>
        <time>2015-07-06T11:11:13Z</time>
      </trkpt>
      <trkpt lat="41.78806" lon="9.23899">
        <ele>1020.906</ele>
        <time>2015-07-06T11:11:32Z</time>
      </trkpt>
      <trkpt lat="41.78824" lon="9.23913">
        <ele>1021.199</ele>
        <time>2015-07-06T11:11:51Z</time>
      </trkpt>
      <trkpt lat="41.78838" lon="9.23917">
        <ele>1021.82</ele>
        <time>2015-07-06T11:12:03Z</time>
      </trkpt>
      <trkpt lat="41.78841" lon="9.2392">
        <ele>1022.217</ele>
        <time>2015-07-06T11:12:06Z</time>
      </trkpt>
      <trkpt lat="41.78859" lon="9.23939">
        <ele>1022.661</ele>
        <time>2015-07-06T11:12:25Z</time>
      </trkpt>
      <trkpt lat="41.78864" lon="9.23945">
        <ele>1023.157</ele>
        <time>2015-07-06T11:12:30Z</time>
      </trkpt>
      <trkpt lat="41.78868" lon="9.23951">
        <ele>1023.335</ele>
        <time>2015-07-06T11:12:35Z</time>
      </trkpt>
      <trkpt lat="41.78877" lon="9.23968">
        <ele>1023.859</ele>
        <time>2015-07-06T11:12:50Z</time>
      </trkpt>
      <trkpt lat="41.78878" lon="9.23995">
        <ele>1022.227</ele>
        <time>2015-07-06T11:13:09Z</time>
      </trkpt>
      <trkpt lat="41.78873" lon="9.24019">
        <ele>1021.288</ele>
        <time>2015-07-06T11:13:24Z</time>
      </trkpt>
      <trkpt lat="41.78869" lon="9.24034">
        <ele>1023.828</ele>
        <time>2015-07-06T11:13:42Z</time>
      </trkpt>
      <trkpt lat="41.78869" lon="9.2405">
        <ele>1025.13</ele>
        <time>2015-07-06T11:14:00Z</time>
      </trkpt>
      <trkpt lat="41.78865" lon="9.24062">
        <ele>1026.718</ele>
        <time>2015-07-06T11:14:15Z</time>
      </trkpt>
      <trkpt lat="41.7886" lon="9.24083">
        <ele>1027.282</ele>
        <time>2015-07-06T11:14:31Z</time>
      </trkpt>
      <trkpt lat="41.78859" lon="9.24095">
        <ele>1028.266</ele>
        <time>2015-07-06T11:14:43Z</time>
      </trkpt>
      <trkpt lat="41.78861" lon="9.241">
        <ele>1029.783</ele>
        <time>2015-07-06T11:14:56Z</time>
      </trkpt>
      <trkpt lat="41.78861" lon="9.24109">
        <ele>1032.593</ele>
        <time>2015-07-06T11:15:12Z</time>
      </trkpt>
      <trkpt lat="41.78864" lon="9.24115">
        <ele>1034.169</ele>
        <time>2015-07-06T11:15:26Z</time>
      </trkpt>
      <trkpt lat="41.78864" lon="9.2412">
        <ele>1036.643</ele>
        <time>2015-07-06T11:15:48Z</time>
      </trkpt>
      <trkpt lat="41.78868" lon="9.24129">
        <ele>1038.695</ele>
        <time>2015-07-06T11:16:01Z</time>
      </trkpt>
      <trkpt lat="41.78875" lon="9.24135">
        <ele>1040.347</ele>
        <time>2015-07-06T11:16:18Z</time>
      </trkpt>
      <trkpt lat="41.78881" lon="9.24148">
        <ele>1042.325</ele>
        <time>2015-07-06T11:16:36Z</time>
      </trkpt>
      <trkpt lat="41.78884" lon="9.24155">
        <ele>1043.981</ele>
        <time>2015-07-06T11:16:51Z</time>
      </trkpt>
      <trkpt lat="41.78885" lon="9.24166">
        <ele>1046.384</ele>
        <time>2015-07-06T11:17:10Z</time>
      </trkpt>
      <trkpt lat="41.78884" lon="9.24174">
        <ele>1048.335</ele>
        <time>2015-07-06T11:17:27Z</time>
      </trkpt>
      <trkpt lat="41.78884" lon="9.24184">
        <ele>1050.812</ele>
        <time>2015-07-06T11:17:44Z</time>
      </trkpt>
      <trkpt lat="41.78887" lon="9.2419">
        <ele>1051.999</ele>
        <time>2015-07-06T11:18:00Z</time>
      </trkpt>
      <trkpt lat="41.78891" lon="9.24199">
        <ele>1054.287</ele>
        <time>2015-07-06T11:18:14Z</time>
      </trkpt>
      <trkpt lat="41.78893" lon="9.24209">
        <ele>1056.577</ele>
        <time>2015-07-06T11:18:31Z</time>
      </trkpt>
      <trkpt lat="41.78894" lon="9.24217">
        <ele>1057.699</ele>
        <time>2015-07-06T11:18:44Z</time>
      </trkpt>
      <trkpt lat="41.78896" lon="9.24229">
        <ele>1059.632</ele>
        <time>2015-07-06T11:18:59Z</time>
      </trkpt>
      <trkpt lat="41.78896" lon="9.24243">
        <ele>1060.441</ele>
        <time>2015-07-06T11:19:14Z</time>
      </trkpt>
      <trkpt lat="41.78897" lon="9.24253">
        <ele>1061.977</ele>
        <time>2015-07-06T11:19:26Z</time>
      </trkpt>
      <trkpt lat="41.78899" lon="9.24262">
        <ele>1063.888</ele>
        <time>2015-07-06T11:19:41Z</time>
      </trkpt>
      <trkpt lat="41.78899" lon="9.2427">
        <ele>1066.668</ele>
        <time>2015-07-06T11:20:01Z</time>
      </trkpt>
      <trkpt lat="41.78895" lon="9.24275">
        <ele>1068.097</ele>
        <time>2015-07-06T11:20:17Z</time>
      </trkpt>
      <trkpt lat="41.78896" lon="9.24282">
        <ele>1069.347</ele>
        <time>2015-07-06T11:20:30Z</time>
      </trkpt>
      <trkpt lat="41.789" lon="9.24292">
        <ele>1070.804</ele>
        <time>2015-07-06T11:20:47Z</time>
      </trkpt>
      <trkpt lat="41.78903" lon="9.24297">
        <ele>1072.35</ele>
        <time>2015-07-06T11:21:01Z</time>
      </trkpt>
      <trkpt lat="41.7891" lon="9.24298">
        <ele>1073.595</ele>
        <time>2015-07-06T11:21:15Z</time>
      </trkpt>
      <trkpt lat="41.78916" lon="9.24308">
        <ele>1075.501</ele>
        <time>2015-07-06T11:21:34Z</time>
      </trkpt>
      <trkpt lat="41.78922" lon="9.24317">
        <ele>1078.418</ele>
        <time>2015-07-06T11:21:54Z</time>
      </trkpt>
      <trkpt lat="41.78922" lon="9.2433">
        <ele>1081.008</ele>
        <time>2015-07-06T11:22:14Z</time>
      </trkpt>
      <trkpt lat="41.78932" lon="9.24342">
        <ele>1083.049</ele>
        <time>2015-07-06T11:22:36Z</time>
      </trkpt>
      <trkpt lat="41.78937" lon="9.24348">
        <ele>1086.279</ele>
        <time>2015-07-06T11:23:02Z</time>
      </trkpt>
      <trkpt lat="41.78937" lon="9.24354">
        <ele>1087.904</ele>
        <time>2015-07-06T11:23:29Z</time>
      </trkpt>
      <trkpt lat="41.78936" lon="9.24366">
        <ele>1089.824</ele>
        <time>2015-07-06T11:23:47Z</time>
      </trkpt>
      <trkpt lat="41.7894" lon="9.24372">
        <ele>1092.217</ele>
        <time>2015-07-06T11:24:03Z</time>
      </trkpt>
      <trkpt lat="41.7895" lon="9.24376">
        <ele>1092.762</ele>
        <time>2015-07-06T11:24:22Z</time>
      </trkpt>
      <trkpt lat="41.78957" lon="9.24382">
        <ele>1094.031</ele>
        <time>2015-07-06T11:24:34Z</time>
      </trkpt>
      <trkpt lat="41.78961" lon="9.24391">
        <ele>1095.442</ele>
        <time>2015-07-06T11:24:45Z</time>
      </trkpt>
      <trkpt lat="41.78967" lon="9.24396">
        <ele>1097.243</ele>
        <time>2015-07-06T11:24:59Z</time>
      </trkpt>
      <trkpt lat="41.78968" lon="9.24407">
        <ele>1099.544</ele>
        <time>2015-07-06T11:25:18Z</time>
      </trkpt>
      <trkpt lat="41.78971" lon="9.24414">
        <ele>1101.799</ele>
        <time>2015-07-06T11:25:32Z</time>
      </trkpt>
      <trkpt lat="41.78974" lon="9.24416">
        <ele>1101.713</ele>
        <time>2015-07-06T11:25:55Z</time>
      </trkpt>
      <trkpt lat="41.78982" lon="9.24423">
        <ele>1101.7</ele>
        <time>2015-07-06T11:26:18Z</time>
      </trkpt>
      <trkpt lat="41.7899" lon="9.24435">
        <ele>1101.489</ele>
        <time>2015-07-06T11:26:35Z</time>
      </trkpt>
      <trkpt lat="41.78994" lon="9.24445">
        <ele>1101.356</ele>
        <time>2015-07-06T11:26:45Z</time>
      </trkpt>
      <trkpt lat="41.78999" lon="9.24461">
        <ele>1101.831</ele>
        <time>2015-07-06T11:27:02Z</time>
      </trkpt>
      <trkpt lat="41.79005" lon="9.24468">
        <ele>1100.67</ele>
        <time>2015-07-06T11:27:15Z</time>
      </trkpt>
      <trkpt lat="41.79008" lon="9.24487">
        <ele>1099.869</ele>
        <time>2015-07-06T11:27:30Z</time>
      </trkpt>
      <trkpt lat="41.7901" lon="9.24495">
        <ele>1100.013</ele>
        <time>2015-07-06T11:27:43Z</time>
      </trkpt>
      <trkpt lat="41.7901" lon="9.24506">
        <ele>1101.287</ele>
        <time>2015-07-06T11:28:01Z</time>
      </trkpt>
      <trkpt lat="41.79018" lon="9.24514">
        <ele>1100.98</ele>
        <time>2015-07-06T11:28:14Z</time>
      </trkpt>
      <trkpt lat="41.79019" lon="9.24529">
        <ele>1103.136</ele>
        <time>2015-07-06T11:28:28Z</time>
      </trkpt>
      <trkpt lat="41.79025" lon="9.24541">
        <ele>1104.717</ele>
        <time>2015-07-06T11:28:46Z</time>
      </trkpt>
      <trkpt lat="41.79026" lon="9.24553">
        <ele>1107.622</ele>
        <time>2015-07-06T11:29:02Z</time>
      </trkpt>
      <trkpt lat="41.79029" lon="9.2456">
        <ele>1109.872</ele>
        <time>2015-07-06T11:29:17Z</time>
      </trkpt>
      <trkpt lat="41.79034" lon="9.24566">
        <ele>1110.421</ele>
        <time>2015-07-06T11:29:31Z</time>
      </trkpt>
      <trkpt lat="41.79035" lon="9.24569">
        <ele>1111.977</ele>
        <time>2015-07-06T11:29:42Z</time>
      </trkpt>
      <trkpt lat="41.79034" lon="9.24573">
        <ele>1114.02</ele>
        <time>2015-07-06T11:29:56Z</time>
      </trkpt>
      <trkpt lat="41.79032" lon="9.2458">
        <ele>1116.273</ele>
        <time>2015-07-06T11:30:12Z</time>
      </trkpt>
      <trkpt lat="41.79033" lon="9.24587">
        <ele>1117.272</ele>
        <time>2015-07-06T11:30:31Z</time>
      </trkpt>
      <trkpt lat="41.79038" lon="9.24592">
        <ele>1118.907</ele>
        <time>2015-07-06T11:30:46Z</time>
      </trkpt>
      <trkpt lat="41.79036" lon="9.24603">
        <ele>1121.038</ele>
        <time>2015-07-06T11:31:02Z</time>
      </trkpt>
      <trkpt lat="41.79034" lon="9.24612">
        <ele>1122.09</ele>
        <time>2015-07-06T11:31:17Z</time>
      </trkpt>
      <trkpt lat="41.79034" lon="9.24622">
        <ele>1123.797</ele>
        <time>2015-07-06T11:31:34Z</time>
      </trkpt>
      <trkpt lat="41.79039" lon="9.24632">
        <ele>1125.997</ele>
        <time>2015-07-06T11:31:54Z</time>
      </trkpt>
      <trkpt lat="41.7905" lon="9.2464">
        <ele>1126.822</ele>
        <time>2015-07-06T11:32:11Z</time>
      </trkpt>
      <trkpt lat="41.79057" lon="9.24644">
        <ele>1126.261</ele>
        <time>2015-07-06T11:32:18Z</time>
      </trkpt>
      <trkpt lat="41.79068" lon="9.24644">
        <ele>1128.655</ele>
        <time>2015-07-06T11:32:34Z</time>
      </trkpt>
      <trkpt lat="41.79077" lon="9.24645">
        <ele>1129.331</ele>
        <time>2015-07-06T11:32:50Z</time>
      </trkpt>
      <trkpt lat="41.79082" lon="9.24649">
        <ele>1129.904</ele>
        <time>2015-07-06T11:33:01Z</time>
      </trkpt>
      <trkpt lat="41.79091" lon="9.24655">
        <ele>1130.262</ele>
        <time>2015-07-06T11:33:13Z</time>
      </trkpt>
      <trkpt lat="41.79098" lon="9.24661">
        <ele>1131.564</ele>
        <time>2015-07-06T11:33:29Z</time>
      </trkpt>
      <trkpt lat="41.791" lon="9.2467">
        <ele>1133.324</ele>
        <time>2015-07-06T11:33:41Z</time>
      </trkpt>
      <trkpt lat="41.79101" lon="9.24676">
        <ele>1136.547</ele>
        <time>2015-07-06T11:33:57Z</time>
      </trkpt>
      <trkpt lat="41.79108" lon="9.24683">
        <ele>1138.254</ele>
        <time>2015-07-06T11:34:14Z</time>
      </trkpt>
      <trkpt lat="41.79113" lon="9.24688">
        <ele>1139.467</ele>
        <time>2015-07-06T11:34:31Z</time>
      </trkpt>
      <trkpt lat="41.79117" lon="9.24698">
        <ele>1140.291</ele>
        <time>2015-07-06T11:34:47Z</time>
      </trkpt>
      <trkpt lat="41.79126" lon="9.24707">
        <ele>1140.627</ele>
        <time>2015-07-06T11:35:03Z</time>
      </trkpt>
      <trkpt lat="41.79132" lon="9.24713">
        <ele>1141.709</ele>
        <time>2015-07-06T11:35:18Z</time>
      </trkpt>
      <trkpt lat="41.79137" lon="9.24722">
        <ele>1144.445</ele>
        <time>2015-07-06T11:35:33Z</time>
      </trkpt>
      <trkpt lat="41.79138" lon="9.24731">
        <ele>1145.529</ele>
        <time>2015-07-06T11:35:46Z</time>
      </trkpt>
      <trkpt lat="41.7914" lon="9.24737">
        <ele>1147.249</ele>
        <time>2015-07-06T11:35:57Z</time>
      </trkpt>
      <trkpt lat="41.79142" lon="9.24746">
        <ele>1148.848</ele>
        <time>2015-07-06T11:36:12Z</time>
      </trkpt>
      <trkpt lat="41.79145" lon="9.24754">
        <ele>1150.594</ele>
        <time>2015-07-06T11:36:25Z</time>
      </trkpt>
      <trkpt lat="41.79146" lon="9.2476">
        <ele>1150.948</ele>
        <time>2015-07-06T11:36:40Z</time>
      </trkpt>
      <trkpt lat="41.79149" lon="9.2477">
        <ele>1152.449</ele>
        <time>2015-07-06T11:36:57Z</time>
      </trkpt>
      <trkpt lat="41.79151" lon="9.24775">
        <ele>1153.261</ele>
        <time>2015-07-06T11:37:12Z</time>
      </trkpt>
      <trkpt lat="41.79144" lon="9.24777">
        <ele>1153.385</ele>
        <time>2015-07-06T11:38:47Z</time>
      </trkpt>
      <trkpt lat="41.7915" lon="9.24774">
        <ele>1154.04</ele>
        <time>2015-07-06T11:39:14Z</time>
      </trkpt>
      <trkpt lat="41.79148" lon="9.24776">
        <ele>1155.766</ele>
        <time>2015-07-06T11:39:31Z</time>
      </trkpt>
      <trkpt lat="41.79154" lon="9.24774">
        <ele>1156.708</ele>
        <time>2015-07-06T11:39:49Z</time>
      </trkpt>
      <trkpt lat="41.79152" lon="9.24771">
        <ele>1157.553</ele>
        <time>2015-07-06T11:40:02Z</time>
      </trkpt>
      <trkpt lat="41.79146" lon="9.24773">
        <ele>1160.835</ele>
        <time>2015-07-06T11:40:18Z</time>
      </trkpt>
      <trkpt lat="41.79142" lon="9.24772">
        <ele>1162.402</ele>
        <time>2015-07-06T11:40:33Z</time>
      </trkpt>
      <trkpt lat="41.79137" lon="9.24768">
        <ele>1163.67</ele>
        <time>2015-07-06T11:40:47Z</time>
      </trkpt>
      <trkpt lat="41.79134" lon="9.24767">
        <ele>1165.684</ele>
        <time>2015-07-06T11:41:03Z</time>
      </trkpt>
      <trkpt lat="41.79132" lon="9.24771">
        <ele>1166.072</ele>
        <time>2015-07-06T11:41:16Z</time>
      </trkpt>
      <trkpt lat="41.79131" lon="9.24776">
        <ele>1166.747</ele>
        <time>2015-07-06T11:41:30Z</time>
      </trkpt>
      <trkpt lat="41.79128" lon="9.24776">
        <ele>1168.699</ele>
        <time>2015-07-06T11:41:43Z</time>
      </trkpt>
      <trkpt lat="41.79126" lon="9.24777">
        <ele>1171.286</ele>
        <time>2015-07-06T11:41:56Z</time>
      </trkpt>
      <trkpt lat="41.79125" lon="9.24782">
        <ele>1172.457</ele>
        <time>2015-07-06T11:42:09Z</time>
      </trkpt>
      <trkpt lat="41.79126" lon="9.24788">
        <ele>1173.528</ele>
        <time>2015-07-06T11:42:23Z</time>
      </trkpt>
      <trkpt lat="41.79126" lon="9.24792">
        <ele>1175.11</ele>
        <time>2015-07-06T11:42:40Z</time>
      </trkpt>
      <trkpt lat="41.79122" lon="9.24788">
        <ele>1177.062</ele>
        <time>2015-07-06T11:42:54Z</time>
      </trkpt>
      <trkpt lat="41.79118" lon="9.24784">
        <ele>1178.933</ele>
        <time>2015-07-06T11:43:06Z</time>
      </trkpt>
      <trkpt lat="41.79118" lon="9.24792">
        <ele>1179.222</ele>
        <time>2015-07-06T11:43:20Z</time>
      </trkpt>
      <trkpt lat="41.79116" lon="9.24799">
        <ele>1180.372</ele>
        <time>2015-07-06T11:43:33Z</time>
      </trkpt>
      <trkpt lat="41.79116" lon="9.24804">
        <ele>1181.554</ele>
        <time>2015-07-06T11:43:46Z</time>
      </trkpt>
      <trkpt lat="41.79118" lon="9.24809">
        <ele>1183.54</ele>
        <time>2015-07-06T11:43:59Z</time>
      </trkpt>
      <trkpt lat="41.79114" lon="9.24809">
        <ele>1184.991</ele>
        <time>2015-07-06T11:44:14Z</time>
      </trkpt>
      <trkpt lat="41.79112" lon="9.24806">
        <ele>1185.622</ele>
        <time>2015-07-06T11:44:28Z</time>
      </trkpt>
      <trkpt lat="41.79108" lon="9.2481">
        <ele>1188.16</ele>
        <time>2015-07-06T11:44:42Z</time>
      </trkpt>
      <trkpt lat="41.79108" lon="9.24816">
        <ele>1189.439</ele>
        <time>2015-07-06T11:44:58Z</time>
      </trkpt>
      <trkpt lat="41.79108" lon="9.24821">
        <ele>1191.49</ele>
        <time>2015-07-06T11:45:11Z</time>
      </trkpt>
      <trkpt lat="41.79107" lon="9.2482">
        <ele>1193.114</ele>
        <time>2015-07-06T11:45:23Z</time>
      </trkpt>
      <trkpt lat="41.79102" lon="9.24819">
        <ele>1194.629</ele>
        <time>2015-07-06T11:45:39Z</time>
      </trkpt>
      <trkpt lat="41.79099" lon="9.24817">
        <ele>1196.234</ele>
        <time>2015-07-06T11:45:52Z</time>
      </trkpt>
      <trkpt lat="41.79096" lon="9.24819">
        <ele>1197.782</ele>
        <time>2015-07-06T11:46:05Z</time>
      </trkpt>
      <trkpt lat="41.79092" lon="9.24822">
        <ele>1199.851</ele>
        <time>2015-07-06T11:46:19Z</time>
      </trkpt>
      <trkpt lat="41.7909" lon="9.24827">
        <ele>1199.042</ele>
        <time>2015-07-06T11:46:37Z</time>
      </trkpt>
      <trkpt lat="41.79088" lon="9.24827">
        <ele>1199.22</ele>
        <time>2015-07-06T11:46:59Z</time>
      </trkpt>
      <trkpt lat="41.7909" lon="9.24826">
        <ele>1198.872</ele>
        <time>2015-07-06T11:48:21Z</time>
      </trkpt>
      <trkpt lat="41.79089" lon="9.24826">
        <ele>1199.353</ele>
        <time>2015-07-06T11:48:36Z</time>
      </trkpt>
      <trkpt lat="41.79089" lon="9.24827">
        <ele>1199.35</ele>
        <time>2015-07-06T11:48:49Z</time>
      </trkpt>
      <trkpt lat="41.79086" lon="9.24827">
        <ele>1197.96</ele>
        <time>2015-07-06T11:49:01Z</time>
      </trkpt>
      <trkpt lat="41.79083" lon="9.24827">
        <ele>1196.128</ele>
        <time>2015-07-06T11:49:12Z</time>
      </trkpt>
      <trkpt lat="41.79078" lon="9.24831">
        <ele>1193.81</ele>
        <time>2015-07-06T11:49:27Z</time>
      </trkpt>
      <trkpt lat="41.79075" lon="9.24829">
        <ele>1192.039</ele>
        <time>2015-07-06T11:49:35Z</time>
      </trkpt>
      <trkpt lat="41.79069" lon="9.24826">
        <ele>1189.738</ele>
        <time>2015-07-06T11:49:51Z</time>
      </trkpt>
      <trkpt lat="41.79064" lon="9.24826">
        <ele>1187.962</ele>
        <time>2015-07-06T11:50:05Z</time>
      </trkpt>
      <trkpt lat="41.79055" lon="9.24829">
        <ele>1185.222</ele>
        <time>2015-07-06T11:50:21Z</time>
      </trkpt>
      <trkpt lat="41.79054" lon="9.2483">
        <ele>1184.449</ele>
        <time>2015-07-06T11:50:35Z</time>
      </trkpt>
      <trkpt lat="41.79054" lon="9.24836">
        <ele>1183.998</ele>
        <time>2015-07-06T11:50:49Z</time>
      </trkpt>
      <trkpt lat="41.79053" lon="9.24837">
        <ele>1182.03</ele>
        <time>2015-07-06T11:51:02Z</time>
      </trkpt>
      <trkpt lat="41.79051" lon="9.24839">
        <ele>1179.788</ele>
        <time>2015-07-06T11:51:16Z</time>
      </trkpt>
      <trkpt lat="41.79049" lon="9.24836">
        <ele>1177.855</ele>
        <time>2015-07-06T11:51:31Z</time>
      </trkpt>
      <trkpt lat="41.79048" lon="9.24847">
        <ele>1175.196</ele>
        <time>2015-07-06T11:51:48Z</time>
      </trkpt>
      <trkpt lat="41.79046" lon="9.24853">
        <ele>1172.825</ele>
        <time>2015-07-06T11:52:04Z</time>
      </trkpt>
      <trkpt lat="41.79043" lon="9.2485">
        <ele>1171.828</ele>
        <time>2015-07-06T11:52:18Z</time>
      </trkpt>
      <trkpt lat="41.79041" lon="9.24846">
        <ele>1169.611</ele>
        <time>2015-07-06T11:52:31Z</time>
      </trkpt>
      <trkpt lat="41.7904" lon="9.24839">
        <ele>1168.75</ele>
        <time>2015-07-06T11:52:45Z</time>
      </trkpt>
      <trkpt lat="41.79036" lon="9.24841">
        <ele>1166.877</ele>
        <time>2015-07-06T11:52:58Z</time>
      </trkpt>
      <trkpt lat="41.7903" lon="9.24846">
        <ele>1165.583</ele>
        <time>2015-07-06T11:53:17Z</time>
      </trkpt>
      <trkpt lat="41.79025" lon="9.24843">
        <ele>1163.597</ele>
        <time>2015-07-06T11:53:31Z</time>
      </trkpt>
      <trkpt lat="41.79021" lon="9.24842">
        <ele>1161.23</ele>
        <time>2015-07-06T11:53:44Z</time>
      </trkpt>
      <trkpt lat="41.79022" lon="9.24842">
        <ele>1160.393</ele>
        <time>2015-07-06T11:53:56Z</time>
      </trkpt>
      <trkpt lat="41.79022" lon="9.24847">
        <ele>1158.72</ele>
        <time>2015-07-06T11:54:11Z</time>
      </trkpt>
      <trkpt lat="41.79017" lon="9.24857">
        <ele>1157.213</ele>
        <time>2015-07-06T11:54:27Z</time>
      </trkpt>
      <trkpt lat="41.79015" lon="9.24865">
        <ele>1156.275</ele>
        <time>2015-07-06T11:54:43Z</time>
      </trkpt>
      <trkpt lat="41.79016" lon="9.24865">
        <ele>1155.725</ele>
        <time>2015-07-06T11:54:58Z</time>
      </trkpt>
      <trkpt lat="41.79022" lon="9.24864">
        <ele>1154.537</ele>
        <time>2015-07-06T11:55:21Z</time>
      </trkpt>
      <trkpt lat="41.79025" lon="9.24878">
        <ele>1153.785</ele>
        <time>2015-07-06T11:55:35Z</time>
      </trkpt>
      <trkpt lat="41.79031" lon="9.24886">
        <ele>1152.686</ele>
        <time>2015-07-06T11:55:48Z</time>
      </trkpt>
      <trkpt lat="41.79037" lon="9.24888">
        <ele>1151.541</ele>
        <time>2015-07-06T11:56:02Z</time>
      </trkpt>
      <trkpt lat="41.7904" lon="9.24894">
        <ele>1149.954</ele>
        <time>2015-07-06T11:56:17Z</time>
      </trkpt>
      <trkpt lat="41.79038" lon="9.24896">
        <ele>1148.852</ele>
        <time>2015-07-06T11:56:30Z</time>
      </trkpt>
      <trkpt lat="41.79041" lon="9.24903">
        <ele>1146.59</ele>
        <time>2015-07-06T11:56:44Z</time>
      </trkpt>
      <trkpt lat="41.79046" lon="9.24904">
        <ele>1144.129</ele>
        <time>2015-07-06T11:57:00Z</time>
      </trkpt>
      <trkpt lat="41.79046" lon="9.24907">
        <ele>1142.11</ele>
        <time>2015-07-06T11:57:19Z</time>
      </trkpt>
      <trkpt lat="41.79047" lon="9.24913">
        <ele>1139.868</ele>
        <time>2015-07-06T11:57:34Z</time>
      </trkpt>
      <trkpt lat="41.79048" lon="9.24912">
        <ele>1137.563</ele>
        <time>2015-07-06T11:57:46Z</time>
      </trkpt>
      <trkpt lat="41.79042" lon="9.24914">
        <ele>1135.181</ele>
        <time>2015-07-06T11:57:58Z</time>
      </trkpt>
      <trkpt lat="41.79029" lon="9.24924">
        <ele>1134.572</ele>
        <time>2015-07-06T11:58:14Z</time>
      </trkpt>
      <trkpt lat="41.79022" lon="9.24923">
        <ele>1133.508</ele>
        <time>2015-07-06T11:58:31Z</time>
      </trkpt>
      <trkpt lat="41.79018" lon="9.24922">
        <ele>1132.003</ele>
        <time>2015-07-06T11:58:45Z</time>
      </trkpt>
      <trkpt lat="41.79016" lon="9.24915">
        <ele>1129.79</ele>
        <time>2015-07-06T11:59:00Z</time>
      </trkpt>
      <trkpt lat="41.79015" lon="9.24915">
        <ele>1128.503</ele>
        <time>2015-07-06T11:59:07Z</time>
      </trkpt>
      <trkpt lat="41.7901" lon="9.24913">
        <ele>1126.409</ele>
        <time>2015-07-06T11:59:21Z</time>
      </trkpt>
      <trkpt lat="41.79005" lon="9.24913">
        <ele>1125.099</ele>
        <time>2015-07-06T11:59:32Z</time>
      </trkpt>
      <trkpt lat="41.78998" lon="9.24913">
        <ele>1124.169</ele>
        <time>2015-07-06T11:59:48Z</time>
      </trkpt>
      <trkpt lat="41.78995" lon="9.2491">
        <ele>1122.273</ele>
        <time>2015-07-06T12:00:03Z</time>
      </trkpt>
      <trkpt lat="41.78991" lon="9.24909">
        <ele>1122.217</ele>
        <time>2015-07-06T12:00:21Z</time>
      </trkpt>
      <trkpt lat="41.78995" lon="9.24908">
        <ele>1121.88</ele>
        <time>2015-07-06T12:01:05Z</time>
      </trkpt>
      <trkpt lat="41.78991" lon="9.24905">
        <ele>1119.451</ele>
        <time>2015-07-06T12:01:19Z</time>
      </trkpt>
      <trkpt lat="41.78988" lon="9.24899">
        <ele>1117.233</ele>
        <time>2015-07-06T12:01:32Z</time>
      </trkpt>
      <trkpt lat="41.78982" lon="9.2489">
        <ele>1115.162</ele>
        <time>2015-07-06T12:01:46Z</time>
      </trkpt>
      <trkpt lat="41.78972" lon="9.2488">
        <ele>1112.069</ele>
        <time>2015-07-06T12:02:02Z</time>
      </trkpt>
      <trkpt lat="41.78971" lon="9.24879">
        <ele>1111.687</ele>
        <time>2015-07-06T12:02:03Z</time>
      </trkpt>
      <trkpt lat="41.78963" lon="9.24877">
        <ele>1111.099</ele>
        <time>2015-07-06T12:02:17Z</time>
      </trkpt>
      <trkpt lat="41.78961" lon="9.24875">
        <ele>1109.67</ele>
        <time>2015-07-06T12:02:28Z</time>
      </trkpt>
      <trkpt lat="41.78957" lon="9.24875">
        <ele>1107.843</ele>
        <time>2015-07-06T12:02:47Z</time>
      </trkpt>
      <trkpt lat="41.7895" lon="9.24877">
        <ele>1104.867</ele>
        <time>2015-07-06T12:03:05Z</time>
      </trkpt>
      <trkpt lat="41.7894" lon="9.24886">
        <ele>1101.238</ele>
        <time>2015-07-06T12:03:29Z</time>
      </trkpt>
      <trkpt lat="41.78947" lon="9.24883">
        <ele>1099.226</ele>
        <time>2015-07-06T12:03:46Z</time>
      </trkpt>
      <trkpt lat="41.78954" lon="9.2489">
        <ele>1099.178</ele>
        <time>2015-07-06T12:03:59Z</time>
      </trkpt>
      <trkpt lat="41.7895" lon="9.24903">
        <ele>1095.929</ele>
        <time>2015-07-06T12:04:13Z</time>
      </trkpt>
      <trkpt lat="41.78948" lon="9.24905">
        <ele>1096.031</ele>
        <time>2015-07-06T12:04:15Z</time>
      </trkpt>
      <trkpt lat="41.78933" lon="9.24927">
        <ele>1093.939</ele>
        <time>2015-07-06T12:04:27Z</time>
      </trkpt>
      <trkpt lat="41.78922" lon="9.24942">
        <ele>1093.648</ele>
        <time>2015-07-06T12:04:38Z</time>
      </trkpt>
      <trkpt lat="41.78943" lon="9.24921">
        <ele>1093.755</ele>
        <time>2015-07-06T12:04:52Z</time>
      </trkpt>
      <trkpt lat="41.78973" lon="9.24883">
        <ele>1095.324</ele>
        <time>2015-07-06T12:05:10Z</time>
      </trkpt>
      <trkpt lat="41.78981" lon="9.24877">
        <ele>1096.671</ele>
        <time>2015-07-06T12:05:22Z</time>
      </trkpt>
      <trkpt lat="41.78979" lon="9.24877">
        <ele>1096.203</ele>
        <time>2015-07-06T12:05:50Z</time>
      </trkpt>
      <trkpt lat="41.78986" lon="9.24889">
        <ele>1099.402</ele>
        <time>2015-07-06T12:06:04Z</time>
      </trkpt>
      <trkpt lat="41.78986" lon="9.24915">
        <ele>1101.478</ele>
        <time>2015-07-06T12:06:29Z</time>
      </trkpt>
      <trkpt lat="41.78985" lon="9.24934">
        <ele>1102.254</ele>
        <time>2015-07-06T12:06:48Z</time>
      </trkpt>
      <trkpt lat="41.78985" lon="9.24938">
        <ele>1101.183</ele>
        <time>2015-07-06T12:06:54Z</time>
      </trkpt>
      <trkpt lat="41.78995" lon="9.24943">
        <ele>1100.992</ele>
        <time>2015-07-06T12:07:11Z</time>
      </trkpt>
      <trkpt lat="41.79" lon="9.24946">
        <ele>1100.905</ele>
        <time>2015-07-06T12:07:28Z</time>
      </trkpt>
      <trkpt lat="41.79002" lon="9.24951">
        <ele>1099.605</ele>
        <time>2015-07-06T12:07:48Z</time>
      </trkpt>
      <trkpt lat="41.78999" lon="9.2495">
        <ele>1098.177</ele>
        <time>2015-07-06T12:08:01Z</time>
      </trkpt>
      <trkpt lat="41.78994" lon="9.24952">
        <ele>1096.766</ele>
        <time>2015-07-06T12:08:16Z</time>
      </trkpt>
      <trkpt lat="41.79001" lon="9.24952">
        <ele>1095.33</ele>
        <time>2015-07-06T12:08:29Z</time>
      </trkpt>
      <trkpt lat="41.79005" lon="9.24955">
        <ele>1094.423</ele>
        <time>2015-07-06T12:08:40Z</time>
      </trkpt>
      <trkpt lat="41.79008" lon="9.24959">
        <ele>1093.053</ele>
        <time>2015-07-06T12:08:51Z</time>
      </trkpt>
      <trkpt lat="41.79008" lon="9.2496">
        <ele>1091.436</ele>
        <time>2015-07-06T12:08:58Z</time>
      </trkpt>
      <trkpt lat="41.79007" lon="9.24962">
        <ele>1088.972</ele>
        <time>2015-07-06T12:09:05Z</time>
      </trkpt>
      <trkpt lat="41.79006" lon="9.24966">
        <ele>1087.809</ele>
        <time>2015-07-06T12:09:11Z</time>
      </trkpt>
      <trkpt lat="41.79011" lon="9.24965">
        <ele>1086.903</ele>
        <time>2015-07-06T12:09:23Z</time>
      </trkpt>
      <trkpt lat="41.79018" lon="9.24966">
        <ele>1085.888</ele>
        <time>2015-07-06T12:09:37Z</time>
      </trkpt>
      <trkpt lat="41.79028" lon="9.24968">
        <ele>1085.67</ele>
        <time>2015-07-06T12:09:49Z</time>
      </trkpt>
      <trkpt lat="41.7903" lon="9.24967">
        <ele>1085.344</ele>
        <time>2015-07-06T12:09:52Z</time>
      </trkpt>
      <trkpt lat="41.79035" lon="9.24966">
        <ele>1084.466</ele>
        <time>2015-07-06T12:10:06Z</time>
      </trkpt>
      <trkpt lat="41.79041" lon="9.24968">
        <ele>1082.968</ele>
        <time>2015-07-06T12:10:17Z</time>
      </trkpt>
      <trkpt lat="41.79039" lon="9.24977">
        <ele>1080.669</ele>
        <time>2015-07-06T12:10:30Z</time>
      </trkpt>
      <trkpt lat="41.79034" lon="9.24985">
        <ele>1079.753</ele>
        <time>2015-07-06T12:10:40Z</time>
      </trkpt>
      <trkpt lat="41.79029" lon="9.24993">
        <ele>1079.705</ele>
        <time>2015-07-06T12:10:52Z</time>
      </trkpt>
      <trkpt lat="41.7902" lon="9.25">
        <ele>1078.33</ele>
        <time>2015-07-06T12:11:03Z</time>
      </trkpt>
      <trkpt lat="41.79015" lon="9.25003">
        <ele>1076.236</ele>
        <time>2015-07-06T12:11:14Z</time>
      </trkpt>
      <trkpt lat="41.79021" lon="9.24997">
        <ele>1074.75</ele>
        <time>2015-07-06T12:11:33Z</time>
      </trkpt>
      <trkpt lat="41.79029" lon="9.24987">
        <ele>1072.738</ele>
        <time>2015-07-06T12:11:51Z</time>
      </trkpt>
      <trkpt lat="41.79033" lon="9.24985">
        <ele>1073.27</ele>
        <time>2015-07-06T12:11:53Z</time>
      </trkpt>
      <trkpt lat="41.79032" lon="9.25002">
        <ele>1071.844</ele>
        <time>2015-07-06T12:12:08Z</time>
      </trkpt>
      <trkpt lat="41.79021" lon="9.25018">
        <ele>1069.677</ele>
        <time>2015-07-06T12:12:17Z</time>
      </trkpt>
      <trkpt lat="41.79009" lon="9.25029">
        <ele>1068.483</ele>
        <time>2015-07-06T12:12:24Z</time>
      </trkpt>
      <trkpt lat="41.79028" lon="9.25019">
        <ele>1067.838</ele>
        <time>2015-07-06T12:12:36Z</time>
      </trkpt>
      <trkpt lat="41.79037" lon="9.25009">
        <ele>1064.608</ele>
        <time>2015-07-06T12:12:50Z</time>
      </trkpt>
      <trkpt lat="41.79035" lon="9.25013">
        <ele>1063.027</ele>
        <time>2015-07-06T12:13:04Z</time>
      </trkpt>
      <trkpt lat="41.79031" lon="9.25012">
        <ele>1061.854</ele>
        <time>2015-07-06T12:13:18Z</time>
      </trkpt>
      <trkpt lat="41.79031" lon="9.25008">
        <ele>1058.664</ele>
        <time>2015-07-06T12:13:31Z</time>
      </trkpt>
      <trkpt lat="41.79023" lon="9.25018">
        <ele>1058.467</ele>
        <time>2015-07-06T12:13:45Z</time>
      </trkpt>
      <trkpt lat="41.79027" lon="9.2502">
        <ele>1056.691</ele>
        <time>2015-07-06T12:14:01Z</time>
      </trkpt>
      <trkpt lat="41.79031" lon="9.25019">
        <ele>1056.003</ele>
        <time>2015-07-06T12:14:16Z</time>
      </trkpt>
      <trkpt lat="41.79028" lon="9.2503">
        <ele>1053.888</ele>
        <time>2015-07-06T12:14:30Z</time>
      </trkpt>
      <trkpt lat="41.79027" lon="9.25043">
        <ele>1050.815</ele>
        <time>2015-07-06T12:14:45Z</time>
      </trkpt>
      <trkpt lat="41.79038" lon="9.25042">
        <ele>1050.697</ele>
        <time>2015-07-06T12:14:54Z</time>
      </trkpt>
      <trkpt lat="41.79047" lon="9.25047">
        <ele>1049.971</ele>
        <time>2015-07-06T12:15:06Z</time>
      </trkpt>
      <trkpt lat="41.79051" lon="9.25051">
        <ele>1048.153</ele>
        <time>2015-07-06T12:15:20Z</time>
      </trkpt>
      <trkpt lat="41.79061" lon="9.2505">
        <ele>1047.291</ele>
        <time>2015-07-06T12:15:31Z</time>
      </trkpt>
      <trkpt lat="41.79071" lon="9.25053">
        <ele>1046.632</ele>
        <time>2015-07-06T12:15:46Z</time>
      </trkpt>
      <trkpt lat="41.79083" lon="9.2506">
        <ele>1047.192</ele>
        <time>2015-07-06T12:16:02Z</time>
      </trkpt>
      <trkpt lat="41.79089" lon="9.25064">
        <ele>1046.938</ele>
        <time>2015-07-06T12:16:13Z</time>
      </trkpt>
      <trkpt lat="41.79091" lon="9.25078">
        <ele>1047.467</ele>
        <time>2015-07-06T12:16:26Z</time>
      </trkpt>
      <trkpt lat="41.79097" lon="9.25082">
        <ele>1049.079</ele>
        <time>2015-07-06T12:16:39Z</time>
      </trkpt>
      <trkpt lat="41.79099" lon="9.25089">
        <ele>1049.332</ele>
        <time>2015-07-06T12:16:51Z</time>
      </trkpt>
      <trkpt lat="41.79104" lon="9.25091">
        <ele>1048.374</ele>
        <time>2015-07-06T12:17:02Z</time>
      </trkpt>
      <trkpt lat="41.7911" lon="9.25087">
        <ele>1047.678</ele>
        <time>2015-07-06T12:17:30Z</time>
      </trkpt>
      <trkpt lat="41.79112" lon="9.25087">
        <ele>1047.765</ele>
        <time>2015-07-06T12:18:16Z</time>
      </trkpt>
      <trkpt lat="41.7912" lon="9.25083">
        <ele>1047.015</ele>
        <time>2015-07-06T12:19:35Z</time>
      </trkpt>
      <trkpt lat="41.79122" lon="9.2509">
        <ele>1048.46</ele>
        <time>2015-07-06T12:19:51Z</time>
      </trkpt>
      <trkpt lat="41.79123" lon="9.25091">
        <ele>1046.864</ele>
        <time>2015-07-06T12:20:06Z</time>
      </trkpt>
      <trkpt lat="41.79128" lon="9.25091">
        <ele>1045.223</ele>
        <time>2015-07-06T12:20:17Z</time>
      </trkpt>
      <trkpt lat="41.79129" lon="9.25095">
        <ele>1045.324</ele>
        <time>2015-07-06T12:20:30Z</time>
      </trkpt>
      <trkpt lat="41.79122" lon="9.25104">
        <ele>1042.944</ele>
        <time>2015-07-06T12:20:43Z</time>
      </trkpt>
      <trkpt lat="41.79123" lon="9.25105">
        <ele>1041.178</ele>
        <time>2015-07-06T12:20:57Z</time>
      </trkpt>
      <trkpt lat="41.79128" lon="9.25116">
        <ele>1040.861</ele>
        <time>2015-07-06T12:21:09Z</time>
      </trkpt>
      <trkpt lat="41.79136" lon="9.25121">
        <ele>1039.59</ele>
        <time>2015-07-06T12:21:23Z</time>
      </trkpt>
      <trkpt lat="41.79137" lon="9.25122">
        <ele>1039.224</ele>
        <time>2015-07-06T12:21:24Z</time>
      </trkpt>
      <trkpt lat="41.79144" lon="9.25129">
        <ele>1039.592</ele>
        <time>2015-07-06T12:21:38Z</time>
      </trkpt>
      <trkpt lat="41.79147" lon="9.25142">
        <ele>1038.642</ele>
        <time>2015-07-06T12:21:53Z</time>
      </trkpt>
      <trkpt lat="41.79149" lon="9.25151">
        <ele>1037.624</ele>
        <time>2015-07-06T12:22:04Z</time>
      </trkpt>
      <trkpt lat="41.79153" lon="9.25164">
        <ele>1034.593</ele>
        <time>2015-07-06T12:22:20Z</time>
      </trkpt>
      <trkpt lat="41.79154" lon="9.25171">
        <ele>1032.56</ele>
        <time>2015-07-06T12:22:33Z</time>
      </trkpt>
      <trkpt lat="41.7916" lon="9.25179">
        <ele>1031.351</ele>
        <time>2015-07-06T12:22:45Z</time>
      </trkpt>
      <trkpt lat="41.79168" lon="9.25188">
        <ele>1029.208</ele>
        <time>2015-07-06T12:22:59Z</time>
      </trkpt>
      <trkpt lat="41.79173" lon="9.25204">
        <ele>1028.62</ele>
        <time>2015-07-06T12:23:13Z</time>
      </trkpt>
      <trkpt lat="41.79174" lon="9.25211">
        <ele>1029.815</ele>
        <time>2015-07-06T12:23:25Z</time>
      </trkpt>
      <trkpt lat="41.79185" lon="9.25209">
        <ele>1027.538</ele>
        <time>2015-07-06T12:23:39Z</time>
      </trkpt>
      <trkpt lat="41.7919" lon="9.2521">
        <ele>1026.132</ele>
        <time>2015-07-06T12:23:53Z</time>
      </trkpt>
      <trkpt lat="41.79192" lon="9.25223">
        <ele>1024.952</ele>
        <time>2015-07-06T12:24:06Z</time>
      </trkpt>
      <trkpt lat="41.792" lon="9.25238">
        <ele>1024.764</ele>
        <time>2015-07-06T12:24:21Z</time>
      </trkpt>
      <trkpt lat="41.79198" lon="9.25244">
        <ele>1023.907</ele>
        <time>2015-07-06T12:24:25Z</time>
      </trkpt>
      <trkpt lat="41.792" lon="9.25262">
        <ele>1023.098</ele>
        <time>2015-07-06T12:24:38Z</time>
      </trkpt>
      <trkpt lat="41.79201" lon="9.25273">
        <ele>1023.631</ele>
        <time>2015-07-06T12:24:49Z</time>
      </trkpt>
      <trkpt lat="41.79201" lon="9.25284">
        <ele>1023.893</ele>
        <time>2015-07-06T12:25:00Z</time>
      </trkpt>
      <trkpt lat="41.79208" lon="9.25294">
        <ele>1023.078</ele>
        <time>2015-07-06T12:25:12Z</time>
      </trkpt>
      <trkpt lat="41.79211" lon="9.25302">
        <ele>1024.783</ele>
        <time>2015-07-06T12:25:27Z</time>
      </trkpt>
      <trkpt lat="41.79219" lon="9.253">
        <ele>1025.876</ele>
        <time>2015-07-06T12:25:42Z</time>
      </trkpt>
      <trkpt lat="41.79227" lon="9.25298">
        <ele>1026.309</ele>
        <time>2015-07-06T12:25:56Z</time>
      </trkpt>
      <trkpt lat="41.79229" lon="9.25297">
        <ele>1026.168</ele>
        <time>2015-07-06T12:26:04Z</time>
      </trkpt>
      <trkpt lat="41.79236" lon="9.25308">
        <ele>1025.452</ele>
        <time>2015-07-06T12:26:19Z</time>
      </trkpt>
      <trkpt lat="41.79239" lon="9.25331">
        <ele>1023.62</ele>
        <time>2015-07-06T12:26:36Z</time>
      </trkpt>
      <trkpt lat="41.79238" lon="9.25345">
        <ele>1021.871</ele>
        <time>2015-07-06T12:26:49Z</time>
      </trkpt>
      <trkpt lat="41.79234" lon="9.25356">
        <ele>1020.785</ele>
        <time>2015-07-06T12:27:02Z</time>
      </trkpt>
      <trkpt lat="41.79233" lon="9.25369">
        <ele>1018.934</ele>
        <time>2015-07-06T12:27:17Z</time>
      </trkpt>
      <trkpt lat="41.79235" lon="9.25378">
        <ele>1017.76</ele>
        <time>2015-07-06T12:27:30Z</time>
      </trkpt>
      <trkpt lat="41.79235" lon="9.25382">
        <ele>1017.197</ele>
        <time>2015-07-06T12:27:35Z</time>
      </trkpt>
      <trkpt lat="41.79236" lon="9.25385">
        <ele>1017.191</ele>
        <time>2015-07-06T12:27:37Z</time>
      </trkpt>
      <trkpt lat="41.7924" lon="9.25398">
        <ele>1016.887</ele>
        <time>2015-07-06T12:27:55Z</time>
      </trkpt>
      <trkpt lat="41.79242" lon="9.25402">
        <ele>1016.778</ele>
        <time>2015-07-06T12:28:08Z</time>
      </trkpt>
      <trkpt lat="41.79242" lon="9.25403">
        <ele>1016.785</ele>
        <time>2015-07-06T12:28:09Z</time>
      </trkpt>
      <trkpt lat="41.79242" lon="9.2541">
        <ele>1018.338</ele>
        <time>2015-07-06T12:28:27Z</time>
      </trkpt>
      <trkpt lat="41.79243" lon="9.2542">
        <ele>1019.586</ele>
        <time>2015-07-06T12:28:41Z</time>
      </trkpt>
      <trkpt lat="41.79255" lon="9.25434">
        <ele>1020.191</ele>
        <time>2015-07-06T12:28:55Z</time>
      </trkpt>
      <trkpt lat="41.79255" lon="9.25436">
        <ele>1021.229</ele>
        <time>2015-07-06T12:28:57Z</time>
      </trkpt>
      <trkpt lat="41.79252" lon="9.25454">
        <ele>1020.518</ele>
        <time>2015-07-06T12:29:14Z</time>
      </trkpt>
      <trkpt lat="41.79243" lon="9.25458">
        <ele>1020.021</ele>
        <time>2015-07-06T12:29:26Z</time>
      </trkpt>
      <trkpt lat="41.79238" lon="9.25462">
        <ele>1019.817</ele>
        <time>2015-07-06T12:29:35Z</time>
      </trkpt>
      <trkpt lat="41.79237" lon="9.25474">
        <ele>1018.752</ele>
        <time>2015-07-06T12:29:46Z</time>
      </trkpt>
      <trkpt lat="41.79233" lon="9.25483">
        <ele>1019.416</ele>
        <time>2015-07-06T12:29:59Z</time>
      </trkpt>
      <trkpt lat="41.79229" lon="9.25496">
        <ele>1021.329</ele>
        <time>2015-07-06T12:30:19Z</time>
      </trkpt>
      <trkpt lat="41.79223" lon="9.25505">
        <ele>1021.714</ele>
        <time>2015-07-06T12:30:33Z</time>
      </trkpt>
      <trkpt lat="41.79218" lon="9.25513">
        <ele>1022.39</ele>
        <time>2015-07-06T12:30:46Z</time>
      </trkpt>
      <trkpt lat="41.79208" lon="9.25517">
        <ele>1023.361</ele>
        <time>2015-07-06T12:31:02Z</time>
      </trkpt>
      <trkpt lat="41.79203" lon="9.2552">
        <ele>1023.501</ele>
        <time>2015-07-06T12:31:12Z</time>
      </trkpt>
      <trkpt lat="41.79199" lon="9.25531">
        <ele>1024.83</ele>
        <time>2015-07-06T12:31:25Z</time>
      </trkpt>
      <trkpt lat="41.79195" lon="9.25541">
        <ele>1025.262</ele>
        <time>2015-07-06T12:31:37Z</time>
      </trkpt>
      <trkpt lat="41.79195" lon="9.25549">
        <ele>1026.557</ele>
        <time>2015-07-06T12:31:49Z</time>
      </trkpt>
      <trkpt lat="41.79191" lon="9.25562">
        <ele>1027.006</ele>
        <time>2015-07-06T12:32:03Z</time>
      </trkpt>
      <trkpt lat="41.79191" lon="9.25574">
        <ele>1028.162</ele>
        <time>2015-07-06T12:32:16Z</time>
      </trkpt>
      <trkpt lat="41.7919" lon="9.25582">
        <ele>1029.276</ele>
        <time>2015-07-06T12:32:30Z</time>
      </trkpt>
      <trkpt lat="41.79194" lon="9.25586">
        <ele>1029.917</ele>
        <time>2015-07-06T12:32:45Z</time>
      </trkpt>
      <trkpt lat="41.79196" lon="9.25596">
        <ele>1030.626</ele>
        <time>2015-07-06T12:33:01Z</time>
      </trkpt>
      <trkpt lat="41.79197" lon="9.25602">
        <ele>1031.996</ele>
        <time>2015-07-06T12:33:13Z</time>
      </trkpt>
      <trkpt lat="41.79198" lon="9.25611">
        <ele>1031.89</ele>
        <time>2015-07-06T12:33:27Z</time>
      </trkpt>
      <trkpt lat="41.79204" lon="9.25625">
        <ele>1031.906</ele>
        <time>2015-07-06T12:33:42Z</time>
      </trkpt>
      <trkpt lat="41.79202" lon="9.25634">
        <ele>1031.124</ele>
        <time>2015-07-06T12:33:53Z</time>
      </trkpt>
      <trkpt lat="41.79199" lon="9.25644">
        <ele>1029.897</ele>
        <time>2015-07-06T12:34:07Z</time>
      </trkpt>
      <trkpt lat="41.79203" lon="9.25658">
        <ele>1030.615</ele>
        <time>2015-07-06T12:34:22Z</time>
      </trkpt>
      <trkpt lat="41.79208" lon="9.25677">
        <ele>1030.963</ele>
        <time>2015-07-06T12:34:38Z</time>
      </trkpt>
      <trkpt lat="41.79211" lon="9.25699">
        <ele>1032.008</ele>
        <time>2015-07-06T12:34:55Z</time>
      </trkpt>
      <trkpt lat="41.79214" lon="9.25714">
        <ele>1032.89</ele>
        <time>2015-07-06T12:35:10Z</time>
      </trkpt>
      <trkpt lat="41.79218" lon="9.25727">
        <ele>1034.059</ele>
        <time>2015-07-06T12:35:27Z</time>
      </trkpt>
      <trkpt lat="41.79226" lon="9.25732">
        <ele>1034.385</ele>
        <time>2015-07-06T12:35:42Z</time>
      </trkpt>
      <trkpt lat="41.79228" lon="9.25738">
        <ele>1035.656</ele>
        <time>2015-07-06T12:35:55Z</time>
      </trkpt>
      <trkpt lat="41.79231" lon="9.25746">
        <ele>1036.665</ele>
        <time>2015-07-06T12:36:09Z</time>
      </trkpt>
      <trkpt lat="41.79232" lon="9.2575">
        <ele>1036.992</ele>
        <time>2015-07-06T12:36:22Z</time>
      </trkpt>
      <trkpt lat="41.79235" lon="9.25759">
        <ele>1040.012</ele>
        <time>2015-07-06T12:36:36Z</time>
      </trkpt>
      <trkpt lat="41.79235" lon="9.25766">
        <ele>1039.482</ele>
        <time>2015-07-06T12:36:50Z</time>
      </trkpt>
      <trkpt lat="41.79239" lon="9.25772">
        <ele>1041.317</ele>
        <time>2015-07-06T12:37:06Z</time>
      </trkpt>
      <trkpt lat="41.79243" lon="9.25774">
        <ele>1042.245</ele>
        <time>2015-07-06T12:37:21Z</time>
      </trkpt>
      <trkpt lat="41.79243" lon="9.25773">
        <ele>1040.665</ele>
        <time>2015-07-06T12:37:28Z</time>
      </trkpt>
      <trkpt lat="41.79243" lon="9.25773">
        <ele>1042.391</ele>
        <time>2015-07-06T12:37:31Z</time>
      </trkpt>
      <trkpt lat="41.79241" lon="9.25768">
        <ele>1040.566</ele>
        <time>2015-07-06T12:38:00Z</time>
      </trkpt>
      <trkpt lat="41.79238" lon="9.25772">
        <ele>1040.111</ele>
        <time>2015-07-06T12:39:33Z</time>
      </trkpt>
      <trkpt lat="41.79242" lon="9.25775">
        <ele>1040.575</ele>
        <time>2015-07-06T12:40:34Z</time>
      </trkpt>
      <trkpt lat="41.79239" lon="9.25771">
        <ele>1042.386</ele>
        <time>2015-07-06T12:42:24Z</time>
      </trkpt>
      <trkpt lat="41.79239" lon="9.2577">
        <ele>1041.897</ele>
        <time>2015-07-06T12:42:25Z</time>
      </trkpt>
      <trkpt lat="41.79247" lon="9.25767">
        <ele>1036.325</ele>
        <time>2015-07-06T12:42:51Z</time>
      </trkpt>
      <trkpt lat="41.79246" lon="9.25767">
        <ele>1038.366</ele>
        <time>2015-07-06T12:42:52Z</time>
      </trkpt>
      <trkpt lat="41.79246" lon="9.25768">
        <ele>1047.285</ele>
        <time>2015-07-06T12:42:53Z</time>
      </trkpt>
      <trkpt lat="41.79245" lon="9.25767">
        <ele>1041.844</ele>
        <time>2015-07-06T12:42:54Z</time>
      </trkpt>
      <trkpt lat="41.79244" lon="9.25772">
        <ele>1041.645</ele>
        <time>2015-07-06T12:43:04Z</time>
      </trkpt>
      <trkpt lat="41.79244" lon="9.25775">
        <ele>1040.633</ele>
        <time>2015-07-06T12:43:33Z</time>
      </trkpt>
      <trkpt lat="41.79241" lon="9.25777">
        <ele>1039.824</ele>
        <time>2015-07-06T12:43:45Z</time>
      </trkpt>
      <trkpt lat="41.79237" lon="9.25777">
        <ele>1039.932</ele>
        <time>2015-07-06T12:43:59Z</time>
      </trkpt>
      <trkpt lat="41.79238" lon="9.25782">
        <ele>1040.976</ele>
        <time>2015-07-06T12:44:11Z</time>
      </trkpt>
      <trkpt lat="41.79243" lon="9.25785">
        <ele>1041.801</ele>
        <time>2015-07-06T12:44:27Z</time>
      </trkpt>
      <trkpt lat="41.79245" lon="9.25789">
        <ele>1042.851</ele>
        <time>2015-07-06T12:44:40Z</time>
      </trkpt>
      <trkpt lat="41.79251" lon="9.25794">
        <ele>1044.486</ele>
        <time>2015-07-06T12:44:52Z</time>
      </trkpt>
      <trkpt lat="41.79254" lon="9.25799">
        <ele>1046.129</ele>
        <time>2015-07-06T12:45:05Z</time>
      </trkpt>
      <trkpt lat="41.79258" lon="9.25801">
        <ele>1046.314</ele>
        <time>2015-07-06T12:45:16Z</time>
      </trkpt>
      <trkpt lat="41.79262" lon="9.25808">
        <ele>1047.416</ele>
        <time>2015-07-06T12:45:31Z</time>
      </trkpt>
      <trkpt lat="41.79267" lon="9.25816">
        <ele>1048.441</ele>
        <time>2015-07-06T12:45:47Z</time>
      </trkpt>
      <trkpt lat="41.79272" lon="9.25821">
        <ele>1048.783</ele>
        <time>2015-07-06T12:46:00Z</time>
      </trkpt>
      <trkpt lat="41.79278" lon="9.25823">
        <ele>1050.014</ele>
        <time>2015-07-06T12:46:13Z</time>
      </trkpt>
      <trkpt lat="41.79288" lon="9.25824">
        <ele>1050.723</ele>
        <time>2015-07-06T12:46:30Z</time>
      </trkpt>
      <trkpt lat="41.79299" lon="9.25822">
        <ele>1051.123</ele>
        <time>2015-07-06T12:46:46Z</time>
      </trkpt>
      <trkpt lat="41.79306" lon="9.2582">
        <ele>1051.837</ele>
        <time>2015-07-06T12:46:56Z</time>
      </trkpt>
      <trkpt lat="41.79322" lon="9.25815">
        <ele>1053.937</ele>
        <time>2015-07-06T12:47:15Z</time>
      </trkpt>
      <trkpt lat="41.79338" lon="9.25804">
        <ele>1053.962</ele>
        <time>2015-07-06T12:47:34Z</time>
      </trkpt>
      <trkpt lat="41.79357" lon="9.25798">
        <ele>1053.967</ele>
        <time>2015-07-06T12:47:54Z</time>
      </trkpt>
      <trkpt lat="41.79372" lon="9.25806">
        <ele>1054.65</ele>
        <time>2015-07-06T12:48:12Z</time>
      </trkpt>
      <trkpt lat="41.79385" lon="9.2581">
        <ele>1054.276</ele>
        <time>2015-07-06T12:48:30Z</time>
      </trkpt>
      <trkpt lat="41.79388" lon="9.25816">
        <ele>1054.321</ele>
        <time>2015-07-06T12:48:44Z</time>
      </trkpt>
      <trkpt lat="41.79387" lon="9.25818">
        <ele>1055.234</ele>
        <time>2015-07-06T12:48:51Z</time>
      </trkpt>
      <trkpt lat="41.7939" lon="9.25815">
        <ele>1055.931</ele>
        <time>2015-07-06T12:49:08Z</time>
      </trkpt>
      <trkpt lat="41.7939" lon="9.25817">
        <ele>1054.303</ele>
        <time>2015-07-06T12:49:22Z</time>
      </trkpt>
      <trkpt lat="41.79388" lon="9.25812">
        <ele>1054.198</ele>
        <time>2015-07-06T12:50:07Z</time>
      </trkpt>
      <trkpt lat="41.79389" lon="9.25812">
        <ele>1053.141</ele>
        <time>2015-07-06T12:51:42Z</time>
      </trkpt>
      <trkpt lat="41.79396" lon="9.25813">
        <ele>1053.314</ele>
        <time>2015-07-06T12:52:16Z</time>
      </trkpt>
      <trkpt lat="41.79385" lon="9.2582">
        <ele>1052.537</ele>
        <time>2015-07-06T12:53:06Z</time>
      </trkpt>
      <trkpt lat="41.79385" lon="9.25821">
        <ele>1053.086</ele>
        <time>2015-07-06T12:53:40Z</time>
      </trkpt>
      <trkpt lat="41.79389" lon="9.25817">
        <ele>1053.917</ele>
        <time>2015-07-06T12:53:52Z</time>
      </trkpt>
      <trkpt lat="41.79387" lon="9.2582">
        <ele>1054.299</ele>
        <time>2015-07-06T12:54:05Z</time>
      </trkpt>
      <trkpt lat="41.79387" lon="9.25819">
        <ele>1054.336</ele>
        <time>2015-07-06T12:54:06Z</time>
      </trkpt>
      <trkpt lat="41.7939" lon="9.25814">
        <ele>1054.645</ele>
        <time>2015-07-06T12:54:32Z</time>
      </trkpt>
      <trkpt lat="41.79391" lon="9.25829">
        <ele>1056.623</ele>
        <time>2015-07-06T12:54:47Z</time>
      </trkpt>
      <trkpt lat="41.794" lon="9.25851">
        <ele>1055.77</ele>
        <time>2015-07-06T12:55:05Z</time>
      </trkpt>
      <trkpt lat="41.79412" lon="9.25866">
        <ele>1054.761</ele>
        <time>2015-07-06T12:55:25Z</time>
      </trkpt>
      <trkpt lat="41.79415" lon="9.25875">
        <ele>1053.938</ele>
        <time>2015-07-06T12:55:38Z</time>
      </trkpt>
      <trkpt lat="41.79416" lon="9.25885">
        <ele>1054.739</ele>
        <time>2015-07-06T12:55:48Z</time>
      </trkpt>
      <trkpt lat="41.79417" lon="9.25895">
        <ele>1056.128</ele>
        <time>2015-07-06T12:56:00Z</time>
      </trkpt>
      <trkpt lat="41.79418" lon="9.25916">
        <ele>1056.581</ele>
        <time>2015-07-06T12:56:17Z</time>
      </trkpt>
      <trkpt lat="41.79424" lon="9.25929">
        <ele>1057.16</ele>
        <time>2015-07-06T12:56:33Z</time>
      </trkpt>
      <trkpt lat="41.79431" lon="9.25935">
        <ele>1059.213</ele>
        <time>2015-07-06T12:56:48Z</time>
      </trkpt>
      <trkpt lat="41.79436" lon="9.25939">
        <ele>1062.046</ele>
        <time>2015-07-06T12:57:02Z</time>
      </trkpt>
      <trkpt lat="41.79441" lon="9.25945">
        <ele>1062.958</ele>
        <time>2015-07-06T12:57:18Z</time>
      </trkpt>
      <trkpt lat="41.79443" lon="9.25956">
        <ele>1064.203</ele>
        <time>2015-07-06T12:57:36Z</time>
      </trkpt>
      <trkpt lat="41.79445" lon="9.25958">
        <ele>1064.933</ele>
        <time>2015-07-06T12:57:50Z</time>
      </trkpt>
      <trkpt lat="41.79442" lon="9.25957">
        <ele>1063.575</ele>
        <time>2015-07-06T12:58:22Z</time>
      </trkpt>
      <trkpt lat="41.79437" lon="9.25955">
        <ele>1063.001</ele>
        <time>2015-07-06T12:58:37Z</time>
      </trkpt>
      <trkpt lat="41.79422" lon="9.25952">
        <ele>1063.163</ele>
        <time>2015-07-06T12:58:54Z</time>
      </trkpt>
      <trkpt lat="41.79417" lon="9.25952">
        <ele>1062.854</ele>
        <time>2015-07-06T12:59:07Z</time>
      </trkpt>
      <trkpt lat="41.79413" lon="9.25959">
        <ele>1063.199</ele>
        <time>2015-07-06T12:59:53Z</time>
      </trkpt>
      <trkpt lat="41.79407" lon="9.25972">
        <ele>1064.169</ele>
        <time>2015-07-06T13:00:09Z</time>
      </trkpt>
      <trkpt lat="41.79403" lon="9.25979">
        <ele>1064.044</ele>
        <time>2015-07-06T13:00:24Z</time>
      </trkpt>
      <trkpt lat="41.79402" lon="9.25994">
        <ele>1064.547</ele>
        <time>2015-07-06T13:00:39Z</time>
      </trkpt>
      <trkpt lat="41.79395" lon="9.26001">
        <ele>1064.939</ele>
        <time>2015-07-06T13:00:56Z</time>
      </trkpt>
      <trkpt lat="41.79393" lon="9.26005">
        <ele>1064.682</ele>
        <time>2015-07-06T13:01:21Z</time>
      </trkpt>
      <trkpt lat="41.79392" lon="9.26005">
        <ele>1064.852</ele>
        <time>2015-07-06T13:01:47Z</time>
      </trkpt>
      <trkpt lat="41.79398" lon="9.26001">
        <ele>1063.714</ele>
        <time>2015-07-06T13:02:02Z</time>
      </trkpt>
      <trkpt lat="41.79407" lon="9.26011">
        <ele>1065.015</ele>
        <time>2015-07-06T13:02:19Z</time>
      </trkpt>
      <trkpt lat="41.7941" lon="9.2602">
        <ele>1063.425</ele>
        <time>2015-07-06T13:02:35Z</time>
      </trkpt>
      <trkpt lat="41.79405" lon="9.26037">
        <ele>1061.81</ele>
        <time>2015-07-06T13:02:53Z</time>
      </trkpt>
      <trkpt lat="41.79399" lon="9.26048">
        <ele>1060.654</ele>
        <time>2015-07-06T13:03:13Z</time>
      </trkpt>
      <trkpt lat="41.79399" lon="9.26048">
        <ele>1060.643</ele>
        <time>2015-07-06T13:03:18Z</time>
      </trkpt>
      <trkpt lat="41.79401" lon="9.26049">
        <ele>1058.953</ele>
        <time>2015-07-06T13:03:47Z</time>
      </trkpt>
      <trkpt lat="41.79397" lon="9.26048">
        <ele>1058.751</ele>
        <time>2015-07-06T13:06:48Z</time>
      </trkpt>
      <trkpt lat="41.79397" lon="9.2605">
        <ele>1058.738</ele>
        <time>2015-07-06T13:08:21Z</time>
      </trkpt>
      <trkpt lat="41.79402" lon="9.2605">
        <ele>1059.208</ele>
        <time>2015-07-06T13:11:03Z</time>
      </trkpt>
      <trkpt lat="41.79403" lon="9.26046">
        <ele>1059.375</ele>
        <time>2015-07-06T13:11:26Z</time>
      </trkpt>
      <trkpt lat="41.79403" lon="9.26044">
        <ele>1060.26</ele>
        <time>2015-07-06T13:12:36Z</time>
      </trkpt>
      <trkpt lat="41.79402" lon="9.26044">
        <ele>1053.529</ele>
        <time>2015-07-06T13:12:43Z</time>
      </trkpt>
      <trkpt lat="41.79401" lon="9.26044">
        <ele>1058.674</ele>
        <time>2015-07-06T13:12:44Z</time>
      </trkpt>
      <trkpt lat="41.79401" lon="9.26043">
        <ele>1067.401</ele>
        <time>2015-07-06T13:12:45Z</time>
      </trkpt>
      <trkpt lat="41.79401" lon="9.26043">
        <ele>1059.922</ele>
        <time>2015-07-06T13:12:46Z</time>
      </trkpt>
      <trkpt lat="41.794" lon="9.26041">
        <ele>1059.476</ele>
        <time>2015-07-06T13:12:51Z</time>
      </trkpt>
      <trkpt lat="41.79401" lon="9.26044">
        <ele>1059.973</ele>
        <time>2015-07-06T13:13:23Z</time>
      </trkpt>
    </trkseg>
  </trk>
</gpx>